ECMWFNIL_850_spd_000.txt.gz
Wind_Speed
10 8 8 8 9 10 11 11 11 11 12 12 11 12 12 12 11 10 10 10 8 6 5 4 3 3 3 3 3 3 4 5 5 6 6 6 5 5 5 6 7 7
11 9 8 9 9 10 10 10 10 10 10 10 10 10 10 11 10 9 8 8 8 8 8 6 5 4 5 4 4 5 7 9 9 8 9 9 8 8 8 8 9 9
12 10 9 8 8 8 9 10 9 9 9 9 9 9 9 8 8 7 6 7 9 11 10 8 7 6 7 6 6 7 9 11 11 11 11 12 11 10 10 11 11 11
13 11 9 8 8 8 9 9 9 8 9 9 8 8 7 6 6 7 7 8 11 12 11 10 9 9 8 8 8 9 10 12 12 13 14 14 14 13 12 13 14 13
13 11 10 9 9 9 9 9 8 7 7 8 7 7 6 6 8 9 9 9 10 12 12 11 10 10 10 10 10 11 11 13 13 13 15 16 17 15 13 15 16 16
14 12 10 9 9 10 10 8 7 6 7 7 7 6 5 6 8 9 9 8 9 11 12 12 11 10 11 11 11 11 12 12 13 14 15 16 17 16 14 15 17 18
15 13 11 10 10 10 10 8 7 6 6 7 7 6 6 6 7 8 7 8 8 9 9 10 10 10 10 10 10 10 11 12 13 15 17 17 16 15 15 17 19 21
16 13 11 11 10 10 11 9 8 7 7 7 7 6 7 8 8 8 8 8 8 8 9 10 10 10 9 9 9 10 11 12 14 16 18 19 19 19 18 18 20 23
17 14 12 11 11 12 12 10 9 9 9 7 6 6 8 10 10 10 10 10 9 10 11 10 10 10 9 10 11 11 12 13 15 18 19 20 22 21 20 19 20 23
19 16 14 12 12 13 13 12 10 10 9 7 6 7 9 10 11 11 11 10 10 10 10 9 10 11 12 12 12 13 14 15 17 18 18 19 19 18 17 18 19 20
21 16 16 14 12 14 14 12 11 10 10 8 8 9 9 10 11 12 11 11 11 11 10 10 11 13 14 14 15 14 15 15 16 16 16 17 17 16 16 16 18 19
23 18 18 14 12 14 14 12 10 9 9 9 9 10 10 12 14 13 12 12 12 12 11 11 13 14 16 17 16 14 12 13 14 14 15 16 16 15 15 16 17 19
25 20 19 15 11 13 13 11 10 9 10 11 11 13 14 15 15 13 12 12 12 11 11 12 13 15 16 16 13 10 10 12 13 14 15 16 17 16 15 16 17 18
25 19 19 16 12 12 12 10 9 9 10 12 13 15 16 15 13 13 14 13 11 10 11 13 14 16 15 13 11 10 11 13 14 15 16 17 18 18 17 17 18 18
24 20 21 18 14 13 11 9 9 9 11 12 13 15 15 14 14 15 15 12 10 11 12 13 15 15 15 14 12 12 13 14 16 16 17 18 19 20 20 19 19 19
25 23 24 21 18 14 11 10 9 10 11 12 13 14 13 13 13 14 12 10 10 10 11 13 14 13 13 13 13 13 15 17 18 18 19 20 20 20 22 22 21 21
25 24 27 24 19 15 11 11 10 11 12 12 13 13 12 12 11 11 10 9 9 11 12 13 14 13 12 13 13 15 17 19 20 21 20 20 20 20 21 22 22 22
22 24 30 26 19 16 13 11 11 13 14 14 14 14 12 11 10 10 10 10 11 13 14 14 13 13 14 15 15 16 18 19 21 22 20 20 19 19 20 20 21 21
20 24 31 25 19 17 14 12 14 15 15 15 15 13 12 12 11 11 12 13 14 15 15 14 14 15 16 17 18 19 19 19 20 20 19 18 19 20 19 18 18 18
22 28 31 23 18 19 16 15 16 16 16 16 15 13 13 13 13 14 14 15 17 17 17 17 17 18 18 19 20 20 20 19 18 17 17 18 19 20 19 17 16 16
20 27 29 23 21 22 20 18 17 17 17 17 16 14 14 14 14 15 15 17 20 21 20 19 19 20 20 21 21 20 19 19 18 17 17 18 20 20 18 17 17 16
21 26 28 28 27 24 23 21 18 18 18 17 17 16 15 15 15 16 17 20 23 23 21 20 20 21 22 22 22 21 21 21 21 20 19 19 20 20 18 17 17 17
20 25 29 33 32 27 24 22 20 18 17 17 19 18 17 18 19 19 19 20 22 21 19 19 21 21 22 22 23 23 22 22 22 21 19 18 19 21 20 18 17 18
22 25 30 35 34 28 25 23 22 20 19 19 20 21 22 25 25 22 20 21 21 19 18 21 22 21 21 22 23 22 21 21 22 21 20 20 21 22 22 20 18 19
26 25 28 35 35 29 25 24 23 21 20 21 23 25 26 28 26 21 20 22 23 21 20 22 22 20 19 20 20 21 21 21 22 22 22 23 24 24 23 21 20 21
27 24 27 31 31 28 26 25 23 21 22 23 25 26 27 28 24 18 16 18 20 19 19 19 19 17 16 17 19 21 22 22 22 24 25 24 23 23 23 21 21 22

ECMWFNIL_850_spd_003.txt.gz
Wind_Speed
18 17 17 18 19 20 19 18 18 17 16 15 13 13 13 13 11 9 8 7 7 7 7 7 7 7 7 7 6 6 6 5 4 5 6 7 7 8 9 10 10 10
20 19 19 20 21 21 19 18 17 17 15 14 14 14 14 14 13 11 9 9 8 6 5 5 6 7 8 8 8 8 8 8 7 6 7 8 9 10 11 12 12 12
22 21 22 22 22 20 18 17 16 16 15 14 15 15 15 15 14 13 11 9 8 6 6 7 8 8 9 9 10 10 10 10 10 9 10 10 10 11 12 13 14 14
24 23 23 23 20 18 16 17 17 17 15 15 15 15 15 15 14 13 11 8 7 7 8 11 11 10 11 11 12 12 12 13 13 12 12 12 12 13 13 13 14 15
26 24 23 22 19 17 17 18 18 17 16 15 14 14 15 14 13 11 9 7 7 8 10 12 12 12 12 12 12 12 13 13 13 12 12 12 12 13 13 13 14 15
28 26 24 21 19 18 18 19 18 17 16 14 13 14 14 13 11 9 7 7 7 8 9 11 12 11 11 10 10 10 11 11 11 11 12 12 12 13 14 14 15 16
30 27 25 22 19 18 18 17 17 17 16 14 14 14 14 12 10 8 8 7 7 8 8 9 10 9 9 9 9 9 9 9 9 10 12 12 13 14 15 16 17 18
31 29 26 22 20 18 17 17 17 17 16 15 14 14 14 12 10 8 8 8 7 7 8 8 8 8 8 9 9 10 10 10 11 12 13 13 14 15 16 17 18 18
32 30 27 23 21 19 17 17 17 17 17 16 15 14 14 12 10 9 9 8 8 8 7 7 7 7 8 8 9 10 11 12 12 12 13 14 15 15 15 16 17 17
34 33 29 24 22 19 16 17 18 17 18 17 15 15 14 12 11 10 10 10 9 8 7 6 7 8 9 10 11 12 12 12 12 12 12 13 14 14 14 15 16 17
38 36 31 26 23 18 14 17 19 18 19 18 17 16 14 12 12 11 11 11 10 8 8 8 8 10 10 11 11 12 13 12 11 10 10 11 11 12 13 14 15 16
41 38 33 28 24 17 13 17 20 19 19 20 19 17 15 13 13 12 12 11 10 9 9 9 10 11 11 11 12 13 12 11 9 9 9 10 11 12 13 15 16 17
43 39 36 31 23 15 16 20 21 20 20 21 20 18 16 15 14 13 12 12 11 10 10 11 11 12 11 11 12 12 11 10 9 10 11 12 13 15 16 18 18 19
45 41 38 31 21 16 20 23 22 21 21 21 21 19 17 16 14 13 13 14 12 11 10 11 12 12 11 11 12 12 11 11 11 12 13 15 16 18 19 19 20 20
47 42 38 30 20 19 23 23 22 22 22 22 21 19 17 15 14 14 15 16 14 12 11 11 11 11 10 11 12 12 11 12 13 14 16 17 19 20 21 20 21 21
47 43 39 29 22 23 25 23 22 22 22 22 21 19 17 15 15 16 17 17 15 13 12 11 11 10 10 11 12 12 12 13 15 16 18 20 21 21 21 20 20 21
49 46 41 32 26 26 26 22 21 21 21 21 20 18 17 16 16 17 18 17 16 14 14 12 11 11 11 12 13 14 14 15 16 19 20 21 22 22 21 20 20 21
50 46 40 30 23 24 24 21 20 20 20 21 20 18 18 17 18 18 18 17 15 15 14 12 12 12 13 14 16 16 17 17 19 21 22 23 24 23 21 21 21 22
44 40 36 27 20 22 24 22 20 21 21 21 20 18 19 19 19 19 18 16 15 15 14 13 13 14 15 17 18 19 20 20 21 23 25 25 25 24 23 23 23 23
42 40 37 31 25 27 29 26 23 22 21 21 20 20 21 21 20 20 18 16 15 15 15 15 15 15 17 19 21 22 22 23 23 25 27 27 26 26 25 24 24 24
45 43 41 35 28 29 32 31 27 24 22 21 22 22 23 22 21 20 18 17 17 16 15 16 17 18 21 22 22 23 24 25 26 26 27 27 26 27 26 24 24 24
44 44 44 37 29 30 34 34 30 27 23 23 23 23 23 22 20 19 19 19 19 18 18 19 20 20 22 22 22 23 25 26 26 26 26 25 25 26 26 25 24 24
43 44 41 33 29 31 33 33 32 30 28 26 26 25 24 23 21 20 20 20 20 22 22 21 21 20 21 20 20 20 22 23 23 23 24 23 23 25 26 25 24 25
44 44 39 30 27 30 32 32 31 32 33 31 28 26 25 23 22 22 22 24 26 27 24 21 21 22 23 22 19 17 19 21 22 22 22 22 22 24 26 26 26 26
42 41 34 26 25 30 31 31 32 35 38 37 32 29 27 26 26 27 27 28 29 27 23 21 21 22 23 22 19 17 19 20 22 22 22 22 23 24 26 27 27 26
41 36 25 18 23 31 30 30 35 38 38 36 34 33 31 30 30 29 27 27 27 26 25 23 20 19 20 20 18 18 19 21 22 22 23 23 24 25 26 26 25 25

ECMWFNIL_850_spd_006.txt.gz
Wind_Speed
27 25 22 20 19 18 17 16 16 17 18 17 17 17 16 15 13 11 11 10 9 9 9 9 9 10 10 10 10 9 9 9 8 7 7 7 7 7 7 8 8 10
27 25 23 21 20 19 17 17 17 17 17 17 17 16 16 15 14 13 12 11 10 10 10 11 11 11 11 11 11 11 12 12 11 10 10 10 10 11 11 11 11 12
29 26 24 23 21 19 18 17 18 18 18 18 18 17 17 16 15 15 14 13 12 11 11 12 13 12 11 12 13 13 13 13 14 13 13 13 13 13 13 13 13 13
30 28 25 24 22 20 18 19 20 20 20 20 19 19 19 18 17 17 15 15 14 13 13 13 12 11 10 11 12 13 13 14 14 15 15 15 15 14 13 13 13 14
31 29 27 25 23 21 20 21 22 22 23 22 21 21 21 20 19 17 17 17 16 14 14 12 11 10 10 11 12 12 12 12 13 14 15 15 14 14 13 14 14 14
33 32 29 27 25 22 22 23 24 25 25 24 22 22 21 20 19 18 17 18 17 15 13 11 10 11 12 12 12 12 11 11 11 12 13 13 13 13 14 14 15 15
37 35 31 29 27 25 24 24 26 27 26 23 22 21 21 20 19 18 18 18 17 15 12 11 11 12 12 12 12 12 11 11 10 10 12 12 13 14 14 14 15 16
41 37 34 32 29 27 25 26 28 28 25 23 22 22 20 19 19 18 19 18 16 14 12 12 12 12 12 13 12 12 11 10 10 11 12 14 14 14 14 14 15 16
43 40 37 34 32 31 29 28 29 27 24 23 23 21 20 19 19 19 19 18 16 14 13 13 13 13 13 13 12 11 10 9 10 12 14 14 14 14 13 13 13 14
46 43 40 37 35 34 31 29 30 27 24 22 22 21 21 20 20 20 20 18 16 15 14 13 13 13 13 13 12 10 10 10 10 12 13 13 13 13 12 11 12 13
49 46 44 40 38 36 33 31 30 27 23 20 22 23 22 21 22 22 20 19 17 16 15 14 13 13 13 12 11 10 10 10 10 11 12 13 13 12 11 10 12 14
52 51 47 42 39 36 32 30 28 26 23 20 22 24 24 23 24 23 21 20 18 17 15 14 14 13 13 12 12 11 11 10 10 12 13 14 13 12 11 12 13 15
56 54 49 43 39 33 28 27 27 26 24 21 22 24 25 24 24 23 21 20 18 17 15 14 14 14 14 14 13 12 11 11 11 13 14 15 14 13 13 14 16 17
59 55 49 44 40 34 30 30 30 26 23 22 24 26 26 25 25 23 21 20 18 17 15 14 15 15 15 15 14 13 11 11 12 14 16 16 16 15 16 17 18 19
55 49 47 47 44 38 35 36 33 26 23 23 25 26 26 26 25 23 22 21 19 17 16 16 16 16 15 15 14 13 11 11 12 14 16 17 17 18 18 19 20 21
43 37 41 48 48 44 41 39 34 27 24 25 26 26 27 27 25 24 23 22 20 18 17 17 17 16 14 14 14 12 12 12 13 15 16 18 19 19 20 21 22 24
44 42 46 52 53 50 47 42 36 29 25 26 26 26 27 27 26 26 25 23 21 20 19 20 19 16 15 14 14 13 13 14 15 17 18 20 20 20 21 22 23 25
51 52 53 55 55 53 49 43 38 33 29 27 27 27 27 28 28 28 26 23 22 21 21 21 20 17 16 15 15 15 15 17 18 20 21 22 23 23 23 24 25 27
51 52 54 54 52 52 50 43 38 36 33 30 30 28 27 28 29 28 26 23 22 22 22 21 20 18 17 16 15 15 16 18 21 22 24 25 25 26 25 26 27 28
48 49 48 44 44 47 45 39 36 36 33 31 31 29 28 29 30 29 26 24 23 22 21 20 19 18 17 16 15 16 18 21 23 25 26 27 28 28 26 26 27 28
43 41 37 35 40 43 39 37 39 39 33 30 29 28 27 29 30 28 25 23 23 22 21 20 19 17 17 16 17 19 21 23 25 26 26 28 29 27 24 24 26 28
40 40 38 37 39 41 42 44 46 41 34 30 28 27 28 29 30 29 26 23 22 22 22 21 20 18 18 18 19 21 22 23 24 25 25 25 26 23 22 23 26 27
39 41 42 41 39 42 47 49 44 36 32 30 28 27 27 28 29 28 26 24 22 23 24 23 22 20 20 21 22 22 23 23 24 24 23 22 21 20 21 24 26 27
38 39 41 40 40 46 51 45 34 27 28 28 28 26 25 26 30 30 29 27 24 24 24 24 23 23 23 24 24 24 24 24 24 23 22 21 20 21 23 25 26 27
33 34 35 37 41 48 50 41 30 26 28 29 29 29 28 31 34 32 31 29 27 27 28 27 27 27 26 26 27 28 26 24 22 21 21 20 21 22 24 26 27 28
29 30 32 35 37 34 32 32 30 29 30 30 31 32 32 33 34 33 32 30 28 28 28 29 30 28 26 27 28 28 26 23 21 20 20 21 23 24 25 26 27 27

ECMWFNIL_850_spd_009.txt.gz
Wind_Speed
33 33 32 30 29 28 26 23 21 21 21 20 19 18 17 15 14 14 14 12 10 11 11 11 10 9 9 8 8 8 9 10 11 11 11 10 9 9 9 8 8 8
35 34 33 31 31 29 26 24 22 21 20 19 19 17 16 15 15 15 13 12 10 10 11 11 10 10 10 9 9 10 10 11 12 13 13 12 12 11 10 10 10 10
37 36 34 33 32 30 27 24 22 21 20 19 18 17 16 16 16 15 14 13 11 11 12 11 10 11 11 11 11 11 12 12 13 14 15 15 15 14 13 12 12 12
39 37 36 35 33 30 27 25 24 22 21 20 19 18 17 17 17 16 16 14 12 12 13 12 12 12 13 12 12 12 12 13 13 15 16 17 16 16 15 14 13 13
39 38 37 36 34 30 28 27 25 23 22 21 20 19 19 19 18 18 17 16 14 14 14 14 14 14 15 14 13 13 13 13 14 14 16 17 17 16 15 14 14 14
40 39 38 37 35 32 30 28 25 23 21 21 20 20 20 20 20 19 19 17 16 16 16 16 16 16 16 15 14 14 14 14 14 14 15 16 15 15 15 15 15 15
41 41 40 39 37 34 32 29 25 22 20 19 20 21 21 21 21 21 20 19 18 17 18 18 18 17 17 16 14 14 14 14 13 13 14 14 13 13 13 14 15 15
43 43 42 40 39 36 33 30 27 23 21 21 22 22 21 22 22 22 20 20 19 19 19 20 20 19 18 16 15 14 13 13 13 12 12 12 12 13 13 14 14 15
45 44 43 41 39 37 35 33 29 25 24 24 23 22 22 23 24 23 22 21 20 20 21 21 22 21 18 16 15 15 14 13 12 12 12 12 13 13 13 13 14 14
46 45 42 39 38 38 38 35 31 27 26 25 23 21 22 25 26 24 23 22 21 22 22 23 23 21 17 16 16 15 15 14 12 12 12 13 14 13 13 12 12 13
47 44 41 40 41 42 42 37 32 30 27 24 23 22 22 25 27 26 24 23 23 23 24 24 23 20 17 16 16 16 15 14 13 13 13 13 13 13 13 13 13 12
45 45 44 45 46 46 44 39 34 32 28 25 24 23 23 26 28 27 24 24 24 24 24 24 22 19 17 16 16 16 16 16 15 14 14 13 13 13 13 13 13 13
48 51 51 50 51 51 48 43 39 35 32 29 28 27 27 27 28 27 25 24 25 25 25 24 21 19 18 17 16 17 17 17 16 15 14 14 13 13 14 14 15 15
53 56 54 54 55 54 50 47 42 38 35 33 31 31 31 30 28 26 25 24 25 26 25 23 21 20 19 18 17 18 18 18 18 17 16 14 14 14 15 16 17 17
53 54 53 52 53 52 49 47 42 38 37 37 36 34 33 33 29 25 23 25 26 26 25 23 22 22 20 19 18 18 19 19 19 18 16 15 15 16 16 17 18 18
48 49 49 48 48 50 50 47 42 38 39 41 41 38 36 37 32 24 22 25 26 26 26 24 23 22 20 19 18 18 19 19 19 19 17 17 17 17 17 18 18 19
44 46 47 47 45 46 48 48 46 45 45 44 44 43 41 39 34 26 23 24 25 26 26 24 24 23 21 20 19 18 18 19 20 19 19 18 18 19 19 19 20 20
42 43 44 42 37 36 41 45 49 51 52 50 48 46 45 42 36 28 23 22 23 25 26 25 25 24 22 21 20 19 19 20 21 20 20 20 20 20 21 23 24 24
39 38 38 38 34 33 37 44 49 52 53 54 51 46 43 39 35 30 24 20 23 26 27 27 27 25 24 23 22 21 21 21 22 21 20 20 21 23 24 27 29 29
35 36 36 37 38 38 38 41 47 51 53 54 51 45 39 33 31 32 26 20 24 29 28 28 28 27 26 25 23 22 22 23 23 22 22 22 23 25 26 28 30 30
32 34 36 36 37 39 37 37 42 49 54 53 47 42 38 32 29 30 27 23 28 31 28 29 30 29 27 26 24 23 22 23 24 23 24 25 25 26 26 26 27 25
28 31 33 34 35 37 37 36 39 44 51 51 42 36 37 32 27 28 29 28 30 30 30 32 32 29 28 26 24 23 23 24 25 26 27 27 26 26 26 25 24 22
23 26 29 31 33 34 34 35 38 43 50 50 42 38 40 36 29 30 33 31 30 32 34 33 30 28 27 26 26 26 25 25 27 28 28 28 28 28 26 23 22 20
19 22 25 27 29 31 32 33 36 41 45 46 44 42 41 37 33 36 38 35 33 35 33 31 29 28 28 29 30 29 27 27 28 28 27 28 29 26 22 21 21 20
16 19 21 24 26 28 28 30 33 36 36 38 40 38 36 36 37 39 40 35 32 31 31 30 29 28 29 31 31 28 27 28 29 28 27 28 27 23 20 19 20 21
13 16 19 23 24 25 26 28 32 33 33 34 34 33 32 34 36 36 34 30 28 29 30 29 28 28 29 29 27 26 27 28 29 28 27 26 23 19 18 19 21 22

ECMWFNIL_850_spd_012.txt.gz
Wind_Speed
33 26 22 24 25 26 26 24 22 20 17 15 14 13 12 13 16 16 14 11 10 10 12 12 10 10 10 11 11 11 9 8 8 9 9 9 8 8 8 8 8 8
34 28 23 23 23 25 27 26 23 21 18 17 17 15 14 16 18 17 15 13 11 11 13 13 11 10 11 11 11 10 10 9 9 9 10 9 9 9 9 9 9 10
36 30 24 23 23 24 25 25 24 21 19 18 18 18 18 18 18 17 15 14 13 13 13 13 12 12 11 12 12 11 10 10 9 9 10 10 10 10 10 10 10 11
36 31 28 27 26 25 26 26 26 25 22 20 19 19 19 18 18 17 16 15 14 14 14 13 13 13 12 11 12 11 11 10 10 10 10 10 10 11 11 11 11 11
35 30 31 33 29 28 29 28 29 28 25 23 21 20 19 18 18 17 17 17 16 15 15 14 14 14 13 12 12 11 11 10 10 11 11 11 11 12 12 12 12 12
37 33 34 34 30 31 33 32 31 29 27 25 22 20 18 18 18 18 18 17 16 16 15 15 15 14 13 13 13 12 11 10 10 11 12 12 12 12 12 12 12 12
40 38 36 35 33 33 34 33 33 31 28 26 24 21 20 20 19 18 18 19 18 17 16 16 16 16 15 14 14 14 13 11 12 12 13 13 12 12 12 12 12 12
39 39 38 38 37 35 35 35 35 32 30 28 25 23 22 21 20 18 19 20 18 17 17 17 17 17 16 15 15 15 13 12 12 13 14 14 13 12 11 11 11 12
40 40 40 40 40 38 36 37 36 33 32 29 24 23 23 22 21 20 20 20 19 17 18 19 18 17 17 17 16 15 15 13 13 13 14 13 13 12 11 11 12 13
42 43 42 41 42 40 38 38 36 33 31 27 23 23 24 22 20 21 22 22 20 19 20 19 18 18 18 18 17 17 17 16 15 14 14 13 13 13 12 12 12 13
44 44 43 43 43 43 40 34 28 27 27 26 24 25 26 24 22 24 25 24 22 22 22 20 19 19 20 19 18 19 19 18 15 15 15 14 14 14 13 13 14 15
44 44 44 44 43 38 32 26 24 27 30 30 30 31 31 29 28 28 29 28 25 23 23 21 20 20 20 20 20 20 20 17 16 15 15 16 15 15 15 15 15 16
44 44 44 42 40 37 34 32 33 34 34 34 36 37 36 35 34 33 32 29 26 25 24 21 20 21 19 19 20 21 20 17 16 16 17 17 17 16 16 15 16 16
40 39 39 36 37 41 39 34 35 37 38 41 43 44 43 42 42 40 36 31 28 27 25 23 23 22 19 18 19 20 19 18 17 17 18 19 19 18 17 17 17 17
30 31 33 33 36 39 34 29 35 43 47 49 50 49 46 43 43 42 36 31 30 29 27 26 26 23 18 18 19 19 19 18 18 18 18 20 21 19 19 19 19 19
26 32 34 33 35 36 33 32 37 44 48 52 53 51 47 43 43 43 39 35 33 32 32 30 28 24 21 20 19 18 18 18 19 19 19 20 22 22 21 20 19 19
25 32 32 31 32 32 32 32 33 38 44 50 52 50 48 46 44 44 42 39 37 36 36 34 31 27 26 25 23 20 20 19 20 21 20 20 22 23 22 21 20 19
21 27 27 28 28 24 23 24 26 30 37 45 51 50 48 47 46 44 43 42 41 40 38 35 32 29 28 28 28 25 23 21 22 23 22 21 22 23 23 22 21 20
19 25 25 25 23 18 17 19 21 24 29 38 48 51 50 48 46 46 45 42 41 41 38 35 32 29 28 29 30 28 25 25 26 24 22 23 24 24 24 23 23 23
16 20 20 21 20 18 18 19 20 22 25 32 43 50 51 50 47 47 46 42 40 39 35 32 30 27 27 28 28 27 28 28 28 26 24 26 26 26 26 25 26 27
14 14 16 19 19 18 20 20 20 21 23 29 38 44 49 52 50 48 46 42 39 35 33 32 28 25 27 28 26 26 29 29 28 27 27 28 28 28 28 27 28 30
11 11 13 16 18 19 21 21 20 21 23 29 34 37 44 50 50 48 46 41 36 34 33 32 26 22 27 30 27 28 29 28 27 28 28 28 29 30 30 30 31 32
9 10 12 14 16 18 20 21 21 22 25 30 33 35 40 45 44 44 44 39 37 35 32 29 24 23 28 31 29 31 30 26 27 29 29 29 32 32 30 29 29 28
9 9 10 12 14 16 17 18 20 21 24 30 35 38 40 41 40 39 38 37 37 35 29 25 24 24 28 30 30 33 32 27 27 28 29 31 34 32 28 28 27 26
8 8 10 11 12 14 14 15 18 20 21 25 32 37 39 38 37 37 36 35 34 31 26 24 24 26 29 30 31 33 32 28 27 27 29 33 32 27 27 27 26 25
7 8 9 9 10 13 13 13 16 19 19 21 26 33 35 33 31 31 32 31 29 26 24 23 23 26 29 29 30 31 28 26 26 27 31 33 27 25 26 26 23 20

ECMWFNIL_850_spd_015.txt.gz
Wind_Speed
27 27 26 25 24 23 22 21 21 19 18 16 14 12 11 12 11 11 11 12 10 8 8 10 11 11 10 10 11 11 10 9 7 8 8 7 7 7 7 7 7 7
29 27 26 26 26 26 24 23 22 20 18 16 15 13 12 12 11 11 12 12 11 10 10 11 11 11 10 10 10 11 11 10 9 8 8 8 8 8 8 8 8 8
30 29 28 28 27 27 26 24 23 21 18 17 17 15 14 13 12 12 12 13 13 13 12 11 11 11 11 10 11 11 11 10 10 9 10 10 10 10 9 9 9 9
32 31 30 30 28 26 25 26 25 23 21 18 17 17 16 15 13 12 12 14 14 14 13 12 12 12 12 11 11 12 11 11 11 10 11 11 10 10 10 10 11 11
32 32 32 32 31 28 25 25 25 24 22 19 18 18 18 17 16 13 12 14 15 13 12 12 12 13 13 12 12 12 12 12 12 11 12 11 11 11 11 11 12 12
33 33 34 33 32 30 26 24 23 23 22 20 20 21 20 20 18 16 15 16 16 15 14 13 14 14 14 13 12 11 11 13 13 13 13 12 11 11 11 12 13 12
35 34 35 34 32 30 27 24 21 21 21 21 23 23 21 21 20 19 20 20 19 19 17 17 17 16 15 15 14 13 12 13 15 15 14 13 12 12 12 13 13 13
38 36 35 34 33 30 27 23 21 21 21 23 25 24 23 24 25 25 27 26 24 23 21 21 22 20 19 17 17 16 14 15 17 17 16 15 14 14 14 13 13 13
39 37 36 35 33 29 25 23 23 24 24 24 25 25 26 29 32 32 32 31 29 27 25 24 24 23 21 19 19 18 16 17 18 16 14 16 16 15 14 12 12 13
40 38 37 34 30 28 27 27 27 28 28 26 26 29 32 35 37 36 35 34 33 31 28 26 25 25 22 20 20 21 19 19 19 16 15 16 16 14 13 12 13 14
40 38 36 33 30 31 34 33 31 31 32 31 33 37 40 41 40 39 37 34 33 31 28 26 26 26 23 20 22 23 21 20 20 19 18 17 16 14 13 13 15 15
41 39 36 35 35 38 37 35 35 35 36 37 39 41 44 43 41 40 39 36 34 32 30 27 28 27 24 21 22 23 23 22 20 20 20 17 14 13 12 13 15 16
39 39 38 38 40 41 40 39 40 38 38 42 43 42 43 43 42 43 42 40 38 36 34 31 29 29 26 23 23 23 23 22 21 20 20 17 13 11 11 13 14 16
34 36 39 40 40 41 41 43 43 40 42 47 47 44 43 43 45 46 45 42 40 39 38 34 31 31 29 25 24 25 24 22 21 21 20 17 14 11 11 13 16 18
30 32 35 37 39 41 42 43 42 43 46 49 47 45 46 46 46 47 45 42 40 40 39 36 34 33 31 28 28 28 27 22 20 21 21 18 16 16 17 19 20 20
31 30 30 31 35 39 40 40 42 44 45 46 45 45 45 45 46 46 45 43 42 42 40 38 37 36 33 30 29 30 29 25 21 22 22 18 18 20 23 25 23 21
29 29 29 29 32 35 33 31 33 36 37 39 41 43 44 45 45 45 43 41 40 42 42 41 39 37 35 32 30 30 29 26 24 23 21 18 19 22 25 26 24 21
28 30 31 31 31 31 28 23 22 26 30 32 36 39 41 43 44 44 43 39 33 33 38 40 38 38 37 32 31 31 29 26 25 24 20 19 21 23 25 25 22 18
30 32 31 30 30 26 21 20 20 23 26 27 30 33 35 38 41 39 38 35 30 28 32 32 34 38 38 32 32 33 30 27 27 24 21 22 24 26 27 24 19 18
29 31 30 28 25 18 16 18 20 21 23 23 25 28 29 32 32 28 26 29 29 30 31 30 31 36 37 35 34 34 30 28 27 25 24 25 27 29 29 24 19 19
23 26 27 23 17 15 15 17 18 18 18 18 18 20 20 22 22 21 23 28 29 30 31 31 33 33 33 33 34 32 29 28 27 26 26 27 29 31 31 27 22 21
20 20 21 18 16 17 18 18 17 16 16 15 15 15 17 19 19 18 21 26 28 30 31 33 36 35 30 29 33 31 28 27 27 26 26 28 31 33 32 28 23 22
20 18 17 17 17 20 21 20 18 16 15 15 15 15 17 20 21 18 18 23 28 31 32 33 36 34 30 29 32 32 28 27 28 27 27 30 33 32 31 27 22 21
19 17 16 16 17 19 19 19 18 16 16 16 17 18 18 20 22 22 21 23 26 29 30 31 31 31 29 28 28 27 26 25 26 27 29 32 33 32 30 27 24 23
19 17 15 15 16 15 13 13 13 13 13 15 17 19 19 19 21 23 24 24 23 24 26 28 28 29 27 26 24 23 22 23 25 28 31 32 31 28 27 26 26 25
18 18 17 15 15 14 11 11 11 11 12 13 15 17 18 18 18 20 23 22 21 22 23 24 26 26 25 24 22 21 22 24 25 28 30 30 28 25 24 24 25 26

ECMWFNIL_850_spd_018.txt.gz
Wind_Speed
30 29 28 27 25 23 22 22 21 21 21 20 19 19 17 14 13 15 15 14 13 15 17 16 14 15 15 15 16 20 19 14 13 12 10 11 10 9 9 9 8 9
31 30 29 28 27 25 23 22 22 22 22 21 19 18 16 13 15 18 18 16 15 16 17 17 16 15 15 15 14 17 19 16 15 13 11 12 12 11 10 10 8 9
33 32 30 29 28 27 25 24 23 23 22 21 20 19 17 15 17 19 20 18 17 17 17 17 18 17 15 16 15 14 16 15 15 16 13 11 12 13 13 12 9 8
34 33 32 30 28 27 27 27 27 25 23 22 21 20 20 19 18 19 21 21 20 20 19 18 19 20 17 16 16 15 15 14 14 15 15 11 10 12 13 13 11 9
35 34 33 31 29 28 29 30 29 27 26 25 24 23 23 22 22 23 24 24 24 23 22 21 21 21 19 17 17 16 15 14 14 14 15 16 14 12 13 14 13 13
36 35 33 32 31 29 30 32 31 30 29 28 26 26 27 27 27 27 27 26 25 24 24 24 23 21 20 19 17 17 16 15 14 13 14 17 16 13 11 11 12 12
37 36 35 33 32 32 32 33 32 32 32 30 29 28 29 30 30 29 28 28 27 26 26 25 24 22 22 21 19 17 16 15 15 14 13 14 15 14 13 13 13 13
38 36 36 35 34 34 34 33 34 35 34 32 32 32 32 33 32 30 30 30 29 29 28 26 25 23 23 24 22 18 16 14 15 16 15 14 14 13 15 15 16 17
37 36 36 37 36 36 36 36 36 36 35 34 34 34 34 35 33 31 31 32 32 32 31 28 27 25 24 26 24 20 17 15 16 18 18 18 17 16 16 16 16 16
37 36 37 38 38 38 38 38 38 37 36 35 35 35 36 36 34 33 33 34 35 35 34 32 30 28 26 27 25 22 19 16 16 18 20 21 21 20 20 17 15 15
39 38 39 39 40 40 39 39 38 37 37 37 36 37 37 37 35 35 35 37 38 38 37 34 32 31 28 28 28 25 21 19 17 18 20 20 21 21 20 18 16 16
41 41 41 40 40 40 39 39 37 36 37 39 39 38 38 38 37 37 38 40 41 40 39 37 35 33 30 30 30 28 24 21 20 21 20 20 21 21 19 18 18 18
41 42 42 41 41 40 38 38 37 37 38 40 40 39 38 39 40 39 40 41 42 41 39 38 36 35 32 31 31 29 27 23 22 22 22 21 22 21 18 18 19 20
42 42 42 41 40 39 39 38 38 39 39 39 39 39 38 39 40 40 41 42 43 42 39 38 37 36 34 33 32 30 28 25 24 24 24 24 25 23 20 20 21 21
41 41 41 41 40 39 39 40 40 40 39 38 39 39 38 37 36 37 40 41 41 40 39 38 38 38 37 35 33 32 30 28 26 26 26 27 27 24 22 22 22 20
39 39 39 40 41 41 40 40 41 41 39 38 39 39 38 35 33 33 36 37 37 38 38 38 39 40 39 36 34 34 32 30 29 29 30 30 27 24 24 24 22 20
38 38 38 38 40 41 41 40 40 40 38 38 38 37 36 34 32 32 32 31 32 33 35 37 39 40 39 37 36 36 34 32 31 31 32 31 27 24 24 24 21 19
39 38 38 37 38 39 40 40 39 38 37 35 35 36 36 34 34 33 31 29 28 28 29 33 37 39 39 38 37 36 34 31 31 31 31 29 26 24 23 22 20 19
40 38 37 37 37 37 38 38 38 37 35 34 33 35 35 35 35 34 33 32 31 29 29 30 31 34 36 36 36 35 33 30 31 31 29 25 24 23 23 21 19 19
39 38 37 37 37 37 36 36 34 33 32 32 31 31 32 33 33 34 34 33 32 31 30 29 29 31 31 32 33 34 33 32 32 32 30 26 24 24 23 20 18 20
39 38 38 38 38 37 34 31 28 27 28 28 26 24 24 24 26 28 30 30 30 28 28 29 30 30 29 28 31 34 34 34 33 32 30 28 27 25 23 20 20 22
38 37 38 38 37 33 30 28 26 26 25 23 21 19 19 19 20 21 23 25 24 23 25 29 30 30 30 29 30 33 33 32 31 32 31 30 29 26 23 22 24 23
39 37 37 35 32 29 28 27 23 19 18 17 16 17 17 18 19 20 21 21 20 20 24 29 29 29 30 29 30 32 31 29 30 31 30 30 28 25 24 25 24 22
38 36 34 31 28 27 26 23 18 16 16 17 17 16 15 16 18 20 22 21 19 19 21 24 26 28 29 29 29 30 29 27 28 29 29 27 25 25 26 25 22 20
35 34 32 30 28 26 23 20 19 18 17 17 17 16 14 17 20 22 22 21 19 20 21 21 23 26 27 26 26 26 25 24 25 26 28 26 24 24 24 22 20 20
31 30 28 29 29 27 24 21 19 17 15 14 16 17 17 19 23 23 21 19 18 20 21 22 22 23 24 23 22 22 23 21 22 26 27 25 24 23 21 21 21 22

ECMWFNIL_850_spd_021.txt.gz
Wind_Speed
34 33 32 31 29 28 27 26 25 25 26 24 23 22 22 21 20 20 19 16 15 16 17 17 15 14 18 21 20 17 15 14 11 9 10 12 14 16 17 18 16 14
34 34 33 32 31 29 28 28 27 26 26 24 22 21 21 22 21 20 19 17 16 16 17 17 17 15 16 20 22 20 18 15 13 12 12 12 14 16 16 17 16 15
36 34 34 33 32 31 29 29 29 28 26 25 23 22 23 23 22 21 20 20 18 18 18 17 17 17 17 19 21 22 21 18 15 15 13 12 14 16 16 17 16 16
38 36 34 34 33 32 31 31 31 29 28 27 25 24 24 24 23 23 22 21 20 19 19 18 18 18 18 18 19 21 24 23 19 18 16 15 15 16 18 18 18 17
39 37 35 34 34 33 32 33 33 31 30 29 28 27 27 26 25 25 24 23 22 21 20 20 19 19 19 18 17 19 23 25 23 21 19 17 16 17 19 20 21 19
40 38 36 36 35 34 34 34 34 33 32 31 30 29 29 28 26 26 25 25 24 23 23 22 22 21 20 19 18 18 20 22 23 23 21 19 18 19 19 21 23 22
42 40 38 37 36 35 35 35 34 34 33 32 32 31 31 29 28 27 26 26 26 25 24 24 24 24 22 21 19 18 19 20 22 23 23 21 20 20 20 22 24 23
43 41 39 38 38 37 37 36 36 35 34 34 34 34 33 31 30 29 28 28 27 27 26 27 27 27 25 24 22 21 21 21 22 22 23 23 23 22 21 22 23 24
44 43 41 40 39 39 38 38 37 36 35 36 36 36 35 33 32 31 30 29 29 29 29 30 30 30 29 28 26 24 23 22 23 22 22 23 24 24 22 22 23 23
45 44 43 42 41 40 40 39 38 38 37 37 38 38 37 36 34 33 31 31 31 31 32 33 33 33 32 32 30 28 25 23 23 23 22 23 24 24 24 24 23 23
46 46 45 44 43 42 41 40 40 39 39 38 39 40 40 38 36 35 34 34 34 34 34 35 36 36 35 35 33 31 27 25 25 25 23 23 24 25 25 25 24 23
48 47 47 46 45 43 42 42 41 41 41 40 40 40 41 40 39 37 37 37 36 36 36 36 37 38 38 37 35 33 29 26 26 26 25 24 25 26 26 26 25 24
49 49 48 47 46 44 43 43 43 42 42 42 41 41 41 41 41 40 39 38 37 37 37 38 38 39 39 38 37 35 32 28 27 28 28 27 27 27 27 26 25 24
49 49 49 48 46 45 44 44 44 43 43 43 42 41 41 41 42 41 39 38 38 38 39 39 39 39 40 39 38 36 33 30 29 30 31 29 28 29 30 29 27 25
50 49 49 48 47 46 45 45 44 44 44 44 43 42 41 40 39 39 38 38 38 39 39 39 39 39 40 39 38 37 35 32 31 31 32 30 28 30 32 31 29 27
49 50 50 48 48 47 46 45 44 43 43 43 43 41 39 37 37 37 37 38 38 38 38 38 39 39 39 39 38 37 36 35 34 34 32 31 30 31 31 30 29 26
49 49 50 49 49 48 46 45 43 42 42 42 41 39 37 35 34 34 35 36 37 36 36 36 36 37 37 38 37 37 36 36 37 35 33 31 31 31 30 29 27 25
48 49 49 49 49 48 47 45 43 42 41 40 39 38 37 35 34 33 34 34 34 34 33 33 33 33 33 34 34 34 35 37 38 36 33 32 32 32 32 30 27 25
47 47 47 47 47 47 46 44 42 41 41 40 39 38 37 35 33 33 33 32 32 32 32 32 31 30 29 29 30 30 32 36 38 36 34 33 32 33 33 30 27 26
48 47 46 46 45 44 44 43 42 41 40 40 39 37 36 35 32 31 31 31 31 32 32 33 33 31 28 25 25 26 30 35 37 36 35 33 33 33 32 30 27 27
50 49 47 45 44 43 42 42 42 41 40 39 38 37 36 35 33 31 31 31 32 33 34 35 33 29 25 22 21 23 29 33 36 36 36 35 33 33 32 29 26 26
52 51 49 46 44 43 42 42 42 41 40 38 38 37 37 36 35 33 33 33 33 34 33 32 29 25 22 20 20 22 26 30 34 36 36 35 33 33 30 26 23 25
53 52 50 48 46 44 43 42 42 40 39 38 38 38 38 37 36 35 34 33 31 30 29 27 25 22 20 20 21 22 24 27 32 36 36 33 31 30 27 23 23 24
53 52 51 49 48 45 44 43 41 38 38 37 37 36 35 34 33 32 31 28 25 23 22 20 19 18 17 17 19 21 24 27 32 36 35 32 29 28 26 24 24 25
53 52 52 50 48 46 44 42 39 35 35 34 33 32 31 31 31 30 27 25 22 19 18 16 15 14 13 14 16 20 22 25 30 34 34 30 27 27 25 24 25 26
53 52 52 50 48 46 43 39 35 33 32 31 30 29 29 30 30 28 25 22 20 18 16 15 14 12 12 13 15 17 18 21 26 32 32 26 23 24 23 23 24 25

ECMWFNIL_850_spd_024.txt.gz
Wind_Speed
41 39 37 35 35 34 33 32 31 30 28 28 27 26 24 22 22 22 20 18 16 14 15 16 16 17 18 19 19 18 17 16 15 13 13 14 17 21 22 21 21 20
43 40 38 37 36 35 34 33 32 30 29 29 28 26 25 23 23 22 21 19 17 16 16 16 17 18 20 21 21 20 19 18 17 16 14 14 16 19 21 23 23 22
44 42 40 39 38 37 36 35 33 31 30 30 29 27 26 25 24 23 22 21 19 18 17 17 18 20 21 21 21 21 20 19 18 17 15 14 16 19 21 22 25 25
45 44 42 40 39 38 36 36 35 33 32 31 30 28 27 26 26 25 24 23 22 20 19 18 18 20 22 21 22 22 22 21 20 18 17 15 16 19 21 23 25 27
43 44 43 41 40 39 38 37 37 35 34 33 31 29 28 27 27 27 26 26 24 22 20 20 20 20 22 22 22 23 23 22 21 20 19 17 17 19 21 23 26 28
41 43 44 43 41 40 40 39 38 37 35 34 32 31 30 29 28 28 28 27 26 24 22 22 22 21 22 23 24 23 23 22 21 21 21 19 18 19 21 24 26 28
40 41 43 43 42 41 41 40 40 38 37 36 34 32 31 30 30 30 29 28 27 26 25 24 24 24 23 24 25 25 24 23 22 22 22 21 21 21 22 24 26 28
39 40 42 43 43 42 42 42 41 40 39 38 36 35 33 32 32 31 30 29 28 27 27 27 27 26 26 26 26 26 25 25 24 24 23 23 23 23 24 25 26 27
38 39 41 42 43 44 43 43 42 42 40 40 38 36 35 33 33 32 32 31 30 30 29 29 29 29 28 28 27 27 26 26 26 25 25 24 25 25 25 26 27 27
38 39 41 42 43 44 44 43 43 43 42 41 40 38 37 35 34 34 33 32 32 33 32 32 31 31 31 30 30 29 27 27 26 25 25 25 26 26 27 28 28 27
40 39 41 43 43 44 45 44 44 44 43 42 41 40 39 37 36 36 35 35 35 35 34 33 32 32 32 32 32 31 30 29 27 26 25 26 27 28 29 28 28 28
42 41 41 42 43 44 44 45 45 45 45 43 42 41 41 39 38 38 37 37 37 36 35 34 33 32 33 33 33 34 33 31 29 27 26 26 28 30 30 29 29 29
45 42 41 42 43 44 45 45 46 46 46 45 44 43 42 42 40 39 39 39 38 38 37 35 34 33 34 34 35 35 36 34 32 30 28 28 29 30 30 30 29 29
47 43 41 41 42 44 45 46 47 47 47 46 45 45 44 43 42 41 40 40 39 39 38 37 36 35 35 36 36 36 37 36 34 32 30 30 30 30 30 30 29 28
49 46 43 42 43 45 47 48 48 48 48 48 47 46 45 45 44 43 42 41 40 40 39 39 38 38 38 37 37 37 38 37 35 33 32 33 33 31 30 31 30 28
50 48 46 45 45 46 47 49 49 49 49 49 48 47 46 46 45 45 43 42 41 41 40 41 40 40 39 38 38 38 38 36 34 33 33 35 36 34 31 30 30 29
51 50 49 48 47 47 48 49 50 50 50 51 50 48 47 46 46 45 44 43 42 41 41 41 41 40 39 38 38 38 37 35 33 33 33 34 37 37 33 30 30 31
52 52 51 50 49 48 48 49 50 51 51 51 51 49 48 46 46 45 44 43 41 40 40 40 39 38 37 37 37 36 35 33 32 33 34 33 36 39 35 31 31 32
52 53 52 51 50 49 49 50 51 52 52 52 51 49 47 46 45 44 43 42 41 40 40 38 36 35 35 35 35 34 32 30 31 34 34 33 36 39 36 33 33 32
52 53 53 51 50 50 50 51 52 52 52 51 50 48 47 46 45 43 42 41 40 39 38 36 35 34 34 33 32 31 28 28 30 31 31 33 37 38 36 34 33 32
53 53 52 51 50 50 51 51 52 52 51 50 49 48 47 45 43 42 41 40 39 38 37 35 34 34 33 31 30 27 24 25 28 29 31 35 38 37 35 34 33 31
54 53 52 51 50 50 50 50 51 51 50 49 48 46 45 44 41 40 39 39 38 37 35 35 35 34 32 29 26 23 21 24 27 30 32 35 36 36 35 34 31 28
54 53 52 51 50 50 50 50 49 49 49 48 46 46 45 43 40 39 39 38 37 36 35 35 34 32 30 26 23 21 20 22 25 28 31 33 34 35 35 33 29 25
54 53 52 50 50 50 49 49 48 47 47 46 45 45 43 41 39 39 39 37 36 35 34 33 32 30 28 26 23 21 20 21 23 26 29 33 35 35 34 30 26 26
55 53 52 51 50 50 49 48 47 46 45 44 43 43 41 39 39 39 38 37 35 34 32 31 30 29 27 25 22 20 20 21 24 26 28 30 33 34 32 28 25 27
56 54 53 52 51 50 49 48 46 45 44 44 44 43 40 39 39 38 37 36 34 33 31 30 28 26 24 22 20 20 21 22 24 25 26 27 30 33 32 27 25 25

ECMWFNIL_850_spd_027.txt.gz
Wind_Speed
44 43 42 42 41 39 36 35 35 35 33 32 30 29 27 25 25 25 24 22 21 20 19 19 20 19 17 16 16 17 16 15 16 15 14 13 15 17 20 21 21 19
45 44 43 42 41 40 38 36 36 36 34 32 30 29 27 26 25 25 24 23 22 21 20 20 20 19 18 17 18 18 18 17 17 17 16 15 15 17 19 20 21 21
46 45 44 43 41 40 39 37 37 37 36 33 31 30 28 27 26 25 24 24 23 22 21 21 21 19 18 18 20 20 19 19 19 18 17 17 17 17 18 19 21 23
47 46 45 43 42 39 38 38 38 38 38 36 34 31 30 28 28 27 25 25 25 24 23 22 21 20 19 20 22 21 20 20 20 19 19 18 18 19 19 19 21 23
46 46 45 43 42 40 39 38 39 39 39 38 36 33 32 30 29 28 27 26 26 25 24 23 22 21 20 21 23 23 22 22 21 22 22 20 19 19 20 20 21 23
46 46 45 44 42 41 40 39 39 39 40 40 38 36 34 32 31 30 28 28 28 27 26 25 24 23 21 21 23 24 24 23 23 23 23 22 20 20 21 21 22 23
47 46 45 45 43 42 41 40 40 40 40 41 40 38 36 34 33 32 30 29 29 28 28 26 26 25 23 23 24 25 25 24 23 24 24 23 22 22 22 22 22 23
47 45 45 45 44 43 41 40 40 40 40 41 42 41 38 36 34 33 31 30 30 30 29 28 27 27 25 24 24 25 25 25 24 24 24 24 25 25 25 24 23 23
47 46 45 45 44 44 42 40 41 41 41 42 42 42 41 38 36 34 33 31 31 31 30 29 29 29 28 27 26 25 25 25 25 25 25 25 25 25 26 26 25 24
48 47 46 46 45 45 42 40 41 41 41 42 42 42 42 40 38 36 34 33 32 32 32 31 30 30 30 29 27 26 25 25 25 26 26 26 25 25 26 27 27 26
49 47 47 47 46 45 43 40 40 41 42 42 42 43 43 42 40 38 37 36 34 34 33 33 32 31 31 30 29 28 27 26 26 27 27 27 26 26 26 27 28 28
50 49 48 47 46 46 44 40 39 41 42 43 43 42 42 42 42 40 39 37 36 35 34 34 33 33 32 32 30 29 29 28 29 28 28 28 28 27 27 27 28 28
51 49 48 47 46 45 44 42 40 40 41 42 43 42 42 43 42 42 40 39 38 37 36 35 35 34 34 33 32 31 31 31 31 31 29 29 29 29 29 29 29 29
52 49 48 47 46 45 44 43 42 41 40 41 42 42 43 42 42 42 41 40 39 39 38 37 36 35 35 35 34 34 33 33 33 33 31 30 30 30 30 30 31 30
52 50 49 48 47 46 45 44 43 42 41 41 41 42 42 42 42 42 42 42 41 40 39 38 37 37 37 36 36 35 35 34 35 34 33 32 31 31 31 32 33 33
52 51 50 49 49 48 46 44 44 43 43 42 41 41 42 41 42 42 43 43 42 41 40 39 38 38 37 37 37 36 35 35 35 35 33 32 32 32 33 34 34 35
53 52 51 50 49 49 47 46 45 44 44 43 42 42 41 41 42 43 44 44 43 42 41 40 39 38 38 37 36 36 36 36 35 34 33 33 33 33 35 34 34 36
53 52 51 51 50 49 48 47 46 45 45 44 43 42 42 42 43 43 44 44 43 43 42 41 40 39 38 37 36 35 35 35 35 34 33 33 33 34 36 34 33 36
53 52 52 51 50 49 49 48 47 46 45 44 43 43 43 43 43 43 44 44 44 43 42 41 40 40 39 37 35 34 34 34 34 33 32 32 32 34 35 33 31 33
53 52 51 51 50 49 49 49 48 47 46 45 44 44 44 44 45 45 44 44 44 43 42 41 40 40 38 36 34 33 32 31 31 31 31 32 32 34 34 31 30 32
53 52 52 51 51 50 49 49 49 48 47 46 46 45 45 45 45 45 45 44 43 42 41 40 39 39 37 35 33 31 29 29 29 30 31 32 33 33 33 30 29 32
53 52 52 51 50 50 50 50 49 49 48 47 47 47 46 46 46 46 45 44 43 41 40 40 38 37 35 33 32 29 28 28 29 30 32 33 32 32 31 31 31 32
53 53 52 51 50 50 50 50 50 49 49 49 49 49 48 48 47 46 45 43 42 40 40 39 37 34 32 31 30 27 27 29 30 30 31 31 29 28 29 30 29 30
53 53 52 51 51 51 50 50 49 49 49 49 49 50 49 48 47 45 43 42 41 40 38 37 34 31 30 30 28 26 28 29 29 29 29 28 27 27 27 27 26 28
53 53 53 52 51 51 50 49 49 49 49 49 49 50 48 47 45 44 43 41 40 38 36 34 32 30 29 28 27 28 30 29 28 28 27 26 26 25 25 25 25 28
53 53 53 53 52 51 50 49 48 48 48 49 49 49 47 45 44 43 42 41 38 36 35 33 31 29 28 28 28 30 30 28 27 27 26 25 24 23 23 22 21 26

ECMWFNIL_850_spd_030.txt.gz
Wind_Speed
40 39 38 38 38 36 34 33 31 30 29 29 30 29 28 28 26 25 24 24 23 22 20 18 17 17 17 16 17 17 17 16 16 15 15 14 13 13 12 12 13 15
43 41 39 38 37 37 35 34 32 31 30 29 29 29 28 28 27 26 25 24 23 22 20 18 17 17 17 17 17 17 17 17 16 16 15 14 13 13 13 12 13 15
44 43 42 40 38 37 35 35 34 32 31 29 29 28 29 29 28 27 26 24 23 22 20 19 18 18 18 18 18 18 18 17 16 16 16 15 14 15 14 13 13 14
46 45 44 42 40 38 36 35 35 34 33 31 30 29 29 30 29 28 27 25 24 23 21 20 19 19 19 18 19 19 19 18 17 17 17 16 15 16 15 14 14 14
46 45 44 43 42 40 39 37 36 34 33 33 31 30 30 30 29 29 28 26 25 24 22 21 20 20 20 20 20 20 20 19 18 19 19 18 17 17 16 16 16 16
47 46 45 44 43 42 41 39 37 35 34 33 32 31 31 30 30 29 28 27 26 25 24 23 22 22 22 22 21 21 21 20 19 20 21 20 19 19 18 18 17 17
49 48 46 45 44 44 43 40 38 36 35 34 33 32 31 31 31 30 29 28 27 26 25 24 23 23 23 23 23 22 21 21 20 21 22 21 21 21 21 20 19 19
49 48 47 46 45 44 43 41 39 37 36 35 35 33 32 32 31 30 29 29 28 27 26 25 25 24 24 24 24 24 22 21 21 22 22 22 22 23 23 22 21 21
49 49 48 47 46 46 44 42 39 37 37 37 36 34 33 33 32 31 30 30 29 29 28 27 27 26 26 26 26 25 24 23 22 22 23 23 23 23 23 23 23 23
51 50 50 49 48 47 45 43 40 37 37 38 37 36 34 34 33 33 32 32 31 31 30 29 29 28 27 27 27 27 26 24 23 23 23 24 24 24 23 23 24 23
52 51 51 51 49 47 46 43 40 38 38 38 38 37 36 35 35 34 34 33 33 32 31 30 30 29 28 27 28 28 28 26 25 24 24 24 24 24 24 24 24 23
53 53 52 51 50 48 46 43 41 38 38 39 39 38 37 36 36 36 35 34 34 34 33 32 31 30 29 28 28 28 28 28 27 26 26 24 24 25 25 25 24 24
53 53 52 51 49 47 46 43 40 38 38 39 38 38 37 37 37 37 36 35 35 35 35 34 33 32 30 29 29 29 29 29 28 28 27 26 25 25 25 25 25 25
53 53 52 50 49 48 46 44 40 38 37 38 38 38 38 38 39 38 37 37 37 37 36 36 35 33 31 30 30 30 29 30 29 29 29 28 27 26 26 26 25 26
53 52 52 50 49 48 47 45 41 39 38 37 37 38 38 38 39 39 39 39 39 39 38 38 37 35 33 32 31 31 31 30 30 30 30 30 29 28 27 27 27 27
53 52 52 51 50 49 48 46 43 40 39 38 37 37 38 39 40 40 41 41 41 40 40 40 39 36 34 33 32 31 31 30 30 30 30 31 31 30 30 29 28 29
53 53 52 52 51 50 49 47 44 42 40 39 38 38 39 40 41 41 42 43 42 42 41 41 39 36 34 33 32 32 31 31 30 30 30 30 30 31 31 30 29 30
53 53 53 52 51 50 49 48 46 44 42 40 40 39 40 41 42 43 43 43 43 43 43 42 40 36 35 34 33 32 31 31 30 30 30 29 29 29 30 29 28 31
53 53 53 52 51 51 50 49 48 46 45 43 41 40 41 42 43 44 44 44 44 44 44 43 39 36 36 36 34 32 31 30 30 30 29 28 27 27 28 28 28 30
53 53 52 52 51 50 50 50 49 48 46 44 42 42 43 44 44 44 44 44 44 44 44 42 39 37 37 37 35 33 31 30 30 29 28 27 26 26 26 26 27 28
52 52 52 51 50 50 50 50 50 49 48 46 45 44 45 45 44 44 45 45 44 44 44 43 40 39 39 38 35 32 30 29 29 28 27 27 26 25 24 24 25 27
52 52 51 50 49 50 50 50 50 50 49 48 46 46 46 46 46 46 46 46 45 44 44 43 41 40 40 38 35 31 29 28 28 28 27 26 25 23 23 22 23 24
51 51 50 49 49 49 50 50 50 49 49 48 48 48 48 48 48 47 46 46 45 44 44 43 42 42 41 38 34 31 29 28 27 27 26 25 23 22 22 21 21 22
49 49 49 48 48 49 49 49 49 49 48 48 48 49 49 49 48 47 47 47 46 45 44 43 43 42 40 38 34 31 29 27 26 25 25 24 23 22 22 21 21 22
48 47 47 48 48 48 48 48 48 48 48 48 48 48 48 48 48 48 48 48 47 45 44 43 43 42 40 38 34 30 27 26 25 25 24 23 23 23 22 21 21 22
47 46 46 46 46 46 46 47 47 47 47 48 49 49 48 48 48 49 49 49 47 46 44 43 43 42 40 36 32 29 26 25 25 25 24 23 23 22 22 22 22 23

ECMWFNIL_850_spd_033.txt.gz
Wind_Speed
36 35 35 35 36 36 36 35 34 33 31 30 29 27 25 24 24 23 22 22 21 21 21 21 21 20 18 17 16 16 16 15 14 13 14 14 13 13 13 12 13 14
38 37 36 35 35 34 34 33 33 33 32 30 29 28 27 25 24 23 23 22 22 21 21 22 21 20 19 18 17 17 17 16 14 14 15 16 15 14 14 13 12 12
39 38 37 36 35 33 33 32 32 32 31 30 29 28 27 26 25 24 23 23 22 22 22 22 22 21 20 18 17 18 18 17 15 15 16 17 16 15 15 13 12 11
41 40 38 37 36 34 33 33 31 30 30 30 29 28 26 25 25 24 24 24 23 23 23 23 22 21 20 19 18 19 18 17 16 16 17 18 17 17 16 15 13 12
41 40 40 39 38 36 35 34 33 31 30 30 30 29 28 26 25 25 25 25 24 24 24 24 23 22 21 20 20 20 19 18 18 18 18 19 19 18 17 16 15 14
43 42 41 41 40 39 38 36 35 33 32 31 30 29 29 28 27 27 27 26 26 25 25 25 25 24 22 21 21 21 20 20 19 19 20 20 20 20 19 18 16 15
45 44 43 42 42 41 40 39 37 35 33 32 31 30 29 29 29 29 29 28 27 27 27 27 26 25 24 22 22 22 22 21 20 20 21 21 21 21 21 19 18 17
44 43 42 42 42 42 42 41 39 37 35 34 33 31 30 30 30 31 31 30 30 29 29 28 27 27 26 24 23 23 23 23 22 22 22 22 22 22 22 21 20 18
43 43 42 42 42 43 43 42 40 38 36 35 34 33 31 31 31 31 32 32 32 31 31 30 29 28 28 27 25 24 24 25 24 24 23 22 22 22 22 21 20 20
45 44 43 43 44 44 43 42 41 39 37 36 35 34 33 32 31 32 33 34 34 33 33 32 31 30 30 29 27 26 26 26 26 25 24 23 22 21 22 21 21 21
47 46 46 46 45 45 43 42 41 40 39 37 36 36 35 33 32 34 35 36 36 36 35 34 33 32 31 30 29 27 27 27 27 26 26 24 22 21 21 21 21 21
49 48 48 48 47 46 44 42 41 41 40 38 37 37 36 34 34 35 37 38 38 37 37 36 35 34 32 31 30 29 28 28 28 28 27 26 24 23 22 21 21 21
50 50 49 49 48 46 45 43 42 42 41 39 38 38 38 36 35 36 39 40 39 39 38 37 36 36 34 32 31 31 30 29 29 29 28 27 26 24 23 22 21 22
51 50 49 49 49 47 46 45 44 42 42 40 39 40 40 38 36 37 39 40 40 40 39 39 38 38 36 34 33 32 32 31 30 30 29 28 27 26 25 24 23 22
51 51 50 50 50 49 48 47 46 44 42 42 41 41 41 40 38 37 38 40 41 41 41 41 40 40 39 37 35 34 33 33 32 31 30 29 28 27 27 26 25 24
51 51 51 51 51 50 49 48 47 45 44 43 42 41 42 42 40 39 39 40 41 42 42 43 43 43 41 38 36 35 35 34 33 32 31 30 29 28 28 27 26 25
50 51 52 52 51 51 50 49 47 46 45 45 43 42 43 43 42 41 40 39 40 42 43 45 45 44 42 39 37 36 36 36 35 33 31 30 29 29 28 27 26 25
50 52 52 51 51 51 50 49 48 47 46 45 44 43 43 44 43 43 41 40 41 42 44 46 47 45 43 40 38 37 37 37 36 34 33 31 30 29 28 26 25 25
51 52 52 52 51 51 50 49 49 49 48 47 45 44 44 44 44 43 42 42 42 43 44 46 47 46 44 42 39 38 38 38 37 35 34 32 30 29 28 27 25 25
51 51 52 52 52 50 50 50 50 49 48 47 46 45 45 46 45 44 44 43 43 43 43 45 47 47 45 43 41 39 39 38 37 36 35 33 31 29 28 27 26 25
51 51 51 51 51 50 50 50 50 49 48 48 48 47 47 46 45 45 45 45 44 43 43 44 46 47 46 44 42 41 40 38 37 37 36 34 32 30 29 28 26 25
50 50 50 50 49 49 50 50 50 50 49 49 48 47 47 46 46 46 47 46 45 44 44 45 45 45 45 44 43 41 40 39 39 38 37 35 33 31 29 28 26 25
49 49 49 49 49 49 50 50 50 50 49 48 48 48 48 48 48 48 48 47 47 45 45 45 45 45 45 44 43 42 41 41 40 38 38 36 34 31 30 29 27 25
47 47 47 48 49 49 49 49 49 49 48 47 47 48 48 48 48 49 48 48 48 47 46 45 45 44 43 44 43 42 41 42 40 38 38 37 35 32 30 29 27 26
43 45 46 48 48 48 48 48 48 47 47 47 47 48 48 47 48 49 49 49 48 48 47 46 45 44 43 44 43 42 42 41 39 38 39 38 35 33 31 30 29 27
41 44 46 46 46 45 46 46 46 45 45 46 47 49 49 49 49 49 48 48 49 49 48 47 46 44 44 44 43 42 42 41 40 39 40 39 36 34 32 32 31 29

ECMWFNIL_850_spd_036.txt.gz
Wind_Speed
38 37 38 38 37 36 35 34 33 32 30 29 28 28 27 26 26 25 25 24 23 23 22 21 21 20 17 15 14 14 14 13 10 9 9 9 10 11 12 12 13 14
38 37 38 38 37 37 37 35 35 33 32 30 28 28 27 27 27 26 26 24 22 22 22 22 21 20 18 17 17 17 15 13 12 10 10 11 12 13 13 13 14 15
39 37 38 38 38 38 37 36 36 35 33 32 30 29 28 28 28 27 27 26 23 22 21 22 22 21 20 19 19 18 15 13 13 11 11 12 13 15 15 14 14 15
42 39 39 40 39 38 36 35 35 35 34 33 32 31 31 30 29 29 29 29 27 24 22 22 23 22 20 19 19 19 16 14 13 12 12 12 15 16 16 16 16 15
45 43 41 39 37 37 37 35 34 34 33 33 32 32 32 31 30 30 30 31 30 28 26 25 24 23 22 21 20 21 19 16 13 14 14 13 16 18 18 18 18 18
46 45 44 41 37 38 38 36 35 34 33 32 31 31 31 32 31 31 31 32 31 29 28 27 26 24 23 23 22 22 22 18 14 14 15 14 17 19 19 20 20 20
47 46 45 44 41 40 39 38 37 36 34 33 32 31 31 32 32 32 32 32 32 31 30 29 27 26 24 24 25 24 24 23 18 16 16 17 19 21 21 22 22 21
47 47 46 44 43 42 41 41 39 38 36 35 34 33 31 32 32 33 34 34 33 32 32 31 29 27 26 26 27 26 25 26 24 21 20 20 21 23 23 23 23 22
45 46 46 45 44 44 43 42 41 39 37 37 36 35 34 33 33 34 35 36 35 34 34 33 31 29 28 27 28 28 26 26 27 26 25 24 23 24 24 24 24 24
44 44 45 45 45 45 45 44 42 40 39 38 37 37 37 35 34 34 36 37 37 37 36 35 33 31 30 29 29 30 28 27 28 28 28 27 25 25 24 24 24 24
43 43 44 45 45 45 45 44 44 43 42 40 39 39 39 38 36 35 36 38 38 38 37 37 36 34 33 32 32 31 30 29 29 30 30 29 28 26 25 25 24 24
43 43 43 43 44 44 43 43 43 43 43 42 40 39 40 40 39 38 37 38 39 38 38 38 37 37 36 35 34 33 32 31 31 32 31 31 30 28 27 26 25 24
45 44 43 43 43 43 42 41 41 42 42 42 40 39 39 40 41 39 38 38 39 38 38 38 38 38 38 37 36 35 35 33 33 33 33 32 31 30 29 29 27 25
48 46 45 45 44 44 42 41 41 41 42 42 41 39 39 39 40 40 39 38 39 39 39 39 39 40 40 40 38 37 37 36 35 35 34 33 32 31 31 31 29 27
49 48 47 46 47 47 45 43 43 43 43 43 43 41 40 39 39 39 39 39 38 39 39 40 41 42 42 42 41 40 39 38 37 37 36 35 34 33 32 32 31 30
49 48 47 47 48 48 47 46 45 45 45 45 45 44 42 41 40 40 40 40 39 39 39 41 42 44 45 44 43 41 40 40 39 38 37 36 35 34 33 33 32 31
49 49 48 48 48 48 48 47 46 46 46 46 46 45 44 43 42 42 42 42 41 40 40 41 43 45 46 45 44 42 41 40 40 40 39 38 37 36 35 33 32 31
48 48 48 48 48 48 48 47 46 47 47 47 47 46 45 44 44 44 43 43 43 42 41 41 43 44 46 46 45 44 42 41 41 42 42 40 39 37 36 34 33 33
46 46 47 47 48 48 48 47 47 47 47 48 47 46 46 46 46 45 44 44 44 44 43 42 43 44 45 46 46 44 43 42 42 43 43 42 41 39 37 36 34 34
44 44 45 46 47 47 47 47 47 47 47 47 47 47 47 47 47 46 46 45 45 46 45 43 43 45 45 46 45 45 44 43 43 43 44 44 42 40 39 38 37 36
42 43 45 45 46 47 46 47 48 47 47 47 47 48 48 47 46 46 47 46 45 45 46 46 45 45 46 46 45 45 44 43 42 43 44 45 44 41 39 38 38 38
41 42 43 44 45 46 46 46 47 46 46 46 46 48 48 46 45 45 47 46 43 42 44 47 46 46 47 46 45 44 43 42 43 43 45 46 46 44 41 37 36 37
41 42 42 42 43 44 44 44 44 44 45 45 46 48 48 47 46 45 45 44 43 44 45 47 46 47 48 46 45 45 44 43 44 44 46 47 45 45 43 36 31 33
41 40 40 40 41 41 41 40 41 42 44 45 46 46 47 47 47 46 45 44 46 47 48 48 47 47 48 47 46 45 45 45 45 45 47 46 43 42 40 33 29 32
37 36 37 38 38 38 38 38 40 41 42 43 45 46 46 46 46 46 47 47 46 44 43 44 43 41 44 47 47 45 44 44 45 45 46 46 43 41 39 34 30 34
34 33 35 35 36 36 38 40 41 41 41 42 42 43 44 45 45 46 46 46 46 42 40 41 39 34 37 44 47 46 45 44 45 46 47 48 46 43 41 38 33 34

ECMWFNIL_850_spd_039.txt.gz
Wind_Speed
38 38 37 36 35 34 33 31 31 31 30 28 26 26 26 26 25 23 23 24 22 20 20 20 19 18 17 16 15 14 14 14 14 13 11 11 12 13 14 14 14 14
40 39 38 38 37 36 35 34 33 33 32 31 28 26 26 27 27 26 26 26 24 20 20 20 19 18 19 19 18 17 17 17 17 15 12 12 13 14 15 15 15 16
41 40 39 39 38 37 36 35 34 34 34 33 31 29 27 27 27 28 28 28 26 23 21 20 19 19 20 21 20 19 19 19 18 17 13 12 14 15 15 15 15 16
42 42 41 40 39 38 37 35 35 35 35 34 33 31 30 27 27 28 28 29 28 27 25 22 22 21 21 21 20 19 20 20 20 19 17 14 15 17 16 16 16 16
43 43 42 41 40 38 38 37 36 36 36 36 34 33 32 31 29 29 29 29 29 29 28 26 25 23 22 22 21 20 20 21 19 18 18 17 16 18 18 18 18 17
44 44 43 43 41 40 39 39 38 37 36 36 36 35 34 33 33 32 31 31 30 29 29 28 28 27 25 24 23 22 21 21 18 16 16 18 19 19 19 19 20 20
45 45 44 44 43 42 42 41 39 38 37 36 36 36 35 34 34 34 33 33 32 31 29 28 29 30 28 26 25 24 23 22 21 19 17 17 19 20 20 20 21 22
47 46 45 45 44 44 44 43 41 40 38 37 37 37 36 35 35 34 34 34 33 33 32 30 30 31 30 29 27 26 25 24 24 24 21 19 20 22 21 22 22 23
48 47 47 46 45 45 45 44 43 41 40 39 38 37 36 35 35 34 34 34 33 33 33 32 31 33 32 31 30 29 27 26 26 26 25 23 23 24 23 23 24 24
48 48 48 47 47 46 46 45 43 42 42 41 39 37 35 34 35 35 34 34 33 33 34 33 33 34 34 33 33 32 30 28 27 27 27 26 27 27 25 25 25 25
49 49 49 49 48 47 47 46 44 41 40 41 42 40 35 33 35 36 35 35 35 34 35 35 35 35 36 35 34 33 32 30 29 29 28 28 28 28 27 27 26 26
50 50 50 49 49 48 46 45 43 40 37 37 40 42 38 34 34 36 38 37 36 35 35 37 37 37 37 37 35 34 34 33 31 30 30 30 30 30 29 29 29 27
49 49 49 49 48 47 46 43 41 39 36 35 36 39 40 37 34 35 39 39 38 37 37 37 38 39 39 38 37 36 35 35 33 30 30 31 31 31 29 29 31 30
46 46 46 46 46 45 44 43 40 38 37 36 35 36 39 38 35 34 37 40 40 39 39 39 39 40 40 40 40 39 38 37 36 33 31 31 32 32 28 26 30 32
44 44 44 43 43 43 43 42 41 40 39 37 36 35 36 37 35 34 34 38 40 41 40 40 41 42 42 42 42 41 40 39 39 37 35 33 34 34 30 26 29 33
42 42 42 42 42 43 43 42 42 42 41 39 38 37 36 36 36 34 33 35 38 41 41 41 42 44 45 45 44 43 42 41 41 40 39 36 36 37 35 29 30 33
45 44 44 44 43 43 43 43 42 42 41 40 39 38 38 37 37 36 35 34 35 39 41 42 43 45 45 46 45 45 44 43 42 42 41 40 39 40 39 34 32 34
47 47 46 47 46 45 45 45 44 43 42 41 41 40 40 39 39 39 39 36 35 36 39 42 43 44 45 46 46 46 45 44 43 42 42 43 42 41 41 38 37 37
46 47 47 48 48 47 46 45 45 45 44 44 43 42 41 42 42 42 42 41 38 37 38 41 43 43 44 44 44 45 45 44 44 44 43 43 44 44 43 42 42 40
45 46 46 47 47 46 46 45 45 44 44 45 44 43 43 44 45 45 44 44 43 41 40 41 43 43 44 44 43 43 43 44 44 44 44 44 45 45 45 45 45 44
45 46 45 45 45 45 45 44 44 43 43 44 44 44 45 45 46 46 46 45 45 45 43 43 43 44 44 45 44 43 42 42 42 43 45 46 46 47 47 47 46 46
45 45 45 44 44 44 43 43 43 42 43 43 42 42 44 44 45 46 46 45 45 46 46 45 45 45 46 46 46 44 43 42 43 44 44 46 47 46 46 48 49 48
45 44 44 43 43 43 43 42 42 42 42 42 42 42 43 45 44 44 45 45 45 46 47 47 46 45 46 48 47 45 44 44 44 45 45 46 47 45 43 44 48 50
44 43 43 42 43 43 42 42 41 41 41 41 41 43 44 44 42 41 42 42 42 44 45 45 44 42 44 48 48 46 44 44 44 45 46 46 48 48 45 43 44 47
41 42 42 42 42 42 41 41 40 40 40 40 41 42 42 40 38 37 36 35 36 39 42 42 41 39 39 43 45 45 44 44 44 46 47 48 48 49 50 49 47 44
38 39 40 40 39 39 39 39 38 38 38 39 39 38 37 36 34 34 34 34 35 37 39 41 41 40 39 41 42 43 44 44 44 45 48 49 50 48 48 52 51 42

ECMWFNIL_850_spd_042.txt.gz
Wind_Speed
37 36 35 34 33 33 32 31 30 29 28 27 26 26 25 24 23 21 20 20 20 18 19 19 18 17 15 15 14 14 15 15 12 12 11 12 13 11 12 15 16 16
38 37 36 35 34 34 33 33 32 31 30 28 27 26 24 24 24 23 21 21 21 19 18 19 18 18 17 17 16 15 16 15 14 14 14 14 14 13 13 14 15 18
39 39 38 37 36 36 35 34 33 32 31 30 28 27 25 24 24 24 23 23 24 22 20 19 19 19 19 19 18 17 18 17 16 16 17 16 15 15 14 15 15 17
40 40 39 39 38 37 36 36 35 34 33 31 30 29 27 25 24 24 24 25 26 25 23 21 20 20 20 20 20 20 20 19 17 18 19 19 18 17 16 16 16 16
41 41 41 40 40 39 37 37 36 35 34 33 31 30 29 28 26 25 24 25 26 27 26 24 22 21 21 21 22 22 21 21 19 20 21 21 20 19 18 17 18 18
42 42 42 42 41 40 39 39 38 36 36 34 33 31 30 29 28 27 26 26 27 27 27 27 25 24 24 23 23 23 22 22 21 21 22 23 23 22 21 20 20 21
44 43 43 43 42 41 40 39 39 38 36 35 33 32 31 30 30 30 29 28 27 27 28 28 27 27 27 26 26 25 24 23 23 22 23 24 25 25 24 23 23 23
45 44 44 44 43 43 42 41 39 38 37 35 33 33 32 31 31 31 31 30 29 28 28 28 27 27 28 28 28 28 27 25 24 24 24 25 26 26 26 26 25 24
46 45 45 45 45 44 44 42 41 39 38 36 35 33 33 33 32 31 32 32 31 30 30 29 29 29 28 29 29 29 29 28 26 25 26 26 26 26 26 25 25 24
46 46 46 46 46 46 45 43 43 42 40 39 37 36 34 33 33 32 32 33 32 32 32 31 31 31 31 31 31 31 30 29 28 27 27 28 28 27 26 26 25 25
48 47 47 47 47 46 45 44 44 43 42 40 39 38 35 34 33 34 33 34 34 33 33 34 33 33 34 34 34 34 33 32 30 29 29 29 30 29 29 29 28 27
49 48 48 48 47 46 45 44 44 43 42 41 40 39 37 35 35 35 35 35 35 35 35 35 35 35 35 36 35 36 36 34 33 32 32 31 31 31 30 30 30 29
49 48 48 48 47 46 44 43 43 43 41 40 40 39 38 37 36 36 37 37 37 36 36 36 36 36 36 36 36 36 36 36 35 33 33 33 33 32 32 32 32 31
47 47 47 47 46 46 44 42 42 41 40 38 37 38 38 38 37 36 37 38 38 37 37 36 36 37 37 37 38 37 36 36 35 34 34 34 34 33 33 33 33 33
45 45 46 46 46 46 45 44 42 41 40 39 38 37 37 36 36 35 35 37 37 38 38 37 37 38 38 38 38 39 38 37 36 36 35 35 34 34 34 34 33 33
43 43 44 45 46 46 46 45 44 42 40 40 40 39 37 36 35 34 35 36 37 37 38 38 39 39 40 40 40 39 39 39 38 37 37 36 36 35 35 35 34 33
42 43 43 43 45 45 46 45 45 44 42 41 41 40 39 38 37 36 36 36 36 38 39 39 40 40 40 40 40 40 40 40 40 39 39 38 38 37 37 37 36 35
42 42 42 43 43 44 45 45 45 44 44 43 42 42 41 41 40 39 38 37 37 38 39 40 40 40 40 40 40 40 40 40 40 41 41 40 40 40 40 39 39 38
43 43 43 43 43 43 43 44 45 45 45 45 44 43 42 43 43 42 41 39 39 39 40 40 40 40 40 39 39 39 39 39 40 41 42 42 43 43 42 42 41 41
43 43 44 44 43 43 43 43 45 45 45 45 44 43 44 45 45 44 43 42 41 41 42 42 41 41 41 40 39 38 37 38 39 41 42 43 44 44 44 44 44 44
43 43 43 43 43 43 43 43 44 45 45 45 45 44 45 46 46 46 45 44 43 43 44 44 44 44 43 42 41 40 38 38 39 40 42 43 44 45 45 45 45 45
43 43 43 43 43 43 44 44 45 45 44 44 45 44 44 45 46 46 46 46 45 44 45 46 45 46 45 45 45 43 40 40 40 41 43 44 45 45 45 45 45 46
43 43 43 42 43 44 45 46 46 45 44 44 44 44 44 44 45 46 46 46 46 45 46 47 47 46 46 46 46 45 43 42 42 43 44 46 47 46 46 46 46 46
42 42 43 43 43 44 45 45 45 44 43 43 43 44 44 44 43 43 44 46 46 47 47 48 48 47 47 45 44 44 44 44 44 43 44 46 48 49 48 47 48 48
42 42 43 44 44 44 43 43 43 42 42 42 42 43 43 42 41 40 42 43 45 46 46 47 46 46 46 46 44 43 43 44 44 43 45 47 48 49 49 49 49 49
40 41 42 42 42 42 41 40 40 40 39 39 40 41 41 40 40 39 39 39 40 41 42 44 44 43 43 45 45 44 44 44 43 45 47 48 48 48 49 50 51 51

ECMWFNIL_850_spd_045.txt.gz
Wind_Speed
39 38 38 37 36 35 34 33 31 30 30 30 30 28 26 24 23 21 19 18 18 18 18 18 17 17 16 16 15 15 14 14 13 12 12 12 10 9 9 13 18 16
40 40 39 38 37 36 35 34 33 31 30 30 30 29 28 26 25 22 20 18 18 18 19 19 19 18 18 17 16 16 15 15 15 13 13 13 11 9 8 10 16 18
42 40 40 39 38 37 36 35 34 33 31 30 30 29 29 28 27 24 21 19 18 17 17 18 19 20 19 18 18 17 17 16 16 14 14 14 12 11 10 9 14 19
43 41 40 39 38 37 37 36 36 35 33 31 30 29 29 28 27 26 24 22 20 19 18 17 18 19 19 19 19 19 19 18 16 15 15 15 14 13 13 11 12 17
42 41 40 39 39 38 38 37 37 36 35 33 31 30 29 28 27 26 25 24 23 22 20 19 18 18 19 19 19 20 20 20 19 18 18 18 16 16 15 15 14 16
42 41 40 40 39 39 39 38 38 37 36 34 32 31 30 28 27 26 25 25 24 24 23 22 21 20 19 19 20 20 21 21 21 21 21 20 19 18 18 18 18 17
46 44 42 41 40 40 40 39 38 37 36 35 34 32 31 30 28 27 26 25 25 25 24 24 23 22 22 21 21 21 21 21 21 22 23 22 21 21 21 21 21 20
48 46 44 43 42 41 40 40 39 38 37 36 35 34 32 31 30 29 28 27 27 26 26 25 25 24 24 23 23 23 23 23 22 22 23 23 23 23 23 23 23 22
49 47 46 46 45 44 42 41 40 38 38 37 36 35 34 33 32 31 30 29 29 28 28 27 26 26 25 25 25 25 26 26 25 25 24 24 24 25 24 24 25 24
50 48 47 47 46 45 43 42 41 39 39 38 37 36 35 34 33 32 31 31 31 31 30 30 29 28 27 27 27 27 27 27 27 27 27 26 26 26 26 26 26 26
51 50 49 48 47 46 44 43 42 41 40 39 38 37 36 35 34 33 32 32 33 33 32 32 32 31 30 29 29 29 29 28 28 28 28 28 27 27 27 27 28 27
53 52 51 49 48 46 45 44 43 42 41 40 39 38 37 36 35 35 34 34 34 34 34 33 33 33 32 32 31 31 31 31 30 30 30 29 29 28 28 29 29 29
53 52 51 50 48 47 46 45 44 43 42 41 40 39 38 37 37 36 36 35 35 35 35 35 35 35 35 34 33 33 33 33 33 33 32 32 31 31 30 30 30 30
53 52 51 50 49 47 46 45 45 44 43 42 41 40 39 39 39 38 38 37 37 36 36 36 37 37 37 36 36 35 34 35 35 35 35 34 34 34 33 32 32 32
51 51 51 50 49 48 47 46 46 45 44 43 42 41 40 40 40 40 39 39 39 38 38 38 39 39 39 38 38 37 36 36 36 36 36 36 36 36 35 35 35 35
49 50 50 49 49 48 47 46 46 45 44 43 43 42 41 40 40 40 41 41 40 40 39 39 40 40 40 40 39 38 37 37 37 37 37 37 38 37 37 37 37 37
47 48 49 49 49 48 47 46 46 45 45 44 43 42 41 41 40 40 41 41 41 41 40 41 41 41 41 41 40 39 38 38 39 39 38 38 39 39 39 39 38 39
46 45 47 48 48 48 48 47 46 45 45 44 44 43 42 41 41 41 41 41 41 41 41 41 41 40 40 40 40 40 39 39 39 40 40 40 39 39 39 39 39 40
46 45 45 45 46 46 47 46 46 46 46 45 44 43 43 42 42 41 41 41 41 41 41 41 40 40 39 39 38 38 38 38 39 40 41 41 40 40 39 40 40 41
45 45 44 44 43 43 44 46 47 47 46 45 44 44 44 44 43 42 42 42 42 42 41 41 41 40 39 38 38 37 37 37 38 39 41 42 42 41 41 40 40 40
46 45 44 44 43 42 43 44 45 46 45 45 45 45 45 45 44 44 43 43 43 43 43 43 43 41 40 40 39 37 36 36 37 39 41 42 42 43 43 42 42 41
48 46 44 43 42 42 43 43 44 45 45 45 45 45 45 45 45 45 45 44 44 43 44 45 45 44 43 42 41 40 38 37 37 39 40 42 42 43 44 44 44 43
49 48 46 44 43 43 43 43 43 43 44 44 45 46 46 46 46 46 45 45 45 45 45 46 46 46 45 44 43 41 40 39 39 39 40 41 42 43 43 45 46 46
47 49 47 45 44 43 43 43 43 43 43 43 45 45 46 46 46 46 46 47 47 47 47 47 47 46 46 45 43 40 39 39 40 40 40 41 42 42 42 44 45 46
43 46 47 47 45 44 43 42 42 42 42 42 43 44 45 45 45 46 46 47 47 48 47 48 47 46 45 45 43 40 37 35 36 39 42 42 42 41 42 43 44 46
39 42 45 46 46 44 42 42 41 41 41 41 41 42 42 43 44 45 45 45 46 46 46 46 46 45 44 43 42 41 38 35 34 37 40 41 40 41 42 43 44 45

ECMWFNIL_850_spd_048.txt.gz
Wind_Speed
41 41 40 39 38 37 35 34 33 31 29 28 27 25 23 22 22 21 21 19 19 19 20 19 18 17 17 17 17 17 15 14 13 12 13 13 12 12 12 12 12 13
43 42 41 40 39 38 37 36 34 32 30 29 28 26 23 22 21 21 20 19 18 18 19 19 19 19 18 17 18 18 17 16 15 14 14 14 13 13 12 11 11 12
45 43 42 40 39 38 38 37 35 33 31 30 29 27 25 24 22 21 21 20 18 17 18 19 20 20 20 19 19 19 18 17 16 16 15 14 14 13 12 11 10 11
46 44 42 40 38 38 37 36 36 34 33 31 30 28 27 26 24 23 23 22 20 18 18 18 20 21 21 20 20 20 20 19 17 17 16 15 15 14 13 13 12 11
47 45 43 40 39 38 37 37 37 35 34 33 31 30 29 27 26 25 25 24 22 21 19 19 19 21 22 22 22 22 21 21 19 18 18 17 16 15 14 14 14 12
48 46 44 42 40 39 39 38 38 37 36 34 33 32 31 29 27 26 26 25 24 23 22 21 20 20 21 22 23 23 23 22 21 21 20 19 18 18 17 17 16 15
49 47 45 44 43 42 41 40 39 38 37 35 34 33 32 31 29 27 26 26 25 24 23 23 23 22 21 22 23 23 23 23 23 23 23 22 21 20 20 20 19 18
50 48 46 45 45 44 43 42 41 39 38 37 36 34 33 32 31 29 28 27 26 26 25 25 24 24 24 24 24 24 24 24 24 25 25 24 23 23 23 22 22 21
49 49 47 46 46 46 45 44 43 41 39 38 37 35 34 33 32 31 29 29 28 27 27 27 26 26 26 26 25 25 25 25 25 25 25 25 24 24 24 24 24 23
48 48 48 47 47 46 46 44 43 42 41 40 38 37 36 34 33 33 31 31 30 30 29 29 29 28 28 28 27 27 26 26 26 26 26 25 25 25 25 25 26 25
47 47 47 48 47 46 46 45 44 43 43 41 40 39 38 36 35 35 34 33 32 32 31 31 31 30 29 29 29 28 28 27 28 28 28 27 27 26 26 26 27 27
46 45 45 46 46 46 46 45 45 44 43 42 41 40 39 38 38 36 35 35 34 33 33 33 32 31 31 31 30 30 30 29 29 30 30 29 29 28 28 28 28 28
47 44 43 43 44 45 46 46 46 45 44 43 41 41 40 40 39 38 37 36 35 35 34 34 34 33 33 32 32 32 32 31 31 31 32 32 31 31 30 30 30 29
47 44 41 40 41 43 45 46 47 46 45 44 42 42 41 41 40 40 39 38 37 36 36 35 35 36 35 34 34 34 34 34 34 34 34 33 33 33 33 33 33 32
47 45 42 41 41 43 45 47 47 47 46 45 44 43 42 41 41 40 40 39 39 38 38 37 38 38 37 36 35 35 35 35 35 36 36 36 35 35 35 35 35 34
46 45 43 42 42 43 44 46 47 47 47 47 46 45 43 42 42 41 41 41 40 40 40 40 40 39 38 37 36 36 36 36 36 37 37 38 38 37 36 36 36 36
43 43 43 43 43 44 44 45 46 47 48 48 47 46 45 44 43 43 42 42 41 41 41 41 41 40 39 38 37 37 37 38 38 38 38 39 39 39 38 37 36 36
41 40 41 42 43 44 45 45 46 47 48 48 48 47 46 45 45 44 44 43 42 43 42 42 42 41 40 39 39 38 39 39 39 39 39 39 40 40 40 39 38 38
39 38 38 39 40 42 44 45 46 47 48 48 48 48 47 46 46 45 45 44 44 44 44 43 42 41 40 40 39 39 38 39 39 40 40 40 40 40 40 40 40 39
38 37 37 37 37 38 41 43 45 46 47 48 48 48 48 47 47 46 46 45 45 45 44 43 43 41 40 40 39 38 37 37 38 39 40 40 40 40 40 40 40 40
38 37 37 36 36 37 39 41 43 44 46 47 47 48 48 48 47 47 46 46 45 45 44 44 43 41 40 39 38 37 36 36 36 38 39 40 40 40 40 40 40 41
38 38 38 37 36 38 39 40 41 41 43 44 46 47 48 48 47 47 47 47 46 45 46 45 43 41 40 39 37 36 35 36 36 37 38 39 39 40 40 41 41 41
39 38 38 38 38 39 40 40 40 39 40 41 43 45 46 48 48 48 47 47 46 46 47 46 44 42 41 40 38 37 36 36 37 37 38 39 39 39 40 40 40 40
40 40 39 39 39 40 40 39 39 39 39 39 40 41 42 44 45 47 47 47 47 47 47 47 46 44 43 41 40 38 37 37 37 38 39 40 40 40 40 41 41 41
41 41 41 40 40 39 39 39 38 37 37 38 39 39 39 39 41 43 45 46 47 47 47 47 46 45 44 43 41 40 39 38 38 39 40 41 40 41 41 41 42 42
41 42 42 41 40 39 38 38 38 38 38 38 39 39 38 38 39 41 42 43 44 45 46 46 46 45 44 43 41 40 39 38 38 40 41 41 40 40 41 41 40 40

ECMWFNIL_850_spd_054.txt.gz
Wind_Speed
37 38 38 38 37 35 34 33 32 31 30 28 26 24 21 20 20 20 19 19 18 18 17 18 18 17 17 16 17 18 18 17 16 15 14 13 13 12 12 12 12 12
35 37 38 38 37 36 35 33 32 31 30 28 27 24 22 21 20 21 20 20 19 18 18 19 19 19 18 18 18 19 19 18 17 16 15 14 13 13 13 12 12 12
34 36 38 38 37 36 34 33 32 31 30 29 27 26 24 22 21 20 20 20 20 19 19 20 20 20 19 19 19 19 20 19 18 17 16 15 14 14 13 12 13 12
34 35 36 37 36 35 34 34 33 32 30 29 28 27 25 24 22 20 19 20 20 19 20 21 21 21 20 20 20 20 21 20 19 18 18 17 15 15 13 13 13 13
34 33 34 35 35 35 34 34 33 32 31 30 29 28 27 25 23 21 20 19 18 19 21 22 22 21 21 21 21 21 21 21 20 19 19 18 17 16 14 14 14 14
36 34 34 34 34 35 34 34 33 32 31 30 29 29 28 27 25 23 21 19 18 19 21 22 22 21 21 22 22 22 22 22 21 21 20 19 18 17 16 16 16 15
37 36 34 34 34 34 34 34 33 33 32 31 30 30 29 28 27 25 23 21 20 20 21 22 22 21 21 21 22 23 22 22 22 22 22 20 19 18 17 17 17 17
38 37 36 35 34 33 33 33 33 33 33 32 32 31 30 30 28 26 24 23 22 22 22 22 22 22 22 22 22 23 23 23 23 23 22 21 20 20 19 18 18 18
39 38 37 36 35 34 32 32 32 33 33 33 32 32 31 31 29 28 26 25 25 24 24 24 24 23 23 23 23 23 24 24 23 23 23 22 21 20 19 19 19 20
41 39 38 37 36 34 33 32 32 33 33 33 32 32 31 31 30 29 28 27 27 26 26 25 25 25 24 24 24 24 24 24 24 23 23 23 22 20 20 19 20 20
42 41 40 39 37 35 33 32 32 33 32 32 32 32 32 31 31 30 30 29 29 28 27 27 27 26 26 26 25 25 25 24 24 24 23 23 22 21 20 20 20 20
43 42 41 39 37 34 33 32 32 32 32 32 32 32 32 32 31 31 31 31 30 29 29 29 28 28 28 27 27 26 26 26 25 25 25 25 24 23 23 22 22 21
44 42 40 38 36 33 32 32 31 31 30 30 31 31 32 32 32 32 32 31 31 31 30 30 30 30 29 29 28 28 27 27 27 27 27 27 26 26 25 25 25 24
43 42 40 38 35 34 33 32 31 30 30 29 30 31 32 32 32 32 32 32 32 31 31 31 31 31 31 30 29 28 28 28 28 28 28 28 28 28 28 28 28 27
43 42 41 39 37 36 34 33 31 30 29 29 29 30 31 32 33 32 32 32 32 32 32 32 32 32 32 31 30 29 29 29 29 29 29 29 29 29 29 29 29 29
43 42 41 40 39 37 35 33 32 30 30 29 29 30 31 32 33 33 34 34 33 33 33 33 33 33 32 31 31 31 30 30 30 30 30 30 30 31 31 31 30 30
44 43 42 41 39 38 36 34 33 32 31 30 29 29 30 31 33 34 35 34 34 34 34 34 34 33 32 32 31 31 31 30 31 31 30 31 31 32 32 32 31 31
44 43 42 41 39 38 36 35 34 33 32 31 30 29 29 30 32 34 34 34 35 35 35 35 35 33 33 32 32 32 31 31 31 31 32 32 32 33 33 33 33 32
44 43 42 41 39 38 36 35 35 35 34 33 32 30 29 30 32 33 34 34 35 36 36 36 35 34 33 33 32 32 31 31 32 32 32 33 33 33 33 33 33 32
43 42 41 40 38 37 36 36 36 35 34 34 33 32 32 31 31 32 33 34 35 35 36 36 36 34 33 33 32 32 31 32 32 32 33 33 33 33 33 33 33 32
42 41 40 39 38 37 37 37 36 35 34 33 33 33 33 32 31 32 33 33 34 34 35 36 36 34 33 32 32 32 31 32 32 32 32 32 32 32 32 32 32 32
40 39 38 38 37 37 38 37 36 35 34 33 33 33 32 32 32 32 32 33 33 33 34 35 35 33 33 32 32 31 32 32 32 32 32 32 31 31 31 31 31 31
38 37 37 36 37 38 38 36 35 34 32 32 33 33 33 33 32 32 32 32 33 33 34 34 34 32 32 31 31 31 32 32 32 32 31 31 30 29 29 29 29 29
35 35 34 34 35 35 34 33 32 31 30 30 31 32 31 30 29 29 30 30 31 32 32 32 32 30 30 30 29 30 31 31 31 31 30 30 29 28 28 28 28 28
32 32 31 32 32 32 30 29 29 28 28 29 30 30 29 28 28 29 29 29 29 29 29 30 29 27 27 28 28 29 30 29 29 29 30 29 27 27 27 27 27 26
31 31 30 30 30 28 27 27 27 27 28 29 30 29 28 28 29 29 29 28 27 27 27 27 26 24 24 24 25 26 26 26 27 28 28 27 26 26 26 26 26 26

ECMWFNIL_850_spd_057.txt.gz
Wind_Speed
37 37 37 38 37 37 35 34 32 30 28 27 26 25 22 20 18 18 18 17 17 17 17 16 15 14 14 13 13 14 14 13 12 12 11 11 10 10 10 9 9 9
35 35 35 36 36 36 35 34 32 30 28 27 26 25 23 21 20 19 18 18 17 17 17 17 16 16 15 15 15 15 15 14 13 13 12 12 11 11 10 10 10 10
35 35 35 35 35 35 34 33 32 30 29 27 26 26 25 23 22 20 19 18 18 18 18 17 17 17 17 16 16 16 16 15 15 14 13 13 12 12 11 11 11 11
34 33 33 33 33 34 34 33 31 30 29 28 27 26 26 24 23 21 20 19 19 19 19 19 18 18 18 18 17 17 17 16 16 15 15 14 13 13 13 12 12 12
33 32 31 31 31 32 32 32 31 29 29 28 27 26 26 25 24 23 21 20 19 19 19 19 19 19 20 19 19 19 18 17 17 16 16 15 14 14 14 14 13 13
34 33 32 30 30 30 30 30 30 29 28 27 27 27 26 25 25 24 23 21 20 19 19 20 20 20 21 21 20 20 19 18 18 17 17 16 15 15 15 15 14 14
35 34 32 31 30 29 29 29 29 28 28 27 27 27 27 26 26 25 24 22 21 20 20 20 20 20 21 22 22 21 20 20 19 19 18 18 17 16 16 16 15 15
35 34 34 33 32 30 29 29 29 28 27 27 26 27 27 27 26 26 25 24 23 22 21 20 20 20 21 22 22 22 21 21 20 20 19 19 18 17 17 16 16 16
36 36 35 34 33 32 30 28 28 28 28 27 27 27 27 26 26 26 26 26 25 24 23 22 21 20 21 22 23 22 22 21 21 20 20 20 19 18 18 17 17 16
38 36 36 35 34 33 31 29 28 28 28 28 27 27 27 26 26 26 27 27 27 26 25 24 23 22 22 22 23 23 22 22 21 21 21 21 21 20 19 19 19 18
39 38 37 36 35 34 32 30 29 28 28 27 27 27 27 27 27 27 28 28 28 28 26 25 24 24 23 23 23 23 23 22 22 22 22 22 22 21 21 20 20 18
41 40 39 37 36 34 33 31 30 29 28 27 26 26 26 27 27 28 29 29 29 29 28 27 26 26 26 25 24 24 24 23 23 23 23 23 23 22 22 21 20 19
42 40 39 38 36 35 34 32 31 30 29 27 26 26 27 27 28 29 29 29 29 30 29 28 27 27 27 27 26 25 25 24 23 24 24 24 24 23 23 22 22 20
42 40 39 38 36 35 34 33 32 31 29 27 27 27 28 28 29 29 30 30 30 30 30 29 29 29 29 28 28 27 26 25 25 25 25 26 25 25 24 24 23 22
41 40 38 37 36 35 34 33 33 32 30 29 29 28 28 28 29 29 30 30 30 30 30 30 31 31 31 30 29 28 27 27 26 26 26 27 27 26 25 25 25 24
41 40 38 37 36 35 35 34 34 33 32 31 30 29 29 29 29 29 30 30 30 31 31 31 32 33 32 31 29 29 28 28 28 27 27 27 27 27 26 26 26 26
40 39 38 37 37 36 35 35 34 34 33 33 32 30 30 30 30 30 30 30 31 31 32 32 33 33 32 30 29 29 28 28 28 28 28 28 28 28 28 27 27 27
40 40 39 38 37 36 36 34 34 34 34 33 32 31 31 31 31 31 31 31 31 32 33 33 34 33 32 30 29 29 29 28 28 28 29 29 29 29 29 29 28 28
41 39 38 38 37 36 35 34 34 35 35 34 33 32 32 32 31 31 31 32 32 33 34 34 34 34 32 31 30 30 29 28 29 29 30 30 30 30 30 30 29 29
40 38 37 37 36 35 35 35 35 35 35 34 33 33 34 33 32 31 32 32 32 33 34 35 35 34 33 31 31 30 29 29 29 30 30 31 31 31 31 31 30 30
38 37 36 35 35 35 35 36 36 36 35 34 34 34 34 32 31 31 32 32 32 33 34 35 35 35 33 32 31 30 30 29 30 30 31 31 32 31 31 31 30 30
37 36 35 34 34 35 36 36 36 35 34 34 34 34 33 32 32 32 32 32 31 32 33 34 35 35 34 33 32 31 30 30 31 31 31 32 32 32 31 31 30 30
35 34 34 33 34 35 36 36 35 34 34 34 34 34 34 33 32 32 32 32 32 32 33 34 34 34 34 33 31 31 31 31 32 32 32 32 32 31 31 30 30 29
33 33 32 32 34 35 35 35 34 34 33 33 33 33 33 32 32 32 32 32 32 33 33 33 33 33 33 32 31 31 31 31 32 32 32 32 32 31 30 30 29 29
32 31 31 32 33 34 33 33 33 32 32 32 32 32 32 32 31 32 32 32 32 32 31 32 32 32 32 31 30 30 31 31 31 31 32 32 31 30 30 29 29 28
31 31 31 32 32 31 31 30 30 29 30 31 31 31 31 31 31 31 32 31 31 30 30 30 30 30 31 31 30 30 30 30 30 31 31 31 30 29 28 28 27 26

ECMWFNIL_850_spd_060.txt.gz
Wind_Speed
40 40 39 38 37 36 35 34 32 30 29 27 26 25 23 22 20 19 19 17 15 14 14 13 13 13 12 11 11 11 10 10 10 10 8 7 6 6 6 6 6 6
39 39 39 38 37 37 36 35 33 31 29 28 27 27 26 24 22 20 20 19 16 15 15 15 14 14 13 13 12 12 11 10 11 11 10 8 7 7 7 7 7 7
37 38 38 38 37 37 36 35 33 31 29 28 28 27 27 25 24 22 21 20 18 17 17 16 15 15 14 14 13 13 12 12 12 12 12 10 9 8 8 7 7 8
36 36 36 36 36 36 36 35 35 32 30 29 28 28 27 26 25 24 22 21 19 19 18 17 16 15 15 14 14 14 13 13 13 13 13 11 10 10 9 9 9 9
35 35 35 35 35 35 35 35 35 33 31 30 29 28 28 27 26 25 24 22 21 20 19 19 18 17 17 16 15 15 15 14 13 14 14 14 12 11 10 10 10 10
34 34 35 35 34 34 34 34 34 32 31 30 29 29 28 28 27 26 25 24 22 21 20 20 20 19 19 18 17 17 17 16 15 14 15 15 14 12 12 12 11 11
35 34 34 34 34 34 34 34 33 32 31 30 29 29 29 28 28 27 26 25 23 22 21 21 21 21 21 20 19 19 18 18 18 17 16 16 15 14 14 13 13 12
36 35 34 34 33 34 34 34 34 32 31 30 30 29 29 28 28 27 27 26 25 24 23 22 22 21 21 21 20 21 20 20 19 19 18 17 16 15 15 15 14 13
37 36 35 34 33 33 33 33 32 31 30 30 30 29 28 28 28 28 28 27 26 26 25 24 23 22 21 21 21 22 21 21 20 20 19 17 17 16 15 15 15 14
39 37 36 35 34 34 33 32 31 30 30 30 29 28 28 28 28 28 28 28 28 28 27 26 25 24 22 22 22 22 22 22 22 22 20 18 18 18 16 16 15 15
40 39 37 36 35 35 34 32 30 29 29 29 29 28 28 28 28 28 28 29 29 29 28 28 27 25 24 23 22 22 22 22 22 23 22 21 20 19 18 18 17 17
41 40 39 37 36 35 33 32 30 29 29 29 29 29 29 29 29 28 29 29 30 30 29 29 28 27 26 25 24 23 23 23 23 23 23 22 21 20 20 20 20 20
42 41 40 38 37 36 34 32 31 30 29 29 30 30 30 30 29 29 29 30 30 29 29 30 29 28 27 26 25 25 25 25 24 24 24 24 23 22 22 22 21 21
42 41 41 40 38 37 35 33 32 30 30 30 30 30 30 29 29 30 30 31 30 30 30 30 30 29 29 28 27 27 27 27 26 26 25 25 25 24 24 23 23 22
41 41 41 40 39 38 37 36 34 33 32 32 32 31 29 29 29 29 30 31 31 30 30 30 30 30 30 29 28 28 28 29 28 28 27 27 26 26 25 25 24 24
42 42 42 41 41 39 38 37 36 35 34 34 34 32 30 30 30 29 29 29 31 31 31 31 31 31 31 31 29 29 29 29 30 29 29 29 28 27 27 26 25 25
42 42 42 42 41 40 39 37 37 36 36 35 35 33 32 32 31 31 30 29 30 31 32 32 32 32 32 31 30 29 29 30 30 30 30 31 30 29 29 28 27 27
43 42 42 42 42 40 39 37 36 36 36 36 35 34 34 34 33 33 33 31 30 31 32 32 33 33 33 32 30 29 30 30 31 31 32 32 32 31 30 29 29 28
43 42 42 42 42 40 39 37 36 37 37 37 36 35 35 35 35 34 34 34 33 32 33 33 33 33 33 31 30 29 30 31 31 32 33 33 33 32 31 31 30 30
42 42 42 42 42 40 39 38 37 37 37 37 36 36 36 36 36 35 35 35 35 35 35 34 33 34 33 31 29 29 30 31 32 33 33 34 34 34 33 32 31 31
41 42 42 42 42 40 39 38 38 38 37 37 36 37 37 36 36 35 36 36 35 35 36 36 35 35 34 32 29 29 30 31 32 33 34 35 35 35 34 33 33 32
41 42 42 42 41 41 40 39 39 38 38 37 37 37 37 36 36 35 35 35 35 35 35 36 36 36 36 33 31 30 30 31 32 34 35 36 36 36 35 35 34 34
40 41 41 41 41 41 41 40 40 39 38 38 38 37 37 37 36 35 34 34 34 35 35 35 35 36 36 35 33 32 32 33 34 35 36 37 37 37 36 36 36 35
39 39 39 40 41 41 41 40 40 40 39 38 37 37 36 36 35 34 34 34 34 35 35 34 34 35 36 35 34 33 33 33 34 36 36 37 37 37 37 37 37 36
37 37 38 39 40 40 40 40 40 38 37 36 36 35 35 34 34 34 34 34 34 35 34 34 34 34 35 35 34 33 32 33 34 35 36 37 37 38 37 37 37 37
35 35 36 37 39 39 39 39 38 36 36 35 35 35 34 34 35 35 35 35 35 34 34 34 33 33 34 35 34 33 33 32 33 35 36 37 37 37 37 37 37 37

ECMWFNIL_850_spd_063.txt.gz
Wind_Speed
41 40 39 38 37 35 31 29 28 27 26 22 19 18 18 17 17 16 15 15 14 13 13 13 13 13 12 11 11 10 10 9 9 8 8 7 6 6 6 6 6 6
41 41 40 39 38 37 34 31 29 29 28 26 22 19 17 17 18 18 17 16 16 15 14 14 14 14 13 13 12 11 10 10 9 9 9 8 7 7 7 7 7 7
41 41 41 41 40 39 37 34 32 31 30 28 27 23 19 17 19 20 19 18 17 17 16 15 15 15 15 14 13 12 11 11 10 9 10 9 8 8 8 8 7 8
41 41 41 41 40 39 38 35 34 33 32 29 28 27 23 20 18 20 22 21 19 18 17 16 17 16 16 16 14 14 13 12 11 10 10 10 9 9 9 8 8 8
41 41 40 40 39 38 37 36 34 33 33 31 29 27 26 24 21 20 22 22 21 20 18 18 19 17 17 17 15 15 14 13 12 12 11 11 10 10 10 10 10 10
40 40 40 39 39 38 37 36 35 33 33 32 29 27 25 27 26 23 22 23 22 22 20 19 19 19 18 18 17 16 15 14 13 13 13 12 12 11 10 10 11 11
41 40 39 38 38 38 37 37 36 35 33 31 29 27 25 25 28 27 26 25 24 22 21 20 20 20 19 18 19 18 17 16 15 15 14 13 12 12 11 11 12 12
41 40 39 38 37 37 37 36 36 36 35 32 29 27 27 26 27 28 28 27 26 24 23 22 22 22 21 19 20 20 19 18 17 18 18 16 14 13 12 12 13 13
41 40 39 37 36 36 36 35 34 35 35 34 30 27 27 28 27 27 29 29 28 27 26 26 25 25 24 22 21 22 21 20 19 19 19 18 16 16 14 14 14 14
42 41 38 37 35 35 34 32 31 32 33 34 32 28 26 28 28 27 28 29 30 29 29 29 27 27 26 24 24 24 23 22 21 20 19 19 18 17 16 15 15 15
42 40 37 37 36 34 33 32 30 30 31 33 33 30 26 26 28 29 29 30 31 31 31 31 30 28 27 26 25 24 24 24 23 21 21 21 20 18 17 17 16 16
41 40 37 37 37 34 32 32 31 30 30 31 32 31 28 26 27 29 31 32 32 31 31 32 31 29 29 27 25 23 24 23 22 21 21 22 22 20 19 19 18 18
41 40 38 37 37 35 32 31 32 31 30 29 29 30 29 28 27 29 31 33 32 31 31 32 31 30 30 29 27 24 24 24 23 21 21 21 21 21 20 19 19 19
42 41 39 37 36 36 34 32 31 31 30 29 28 28 29 29 28 28 29 32 32 32 32 31 32 31 31 31 30 27 26 26 25 23 22 21 21 21 21 20 18 18
41 40 39 39 37 37 36 34 32 31 31 30 29 28 28 28 28 27 27 29 31 32 32 31 31 32 32 32 31 30 28 28 28 27 25 23 22 21 21 20 20 19
41 40 39 40 39 39 39 37 33 32 31 31 30 29 28 29 29 28 27 27 28 30 32 32 32 32 33 32 31 30 30 29 29 29 27 26 25 24 22 21 20 20
41 42 41 41 41 41 41 40 37 33 32 33 32 30 30 30 29 30 29 27 27 28 30 32 33 33 33 32 31 30 29 29 29 29 28 28 28 28 27 25 23 22
43 43 43 43 43 43 43 43 41 37 34 34 33 32 31 31 30 31 30 28 27 27 28 30 32 33 34 33 31 29 28 28 28 28 28 29 29 29 29 28 27 24
44 45 46 46 45 46 46 45 43 41 38 36 34 33 33 34 33 32 31 31 29 27 27 27 28 31 34 34 32 29 28 27 28 28 28 28 29 29 30 29 29 28
45 45 46 47 47 47 47 46 45 44 42 38 35 35 36 37 36 34 33 34 33 30 27 27 26 28 32 34 33 30 29 28 28 28 28 27 27 29 30 30 30 29
45 45 46 47 47 47 47 47 46 46 45 40 36 37 39 40 38 36 35 36 37 34 30 27 27 27 30 32 33 31 30 29 29 29 30 29 29 30 31 32 31 31
45 45 46 46 47 47 47 47 46 46 46 43 38 35 37 39 39 38 37 37 38 38 35 31 30 30 31 33 33 32 30 29 29 30 31 32 33 33 34 34 33 33
45 45 46 46 46 46 46 46 46 45 45 45 42 38 36 37 39 39 39 38 38 39 39 36 34 34 35 36 36 34 32 30 30 32 33 34 34 35 35 35 35 34
45 45 46 46 46 46 45 45 45 45 45 45 44 42 39 37 37 38 38 38 38 39 40 39 36 36 37 38 37 37 35 32 31 32 34 35 35 35 36 36 36 36
44 44 45 45 45 45 45 45 45 44 44 44 44 44 41 36 34 34 35 36 36 37 38 38 36 35 36 37 37 37 36 34 32 33 34 35 36 36 36 37 37 37
43 43 44 44 44 44 43 43 43 43 43 43 43 42 40 35 32 31 31 33 34 33 33 35 36 36 36 37 37 37 35 33 32 33 33 34 35 36 36 37 38 38

ECMWFNIL_850_spd_066.txt.gz
Wind_Speed
37 36 35 34 32 30 28 27 25 23 21 20 18 17 16 16 15 14 14 14 12 11 12 12 11 10 10 9 9 9 10 8 6 6 6 4 4 4 3 3 3 4
38 37 37 36 34 33 31 29 27 26 24 22 20 18 16 15 15 16 16 16 14 11 12 12 12 11 11 11 10 10 9 8 7 7 7 5 5 5 4 4 4 4
40 39 38 37 36 35 33 31 29 28 26 24 23 20 17 15 16 17 18 18 16 14 12 12 13 12 12 13 12 10 10 9 8 7 7 6 6 6 5 5 5 4
41 40 39 38 37 36 34 32 31 30 28 27 25 24 21 17 16 17 18 19 19 17 15 14 13 13 13 13 13 12 11 10 9 8 8 7 7 6 6 6 5 4
42 41 40 39 38 37 35 34 32 31 30 28 27 26 25 22 19 19 19 19 20 19 18 17 15 14 14 14 14 13 12 12 11 10 10 9 8 7 7 7 7 7
42 42 41 40 39 37 36 35 34 33 32 30 29 27 26 25 24 23 21 21 20 20 20 19 18 17 16 15 15 14 13 13 12 12 11 10 9 9 7 7 8 9
43 42 41 40 39 38 36 36 35 35 33 32 31 29 27 26 26 26 25 23 22 21 21 20 19 19 18 17 16 16 15 14 13 13 12 11 11 11 9 8 9 10
42 42 42 41 39 39 38 36 36 35 35 33 32 30 28 26 26 27 28 26 24 23 22 21 21 20 19 19 18 17 17 16 15 15 14 12 11 11 11 11 11 12
42 42 42 41 40 40 39 38 37 36 35 35 33 30 29 28 27 27 28 28 27 25 24 22 22 22 21 21 20 19 18 18 17 17 17 16 14 13 12 12 12 13
42 41 41 41 41 41 40 39 38 37 37 36 35 32 30 29 29 28 28 28 28 28 26 24 24 24 24 23 22 21 20 19 18 18 18 18 17 15 14 14 14 14
43 42 42 41 41 41 40 39 37 36 37 37 36 34 31 30 30 30 29 29 29 29 28 27 26 25 26 25 24 23 22 21 20 19 19 19 18 17 16 16 16 15
45 44 43 42 41 40 40 39 36 35 35 36 36 35 33 31 30 31 31 30 30 29 29 29 28 28 28 27 26 24 24 23 22 21 21 20 20 19 18 17 17 17
45 45 44 42 41 40 39 37 36 34 33 34 35 34 34 32 30 31 32 32 31 31 30 30 30 30 30 29 28 26 25 24 24 23 22 22 21 20 19 19 19 19
44 43 43 42 41 40 38 37 36 35 34 33 33 33 34 33 30 30 31 31 32 32 31 30 30 31 31 31 29 28 27 26 25 24 23 22 21 20 19 19 19 19
43 42 42 41 40 40 39 38 37 36 36 35 34 33 33 32 31 29 30 31 31 31 31 31 31 31 32 32 31 30 29 28 27 26 24 23 22 21 20 19 19 19
42 41 41 41 41 41 41 40 38 36 36 36 35 34 33 32 32 31 30 30 30 31 31 31 32 32 33 32 31 30 29 29 29 28 27 25 24 23 22 20 19 19
42 42 41 41 41 42 41 41 39 37 37 37 36 35 34 33 33 33 32 30 30 30 31 31 32 32 33 33 31 30 29 29 30 30 29 28 26 25 24 22 21 20
43 43 42 42 42 42 42 42 41 39 38 38 38 37 36 34 34 35 34 32 30 30 30 30 31 31 32 33 31 30 29 28 29 29 30 29 28 27 26 25 24 22
44 44 44 43 43 43 43 42 43 42 40 39 39 38 37 36 35 35 36 35 32 30 30 30 29 29 30 32 31 30 28 27 27 28 29 29 29 28 28 26 25 24
44 45 45 45 44 44 44 43 44 44 42 40 39 39 38 37 36 35 36 37 35 32 30 30 29 28 29 29 30 29 28 27 26 27 27 28 28 28 27 26 26 25
45 45 46 46 45 45 45 45 45 45 44 41 39 39 39 38 38 36 36 37 38 36 32 30 30 29 28 28 28 27 27 27 26 27 27 27 26 26 26 26 26 25
45 45 46 46 46 46 46 46 46 46 46 43 39 38 38 38 38 37 36 36 37 38 36 33 30 29 29 29 28 27 26 25 25 26 28 29 28 26 25 25 26 26
45 46 46 46 46 47 47 47 47 47 47 45 41 38 37 38 38 38 38 36 36 37 38 37 33 31 30 30 29 28 27 25 25 25 27 29 31 30 29 28 28 28
46 46 47 46 47 48 48 48 47 47 47 46 44 40 37 37 38 38 38 37 36 36 37 38 37 35 34 32 31 29 28 27 27 26 27 28 30 32 33 33 32 32
46 46 47 47 48 48 48 47 47 46 46 46 45 43 39 36 36 37 37 36 35 35 35 37 37 37 37 36 34 33 31 30 30 29 29 30 30 30 32 34 35 35
45 46 46 47 47 47 46 46 45 45 45 45 45 44 41 37 35 34 34 34 34 33 34 35 35 36 36 36 36 36 35 33 33 32 32 31 31 30 30 31 33 35

ECMWFNIL_850_spd_069.txt.gz
Wind_Speed
37 38 37 34 32 30 28 28 28 27 25 23 20 17 15 13 13 13 13 13 13 12 11 11 11 10 10 11 13 13 10 7 6 6 7 7 6 7 7 7 8 7
38 38 38 36 34 32 30 28 28 27 25 23 21 18 16 14 13 13 12 12 13 13 13 12 12 11 10 10 12 14 12 9 7 6 6 7 7 7 7 7 7 7
40 39 39 38 36 34 32 30 28 27 26 24 22 20 18 17 15 15 14 13 12 13 14 13 12 12 12 11 11 13 12 10 9 8 7 7 8 8 8 8 7 6
41 40 40 39 38 37 35 33 31 29 27 26 24 22 21 19 18 17 18 17 15 14 14 14 13 12 12 12 12 12 12 11 10 10 9 8 7 8 8 8 8 7
42 41 41 40 39 38 37 36 34 32 30 28 27 25 23 21 20 19 20 20 19 16 15 15 14 13 13 12 12 12 12 12 11 11 10 8 8 8 8 9 9 8
43 43 42 41 40 40 39 38 36 34 32 31 29 28 26 23 22 21 21 21 22 20 18 16 15 14 14 13 13 12 12 12 12 12 11 10 9 9 9 9 10 9
46 44 44 43 42 41 40 39 38 36 34 33 31 30 28 26 25 24 22 21 22 21 20 18 17 15 15 15 15 14 13 13 13 13 12 11 11 11 10 10 10 10
47 46 45 44 44 43 42 41 39 38 36 34 33 32 31 29 28 27 26 24 23 22 21 20 19 18 17 16 16 16 16 15 14 14 13 13 13 12 11 11 11 11
48 47 47 46 45 45 44 43 41 39 38 37 35 34 33 31 30 29 29 28 27 25 24 22 21 20 19 18 17 17 18 17 17 15 14 13 13 13 12 11 12 11
48 48 48 48 47 46 45 44 43 41 40 39 37 36 35 33 31 30 30 30 30 29 27 25 23 22 21 21 19 18 18 18 18 18 16 15 13 13 14 13 13 13
48 49 49 50 48 47 46 45 44 43 42 40 39 38 37 35 34 32 32 32 32 31 30 28 26 24 23 23 22 21 19 18 18 18 18 17 15 14 14 15 15 15
47 49 50 51 50 48 46 45 45 44 43 42 41 40 38 37 36 35 34 33 33 32 31 30 28 27 25 24 24 23 22 20 19 18 18 18 18 16 15 15 16 16
47 48 50 51 50 49 47 46 46 45 44 43 41 41 40 39 38 37 36 34 34 33 32 31 30 29 28 26 25 25 24 23 21 20 19 19 18 18 17 16 16 16
46 47 49 50 50 48 48 47 46 45 45 43 42 41 41 40 40 38 37 35 34 34 33 32 31 31 30 29 28 27 26 25 24 22 21 20 20 19 19 18 17 17
44 46 48 49 49 48 48 48 47 46 45 44 43 42 41 41 41 40 38 37 35 34 33 33 33 32 32 31 30 29 28 27 26 25 23 22 21 20 20 19 18 18
42 44 47 48 49 48 48 48 47 46 45 45 44 43 41 41 41 41 40 38 37 35 34 34 34 33 33 32 31 30 30 29 28 27 26 24 23 22 21 20 19 19
42 43 46 47 49 49 48 47 47 46 45 45 44 43 41 40 40 41 41 40 38 37 36 35 34 33 32 32 32 31 31 30 30 29 27 27 25 24 23 21 20 20
43 43 45 47 49 50 49 47 47 46 46 45 45 44 42 40 39 40 41 41 39 38 37 35 34 32 30 30 31 31 31 31 30 29 29 28 28 26 25 23 22 21
44 43 45 47 48 50 50 48 47 47 46 46 45 44 43 41 40 39 40 41 40 39 37 35 33 31 29 29 29 29 29 29 30 30 30 29 29 28 27 26 25 24
45 45 45 47 48 48 49 49 49 48 48 47 46 45 44 43 41 39 39 40 41 39 37 36 34 31 29 27 27 26 27 28 29 29 30 30 30 29 29 28 27 26
45 47 47 46 47 48 48 49 49 49 49 48 47 46 45 44 43 41 39 39 40 40 38 36 35 33 29 27 25 24 24 25 27 28 29 29 29 29 29 29 28 27
46 49 48 47 48 48 49 50 51 50 50 49 48 47 46 45 44 43 41 39 39 40 39 37 36 33 31 28 25 23 22 22 24 26 27 28 28 29 29 29 28 28
45 50 50 48 48 49 50 51 52 51 51 50 49 48 47 47 46 44 43 41 39 41 41 39 36 34 32 30 27 25 23 22 22 23 24 25 27 29 30 30 29 28
45 49 51 49 49 50 51 52 52 52 52 51 50 49 48 48 47 45 44 43 41 40 41 41 39 36 33 31 29 27 26 25 23 23 23 24 25 27 30 31 31 30
46 47 51 52 51 51 52 52 52 51 51 51 51 50 48 47 46 45 45 44 43 41 40 41 41 40 36 33 30 29 28 27 25 25 25 24 24 26 29 31 32 33
46 47 51 53 52 52 51 51 51 51 50 51 51 50 47 46 46 46 45 45 44 43 41 40 41 41 40 37 33 31 30 29 28 28 28 28 27 27 28 29 30 32

ECMWFNIL_850_spd_072.txt.gz
Wind_Speed
37 36 35 34 31 30 28 28 29 27 25 24 24 22 20 19 17 16 16 15 15 14 14 13 13 14 13 12 12 11 10 10 9 10 10 9 9 9 10 10 10 10
39 39 38 36 33 31 29 28 28 27 25 24 23 22 21 19 17 17 16 16 16 15 15 15 15 15 14 14 13 12 11 11 10 11 11 10 10 10 10 10 10 11
41 41 40 39 36 33 31 29 27 26 24 23 22 21 20 19 18 17 17 17 17 17 17 16 15 15 15 14 14 13 12 11 10 10 10 11 11 11 11 11 11 11
43 43 43 41 38 35 33 31 30 27 26 24 23 21 20 20 19 18 17 17 18 18 18 17 16 16 15 15 15 15 14 13 11 11 10 11 12 12 12 12 12 12
44 44 44 44 41 38 36 35 33 31 29 27 25 23 22 21 20 19 18 18 18 18 19 18 16 16 16 16 16 16 16 15 13 14 13 12 12 13 13 13 13 13
45 45 45 45 43 41 39 38 36 34 32 30 27 26 25 23 22 21 20 20 19 19 19 19 18 17 16 16 17 16 17 16 15 16 16 14 13 13 14 14 14 14
46 46 45 45 45 43 42 40 39 37 35 33 31 29 28 26 25 24 23 22 21 21 20 20 20 19 18 18 18 17 17 17 17 18 18 16 14 14 15 14 14 15
47 46 46 46 46 45 44 42 41 39 38 36 35 33 31 30 28 27 26 25 24 23 22 22 21 21 20 19 19 18 17 17 18 19 19 18 17 16 16 15 15 15
49 48 47 47 47 46 45 44 42 41 39 38 37 36 34 33 31 30 29 28 27 25 24 23 23 22 22 22 21 21 20 19 19 19 19 19 19 18 17 17 16 16
50 50 49 49 48 48 47 45 44 42 41 40 39 38 37 35 34 32 31 30 30 29 27 26 25 24 23 23 23 23 22 21 20 20 20 19 19 19 18 18 18 17
48 50 50 50 50 49 48 47 46 44 43 42 40 40 39 37 36 35 34 33 32 31 30 29 27 26 25 24 24 24 23 23 22 22 22 21 19 19 19 19 19 18
47 48 50 51 51 50 49 48 47 47 45 44 42 41 40 39 38 37 36 35 34 33 32 31 30 29 28 26 25 25 25 24 23 23 23 22 21 20 19 19 19 19
46 47 48 49 51 50 50 49 48 48 48 47 45 43 42 41 40 39 38 37 35 34 34 33 32 32 31 29 28 28 27 26 25 24 23 23 23 22 21 20 20 20
47 46 46 46 47 49 50 50 49 49 49 48 47 46 45 43 42 40 39 38 37 36 35 34 34 34 33 32 31 30 30 28 27 27 25 25 24 23 22 22 21 20
46 46 46 45 45 47 48 49 50 49 49 49 49 49 47 45 44 42 41 40 39 38 37 36 36 36 35 34 33 32 31 31 29 28 27 26 25 24 24 23 22 22
46 45 45 45 45 46 47 48 49 49 49 49 49 49 49 47 46 45 44 42 41 39 39 38 38 37 36 35 33 32 32 32 31 30 29 28 27 26 25 24 23 22
45 45 44 44 44 45 45 46 47 48 49 49 49 49 49 48 47 47 45 44 43 42 41 40 40 39 37 35 34 33 32 32 32 31 31 30 29 28 26 25 24 23
45 44 44 44 43 43 43 43 44 47 48 48 49 49 49 49 48 48 47 45 44 43 43 42 41 40 38 36 35 33 33 33 32 32 32 31 30 29 28 26 25 24
45 44 44 43 43 42 40 40 41 45 47 48 49 49 49 49 49 48 47 46 45 45 44 43 42 41 39 38 36 34 33 34 34 34 33 32 31 30 29 28 27 26
44 44 44 44 43 42 40 39 39 41 44 47 48 48 48 49 49 49 48 47 46 45 44 44 43 42 40 39 38 36 34 34 34 35 34 34 33 31 30 29 28 28
46 46 45 45 44 43 42 41 40 39 41 44 47 48 48 49 49 50 49 48 47 45 45 44 43 41 40 40 38 36 34 33 34 35 36 35 34 33 32 31 30 29
47 48 48 47 45 45 45 44 43 41 40 41 44 46 47 48 49 50 50 49 47 46 45 44 42 41 40 40 38 36 34 33 33 35 36 36 35 34 33 32 31 31
46 47 49 49 47 46 46 45 45 43 41 40 42 45 46 48 49 49 50 49 48 47 45 44 42 40 40 39 38 36 34 33 33 33 34 35 35 34 33 33 32 32
45 47 48 49 48 48 47 46 45 44 43 42 42 43 44 46 48 48 49 49 49 48 46 44 42 40 39 38 37 37 36 34 32 32 32 33 33 32 33 33 33 33
46 47 48 48 49 49 48 47 46 45 44 43 42 42 43 44 46 47 48 49 49 48 47 45 43 41 39 38 37 37 37 35 33 32 32 31 30 30 31 33 34 34
48 49 48 47 48 49 48 46 46 46 45 44 43 43 42 43 45 47 48 48 48 48 47 46 44 42 41 39 38 38 38 36 35 35 34 32 31 29 29 31 32 33

ECMWFNIL_850_spd_075.txt.gz
Wind_Speed
34 33 34 34 34 32 30 27 25 25 24 24 24 23 21 19 18 18 18 17 17 16 14 14 14 14 14 14 13 12 11 9 8 7 8 9 9 10 11 12 12 12
36 35 34 34 35 34 32 29 27 25 25 24 25 24 22 21 20 20 19 18 17 16 15 14 14 14 14 14 13 12 12 11 10 9 9 9 10 10 10 11 12 12
37 37 36 35 35 35 33 31 29 27 26 25 25 25 23 22 21 21 20 19 17 16 15 15 15 15 14 14 13 13 12 12 11 10 10 11 11 11 10 11 11 12
39 39 38 37 36 35 34 33 31 29 27 27 26 25 24 23 22 22 21 20 19 18 17 16 16 16 15 15 15 14 13 12 11 11 11 11 12 12 12 12 12 12
40 40 40 39 38 36 35 34 33 30 28 27 26 25 25 24 23 22 21 20 20 19 19 18 18 17 16 16 16 15 14 13 13 13 13 12 12 12 12 13 13 13
40 41 41 40 39 38 37 35 34 32 30 28 27 26 25 24 23 22 21 20 20 19 19 20 19 19 18 18 18 17 16 15 15 15 15 14 13 13 13 14 15 15
41 40 41 42 41 40 39 37 35 34 32 29 28 27 25 24 24 23 22 21 20 20 19 20 20 19 19 19 19 18 18 18 17 17 17 16 14 14 14 14 15 16
41 40 41 42 42 42 41 40 38 36 34 32 31 29 27 26 25 24 23 23 22 21 20 20 20 20 20 19 19 19 18 18 19 19 19 18 17 16 15 15 16 16
41 41 41 42 43 44 44 42 41 39 37 36 34 32 31 29 27 26 25 24 24 23 22 21 21 20 21 21 20 19 19 18 19 19 19 19 18 17 17 16 17 17
41 41 41 42 43 45 46 44 43 42 41 39 37 36 34 32 30 29 28 27 26 26 25 24 23 22 22 22 21 21 20 20 19 20 20 19 19 18 18 18 18 18
41 41 42 42 43 45 46 46 46 45 44 43 41 40 38 36 34 33 31 30 30 29 28 28 26 25 24 23 22 22 22 22 21 21 21 21 20 19 19 19 19 20
41 41 42 42 43 44 45 46 47 47 47 46 45 43 42 40 38 37 35 34 33 32 31 30 29 28 27 26 25 24 23 23 23 23 23 22 22 21 20 20 20 20
42 41 40 40 41 42 44 45 46 47 47 47 47 46 45 44 42 41 39 38 36 35 34 33 32 32 30 29 27 26 26 25 24 23 23 23 24 23 22 22 22 22
43 41 39 38 38 39 41 43 45 46 46 47 47 48 47 46 45 43 42 40 39 38 37 36 35 35 33 32 30 29 28 27 26 25 24 24 24 24 24 24 23 23
44 42 41 39 37 37 38 40 42 45 46 46 47 47 47 47 46 45 44 43 41 40 39 38 37 37 36 34 32 31 29 29 28 27 26 25 25 25 25 26 25 25
44 43 42 41 40 38 37 37 38 41 43 46 47 47 47 47 47 47 47 46 44 42 41 40 39 38 37 35 34 32 31 30 29 29 28 27 26 26 26 27 27 27
45 44 43 42 41 39 38 37 37 38 39 42 45 46 47 47 48 48 48 48 47 46 44 42 41 39 38 36 35 34 33 32 31 31 30 29 28 28 27 27 27 27
46 45 44 43 41 40 38 38 37 38 38 39 41 43 45 46 48 48 49 48 48 48 47 45 44 41 39 38 36 35 34 34 33 33 32 32 31 30 29 28 27 27
46 45 44 43 42 40 38 38 38 38 39 39 40 41 42 44 46 47 48 48 48 48 48 47 45 42 41 39 38 37 36 36 35 35 35 34 32 31 30 29 29 28
45 45 45 43 42 41 40 39 39 38 38 38 39 39 41 43 44 45 46 46 47 47 47 46 45 42 41 40 39 38 37 37 37 37 37 36 34 33 32 31 30 29
45 45 44 44 42 42 41 40 39 39 38 37 38 38 39 40 41 42 44 44 45 45 46 46 44 42 40 40 39 38 38 38 38 38 38 37 36 34 33 32 31 31
44 45 44 44 43 43 42 41 40 39 38 38 38 38 38 38 38 39 41 42 43 43 45 45 43 41 40 39 38 38 38 39 39 39 39 38 37 36 34 33 32 32
43 44 44 44 44 44 44 42 41 40 39 38 39 39 39 39 37 37 37 39 41 42 43 43 42 40 39 38 37 37 38 39 40 40 40 39 37 36 35 34 33 33
43 44 44 44 45 45 44 43 42 41 40 40 40 40 40 39 38 36 35 36 37 39 41 42 41 39 38 37 37 37 38 40 40 40 40 39 37 36 35 34 34 33
41 42 43 44 45 45 45 44 43 42 42 41 41 41 40 39 39 38 37 36 35 36 37 40 40 39 38 38 37 37 38 39 40 41 41 39 37 36 35 34 34 33
40 41 42 43 45 45 45 44 43 43 42 42 42 42 41 40 40 40 40 39 37 36 36 37 39 39 38 38 37 37 38 38 40 42 41 39 37 36 36 35 34 33

ECMWFNIL_850_spd_078.txt.gz
Wind_Speed
32 31 30 29 28 27 27 26 24 21 20 20 20 19 18 16 16 15 15 14 14 14 13 13 12 11 11 12 13 12 10 9 7 6 6 6 6 7 8 8 8 9
33 32 31 30 29 28 28 27 25 23 21 20 20 19 18 17 17 17 15 15 14 14 13 13 13 12 11 12 13 13 12 11 9 8 7 7 6 7 7 8 8 9
32 33 32 31 30 29 28 27 26 25 23 21 21 20 19 19 18 18 16 16 15 14 14 14 13 13 12 12 12 12 12 12 10 9 9 8 7 7 7 7 8 9
32 33 33 32 30 29 29 28 27 26 25 24 22 22 21 20 20 19 18 17 16 15 15 15 14 14 13 13 13 13 12 12 11 10 10 9 8 8 7 8 8 8
32 33 33 32 32 30 30 29 28 27 26 26 24 23 22 22 21 21 20 19 18 17 17 16 15 14 14 13 13 13 12 11 10 11 11 9 8 8 8 8 9 9
32 32 32 32 32 32 32 31 29 27 27 26 25 24 23 22 22 22 22 21 19 19 18 17 16 15 15 14 14 14 13 12 11 11 12 11 10 10 9 10 10 10
33 32 32 32 32 33 33 33 31 29 27 26 26 26 24 23 23 23 23 22 20 20 19 18 17 16 16 16 15 15 14 13 13 12 12 12 11 11 11 11 11 11
34 33 32 32 32 33 34 34 33 32 29 28 27 27 25 24 23 24 24 23 22 21 20 19 18 17 17 17 16 16 15 15 14 14 14 13 13 12 12 12 12 12
34 33 33 33 33 33 35 36 35 34 32 30 29 28 27 25 23 23 24 24 23 22 21 20 18 17 17 17 16 16 16 16 15 15 15 14 14 13 13 13 13 13
36 35 34 34 34 34 34 36 36 36 35 33 31 30 29 27 25 24 24 24 24 24 23 21 20 19 18 17 16 16 16 17 17 17 16 16 15 14 14 14 14 14
38 37 36 35 34 34 34 35 36 37 37 35 34 33 31 29 28 27 26 26 26 25 24 23 22 21 20 19 18 17 17 18 18 18 18 17 17 16 15 15 15 15
40 39 38 36 35 34 34 34 35 37 37 37 36 35 33 32 31 30 29 29 28 27 26 26 24 23 23 22 21 20 19 19 19 19 19 19 18 18 17 17 16 16
41 40 39 37 35 34 33 33 34 36 37 38 38 37 36 35 33 33 32 31 31 30 29 29 28 27 26 25 24 23 22 22 21 21 20 20 20 19 18 18 18 18
42 41 39 37 36 34 33 33 33 34 36 38 39 39 39 38 36 35 34 33 33 32 32 32 31 31 30 28 27 26 25 25 24 24 23 22 21 20 20 19 19 19
41 41 40 38 37 36 35 33 33 33 34 36 38 39 40 40 39 38 37 36 35 34 34 34 34 34 33 32 30 29 29 28 27 26 26 25 24 23 21 20 20 19
42 41 40 40 39 38 37 35 34 33 33 34 36 38 39 40 40 40 40 40 39 37 37 37 37 36 35 34 33 32 32 31 30 29 28 27 27 25 24 22 21 20
42 41 41 41 40 39 38 37 36 35 34 33 34 35 36 38 39 40 41 41 41 40 39 39 39 37 36 35 34 33 33 33 32 31 30 29 29 28 27 25 23 22
41 41 41 41 40 40 39 38 37 36 36 35 34 33 33 35 37 38 40 40 41 41 41 41 40 39 38 37 36 35 34 34 33 32 31 31 30 29 29 27 26 25
41 41 42 42 41 40 39 39 39 38 37 36 35 34 34 34 34 35 36 37 39 40 41 41 40 39 38 38 37 36 35 35 35 34 33 32 32 31 30 29 28 27
39 37 37 39 41 41 41 40 39 38 37 36 35 35 35 34 33 33 34 34 35 37 38 39 39 39 38 38 37 36 35 35 35 34 34 33 33 32 31 30 30 29
41 36 31 31 33 38 41 41 39 38 37 36 36 36 35 34 33 33 33 32 33 34 35 37 38 38 38 37 37 35 35 35 34 34 33 33 33 32 32 31 31 30
42 39 35 32 31 33 38 39 39 37 36 35 35 35 35 35 34 34 33 32 32 32 33 35 36 36 36 36 36 35 34 34 34 33 32 32 32 31 31 31 31 31
40 40 40 38 36 35 35 36 37 36 35 34 35 35 34 35 35 34 33 33 32 32 32 32 33 34 34 34 34 33 33 33 33 32 32 31 31 30 30 30 30 30
40 39 39 39 40 39 37 35 35 35 35 34 35 35 34 34 34 34 34 33 33 32 31 30 30 29 30 31 31 31 32 32 32 32 31 31 30 29 29 29 29 29
38 39 39 38 39 39 38 36 35 35 35 35 36 36 35 35 35 35 35 34 33 32 31 30 29 27 26 27 28 29 30 31 31 32 31 30 29 29 29 29 28 28
31 34 36 36 35 36 36 36 35 35 36 37 38 37 37 37 37 37 36 35 34 33 32 31 30 28 26 25 25 26 28 30 31 32 32 30 29 29 29 29 28 27

ECMWFNIL_850_spd_081.txt.gz
Wind_Speed
27 26 25 24 22 22 21 21 20 19 18 18 17 16 14 12 11 11 11 10 10 9 9 9 9 8 8 8 8 8 7 6 5 5 4 3 2 2 2 3 4 4
29 28 26 25 24 22 21 21 21 20 19 18 17 16 15 14 13 12 12 11 11 10 10 10 10 10 9 8 9 9 9 8 7 6 5 4 3 3 3 3 4 5
30 29 28 27 26 23 22 21 21 21 20 19 18 17 16 15 15 13 13 12 12 11 11 11 10 11 11 10 9 9 9 9 8 8 7 6 5 4 4 4 4 5
29 29 28 28 27 25 23 22 22 22 21 20 19 18 17 16 16 15 14 14 13 12 12 11 11 11 11 11 11 10 9 9 8 9 8 7 6 5 4 4 4 4
27 28 28 28 28 27 25 24 23 23 22 21 20 19 18 17 16 16 15 15 14 14 13 13 12 12 12 12 12 11 10 9 8 8 9 8 7 6 5 5 4 4
27 27 27 27 28 28 27 26 25 24 23 22 21 21 20 19 18 18 17 16 16 15 15 14 13 13 13 13 13 12 11 10 9 9 9 9 8 8 7 7 6 6
28 27 27 27 27 28 28 28 27 25 25 23 23 22 21 20 19 19 18 17 17 17 16 16 15 14 14 14 14 13 12 11 10 10 10 9 9 9 9 9 8 8
29 28 28 27 27 27 28 28 28 27 26 25 24 23 22 22 20 20 19 18 18 19 18 17 17 16 16 16 16 15 14 13 12 11 11 10 10 10 9 10 10 10
31 30 29 28 28 28 27 28 28 28 28 27 25 24 23 22 21 21 20 19 19 20 20 19 19 18 17 17 17 16 15 14 13 12 12 11 11 10 10 10 10 10
33 32 31 29 29 29 28 28 27 28 29 28 27 26 24 23 22 22 21 19 19 20 21 21 21 20 19 18 17 16 15 14 13 13 13 12 12 11 11 11 11 11
35 34 33 32 30 30 29 28 28 28 29 29 29 28 27 25 23 23 22 21 21 21 22 22 22 22 21 19 18 16 15 14 14 14 14 14 14 13 13 13 12 12
37 36 35 33 32 31 29 28 28 29 29 29 29 30 29 28 26 25 24 23 22 22 22 22 22 22 22 20 19 18 17 16 16 15 15 15 15 15 14 14 14 14
38 37 36 34 33 31 30 29 28 28 28 28 29 30 30 30 29 28 27 25 25 24 24 23 23 23 23 22 21 20 19 19 18 18 17 17 16 16 16 16 15 15
39 38 36 35 34 32 30 30 29 29 28 28 28 29 30 31 31 31 29 28 28 27 27 26 25 25 25 24 23 23 22 21 21 20 19 19 19 18 18 18 17 17
39 39 38 36 35 33 32 31 31 30 29 29 28 29 29 30 31 32 32 31 31 30 29 29 29 28 28 27 26 25 24 24 23 23 22 22 21 21 21 20 19 19
39 39 38 37 35 34 33 32 32 31 31 30 29 28 29 30 31 32 33 33 33 33 32 32 32 31 30 29 28 28 27 26 26 26 25 24 24 24 24 23 22 22
39 38 38 37 36 34 34 33 33 32 32 31 30 29 28 29 29 31 32 33 34 34 35 35 35 33 32 31 30 30 29 29 29 28 28 27 27 27 26 26 25 24
37 38 38 37 36 35 35 34 33 33 32 31 30 30 29 29 29 29 30 32 33 35 35 36 36 35 33 32 31 31 30 30 30 30 29 29 29 28 28 28 27 27
37 37 38 37 37 36 35 35 34 34 33 31 31 30 30 29 28 29 29 29 31 33 34 36 36 35 34 33 33 32 31 31 32 32 31 31 30 30 29 29 29 28
37 38 38 38 38 37 37 37 37 35 34 32 32 32 31 29 29 29 29 29 29 30 31 32 34 35 34 34 33 33 32 32 33 33 33 33 32 32 31 31 31 31
36 38 38 38 38 39 39 39 38 37 35 35 34 34 32 29 29 30 30 29 28 29 29 29 30 32 32 33 33 33 33 33 33 34 34 34 34 33 33 33 32 32
36 37 38 37 36 39 41 41 40 39 37 36 36 36 34 32 31 31 30 29 28 29 30 29 29 29 29 30 31 31 31 32 33 34 34 35 35 35 34 34 33 33
35 37 37 36 35 36 38 40 41 41 40 39 38 37 36 33 31 30 29 29 29 29 29 29 28 27 27 28 28 28 29 30 32 34 34 35 35 35 35 34 34 34
34 35 35 35 36 36 35 36 38 40 41 40 39 38 36 34 31 30 29 29 29 29 28 28 27 27 26 26 26 26 27 29 31 32 33 34 35 35 35 35 34 34
32 34 34 34 35 36 35 33 33 36 40 41 40 39 38 35 34 33 31 29 28 28 28 28 28 27 26 26 25 25 26 27 28 29 32 34 35 35 35 35 35 35
25 28 31 33 34 35 34 32 30 31 35 38 40 41 40 37 36 35 32 30 29 28 28 28 28 28 27 26 25 25 26 26 27 28 30 33 34 35 35 36 36 35

ECMWFNIL_850_spd_084.txt.gz
Wind_Speed
25 24 22 21 20 20 21 20 19 18 17 15 12 12 12 12 11 10 10 9 9 9 9 8 8 7 6 6 6 6 6 6 5 5 5 4 4 4 4 4 5 5
25 25 24 23 22 21 21 21 20 19 19 17 14 13 13 13 11 11 11 10 10 9 9 9 8 8 7 7 7 6 7 7 6 5 5 5 4 4 4 4 4 5
24 25 25 24 23 22 20 20 21 21 20 19 17 16 15 13 13 13 12 11 11 11 10 10 9 9 9 8 8 7 7 8 7 7 7 6 5 4 4 4 4 4
23 24 25 25 24 23 21 20 21 20 20 19 18 18 16 14 14 14 13 12 12 12 11 11 11 10 10 9 9 8 8 8 8 8 9 8 6 6 5 5 5 5
23 23 24 24 25 25 23 23 22 20 19 19 19 18 18 17 16 15 14 14 13 13 12 12 12 12 11 10 10 10 9 9 8 9 9 8 7 6 5 6 6 6
23 22 22 23 24 25 26 25 23 21 19 19 19 19 19 19 18 16 16 16 15 13 13 13 13 13 12 12 11 11 10 9 9 10 9 9 9 7 6 7 7 6
25 23 22 22 23 24 26 26 25 23 21 20 20 20 20 20 19 18 18 17 15 14 13 14 14 14 13 13 13 12 11 11 11 11 10 10 10 9 9 9 8 7
26 25 23 22 22 23 24 25 25 25 24 22 21 21 21 21 21 20 19 19 17 16 16 16 15 15 14 15 15 14 13 12 11 11 11 11 11 10 10 10 9 8
27 27 26 23 22 23 23 23 24 25 25 24 22 21 21 21 22 21 21 21 19 18 19 18 18 17 16 16 17 16 15 14 13 13 12 12 12 12 11 11 10 10
27 27 27 26 24 24 23 22 23 24 25 25 24 23 22 22 22 22 22 23 21 21 20 20 20 20 19 18 19 18 17 16 16 15 14 14 14 13 12 12 11 11
28 27 28 27 26 25 24 23 22 22 23 25 25 24 23 23 23 23 23 24 23 22 22 21 21 21 21 21 20 20 20 18 17 16 15 15 14 14 13 13 12 12
29 28 28 28 27 26 25 23 23 22 22 23 25 25 24 24 24 24 24 24 23 23 23 22 22 22 22 22 22 21 21 20 18 17 16 15 15 14 14 14 14 14
28 29 29 28 28 27 26 24 23 23 23 23 23 24 24 24 24 25 25 24 24 23 24 23 23 23 23 24 23 23 23 22 19 18 17 16 16 15 15 15 15 15
26 27 28 28 28 28 27 26 25 24 24 24 24 24 24 24 23 24 25 25 25 24 25 25 25 24 24 24 25 25 25 24 22 20 20 19 18 17 17 16 16 16
26 25 26 28 29 29 28 28 27 26 25 25 26 25 24 24 23 23 24 25 26 26 26 26 27 27 26 26 26 26 26 25 24 23 23 22 22 21 20 19 19 18
27 26 27 29 30 29 28 27 28 28 27 27 28 27 26 25 25 24 24 24 26 27 28 28 29 29 30 29 28 27 27 27 26 26 26 25 25 24 23 22 22 20
27 27 28 29 30 30 28 27 27 28 29 30 29 29 28 27 27 27 26 25 25 26 28 30 31 32 32 32 31 30 29 29 29 29 29 28 28 28 27 26 25 24
27 27 27 27 28 29 28 28 28 29 30 31 31 30 30 29 28 28 28 27 26 26 27 29 30 32 35 34 33 32 32 31 31 31 31 31 31 31 31 30 29 28
25 26 27 26 25 26 27 28 29 29 29 30 30 30 30 31 29 28 28 28 28 28 28 29 30 32 35 35 34 34 34 33 34 34 33 32 32 33 33 33 33 32
23 23 25 25 25 26 27 28 28 27 27 29 29 28 30 31 31 30 30 29 29 29 30 30 30 32 35 36 35 34 35 35 35 36 36 36 35 35 35 35 35 34
21 19 20 21 23 25 26 27 27 25 25 27 27 26 26 27 29 29 30 30 30 29 29 30 30 30 32 34 34 35 35 36 37 38 39 39 39 38 38 37 37 36
18 18 18 19 20 22 25 26 26 25 25 25 25 24 24 24 24 24 25 27 29 29 29 30 30 30 30 31 32 33 34 35 37 39 40 41 41 40 40 39 39 38
17 17 17 17 18 20 23 25 26 25 25 25 25 25 25 25 24 22 21 22 24 26 29 30 30 30 31 30 30 31 31 32 34 36 39 40 41 41 41 41 41 40
19 17 16 16 17 19 20 22 24 25 25 25 25 25 25 26 25 24 24 23 22 22 25 28 29 30 30 30 30 30 30 31 32 33 36 38 40 41 41 42 43 42
25 23 20 18 17 19 20 20 22 24 25 26 27 26 24 24 24 25 27 27 26 24 24 26 28 29 29 30 30 30 30 31 31 33 35 37 38 40 41 42 43 44
24 24 23 23 21 20 20 20 21 23 24 25 27 25 23 23 24 25 27 29 29 28 27 27 27 28 30 30 30 30 31 31 32 33 35 36 37 38 40 41 42 44

ECMWFNIL_850_spd_087.txt.gz
Wind_Speed
22 21 20 19 18 16 14 14 13 13 12 12 11 10 10 10 10 10 10 9 8 8 8 7 7 6 6 7 7 6 5 4 5 3 3 3 3 3 4 4 4 4
22 21 21 20 19 18 16 15 14 13 13 13 11 10 10 10 11 11 11 10 8 8 8 7 7 7 6 6 6 6 6 5 5 3 3 2 3 3 4 4 4 5
22 22 22 21 19 18 17 16 16 15 14 13 13 12 10 11 11 12 11 11 10 9 8 8 8 7 7 6 5 5 5 4 5 6 5 4 4 4 4 4 4 4
21 21 22 21 19 18 17 17 17 16 15 14 14 13 12 11 12 12 12 12 11 11 10 10 9 8 8 7 6 6 5 5 5 7 7 6 4 5 4 4 4 4
20 21 21 21 20 19 18 18 17 17 17 16 15 14 14 13 12 12 13 13 12 12 11 11 10 10 9 9 8 7 7 6 6 6 7 5 4 5 5 5 5 5
21 20 21 21 21 21 20 19 18 18 17 17 16 16 15 15 15 14 14 13 13 12 11 11 11 10 10 10 9 9 8 8 7 7 7 6 6 7 6 5 6 7
22 21 21 21 21 22 21 20 20 19 18 17 17 17 16 16 16 16 15 15 14 13 12 11 12 12 11 11 11 10 9 9 9 8 8 7 8 8 6 5 7 8
23 22 21 21 21 22 22 22 21 20 20 19 18 18 18 17 17 17 16 16 15 15 14 14 14 14 13 12 12 12 11 10 9 10 10 8 8 9 8 8 8 9
24 23 23 22 22 22 22 22 22 22 21 21 20 19 19 19 18 17 17 17 17 17 17 16 16 16 15 14 14 14 13 12 11 11 11 10 10 10 10 9 10 10
25 25 24 23 23 23 23 23 23 22 22 22 21 20 19 19 19 18 18 19 19 19 19 18 18 18 16 16 15 15 15 14 13 13 12 12 11 11 10 11 11 11
26 25 25 25 24 24 23 23 23 22 22 22 22 21 20 20 20 20 20 21 21 21 21 20 19 19 18 17 16 16 16 16 15 15 15 14 13 13 12 13 12 12
26 26 26 26 25 25 24 24 23 23 23 23 23 22 22 21 21 21 21 22 23 23 22 22 21 21 20 20 19 17 17 17 16 16 16 15 15 14 14 14 14 14
26 26 26 26 26 26 25 24 24 24 23 23 23 23 23 23 22 21 22 22 24 24 23 23 23 23 22 22 21 20 19 18 17 17 16 16 16 15 15 15 14 14
24 25 26 26 26 27 26 25 24 24 24 23 23 23 23 23 23 22 22 22 23 24 24 23 23 24 24 24 24 23 21 20 19 19 18 17 16 16 15 15 15 15
22 23 25 25 26 27 28 27 26 25 25 24 23 23 22 22 23 23 23 23 22 23 23 23 23 24 25 25 25 24 23 22 21 21 20 19 18 17 17 17 17 17
20 23 23 24 27 28 28 28 28 26 26 26 25 25 24 23 23 23 23 23 23 23 23 23 23 23 24 26 26 26 25 23 22 21 21 21 20 20 19 18 18 18
21 24 24 24 26 29 30 30 29 27 26 26 26 26 26 25 24 24 24 23 23 23 23 23 23 23 25 27 28 27 26 25 23 22 22 22 22 22 22 21 20 20
25 27 28 26 26 28 30 32 31 28 27 27 27 27 27 27 26 25 25 25 24 24 24 24 24 24 25 27 29 29 28 26 25 23 22 22 23 23 23 23 23 22
26 29 30 29 28 28 29 30 30 28 29 29 28 27 27 27 27 27 26 26 26 26 25 25 24 25 26 28 30 31 30 28 28 27 25 24 23 23 23 24 25 25
25 27 28 29 29 29 29 29 28 28 28 27 27 27 28 28 28 27 27 28 28 28 28 27 26 26 27 29 31 32 31 30 30 31 30 29 27 26 25 24 25 26
21 21 25 28 29 28 29 28 27 28 27 25 25 26 27 28 28 27 27 28 29 29 29 29 29 28 29 30 31 33 33 32 32 32 34 34 34 33 32 30 29 28
21 19 19 22 24 23 24 25 25 26 25 24 24 24 25 27 27 27 27 27 28 29 30 30 29 29 31 33 34 34 34 33 32 33 34 36 38 38 38 38 37 35
22 20 18 18 19 20 21 22 22 22 22 22 22 22 23 24 24 24 25 26 26 28 29 30 29 29 31 33 35 35 34 33 32 32 34 36 39 40 41 42 42 42
20 19 18 18 18 18 20 21 21 21 21 22 20 19 20 21 21 21 22 23 24 26 28 29 29 30 31 33 34 34 33 33 32 32 33 35 37 40 41 43 44 44
20 19 17 16 15 15 17 20 21 21 21 21 20 19 20 19 19 21 22 22 22 24 26 28 28 28 30 33 34 33 32 32 31 32 33 35 36 38 40 41 43 44
13 16 18 18 18 18 18 18 19 19 20 20 21 22 22 19 18 20 21 22 22 22 24 26 27 27 29 31 33 34 34 32 31 32 33 35 36 37 38 39 41 42

ECMWFNIL_850_spd_090.txt.gz
Wind_Speed
24 23 21 20 19 17 17 16 16 15 14 13 14 14 14 12 12 13 12 10 10 10 9 8 8 9 8 8 9 9 8 8 8 6 6 5 7 6 4 5 5 7
25 24 23 22 20 19 18 17 16 16 15 14 13 13 14 14 14 15 13 11 11 10 10 9 8 9 9 8 9 9 8 9 9 8 6 6 6 7 5 6 6 6
25 25 25 24 23 21 20 18 16 16 16 16 16 14 13 14 14 15 14 12 11 11 11 11 10 9 9 9 9 8 8 9 8 7 7 6 7 8 7 5 6 6
25 25 25 24 23 22 21 20 18 17 16 16 17 15 14 14 14 15 15 13 13 13 12 12 11 10 9 9 9 8 8 8 7 6 6 6 7 8 7 6 6 7
25 25 25 24 23 23 22 21 20 20 19 16 16 16 16 16 16 16 16 15 15 15 14 13 12 12 11 11 10 9 8 8 8 7 6 6 6 7 9 9 8 8
25 25 25 25 24 23 23 23 22 21 20 18 17 17 17 18 17 16 16 16 16 16 15 14 13 13 13 12 11 10 9 9 8 8 7 7 7 7 8 9 9 7
25 25 25 25 25 25 24 24 24 23 21 20 20 19 18 19 19 17 16 16 17 16 16 15 14 14 14 13 12 12 11 10 10 10 8 8 9 9 8 9 8 7
24 24 25 26 26 26 26 25 25 25 23 22 22 21 20 19 20 19 17 17 17 17 17 17 16 15 15 14 14 13 13 13 12 10 10 10 10 10 10 10 9 9
24 25 26 26 26 26 27 26 26 26 26 24 23 22 22 21 20 20 20 20 18 18 18 19 18 17 16 16 15 14 14 14 13 11 10 11 11 11 11 11 11 11
23 25 27 27 27 27 27 27 26 26 27 27 25 23 23 24 22 20 21 22 21 20 20 20 20 19 18 17 17 16 15 15 15 14 13 12 12 11 11 11 11 12
26 26 27 29 29 28 28 28 27 26 26 27 26 25 23 24 24 23 22 23 23 23 23 23 22 22 20 18 18 18 17 16 17 18 17 15 13 13 13 12 12 13
31 29 28 30 30 29 28 29 28 27 27 27 26 25 24 24 25 26 25 24 23 23 24 24 23 23 21 19 18 18 18 17 16 18 18 18 17 16 15 15 15 15
33 32 30 30 31 30 29 28 29 27 26 27 27 26 25 24 24 26 26 26 25 24 24 24 23 23 22 21 20 18 17 17 17 17 17 18 18 17 17 16 15 16
32 33 32 31 30 31 31 28 28 28 28 27 26 26 26 25 24 24 25 26 26 26 25 24 23 24 23 23 22 21 20 19 18 18 18 18 18 17 17 16 16 16
30 32 32 32 29 28 31 31 29 27 27 27 27 26 25 25 25 24 24 25 26 26 26 26 25 25 25 25 24 23 23 23 22 21 20 20 19 18 17 17 17 18
28 32 32 32 30 25 24 28 30 28 25 26 26 25 24 25 25 24 24 24 25 26 26 26 26 26 27 27 26 25 25 24 25 24 24 23 22 21 20 19 19 19
23 28 29 29 29 28 21 17 21 25 24 24 25 24 23 24 25 25 25 24 24 25 26 26 27 27 27 28 27 26 26 25 26 26 25 25 25 24 23 23 22 20
19 22 24 22 22 24 21 17 18 19 20 19 21 23 23 23 23 25 26 26 24 24 26 26 26 26 27 28 28 27 26 25 26 26 27 27 27 26 26 26 26 24
16 18 21 20 17 18 21 21 20 21 21 19 19 21 23 25 25 24 26 28 27 26 25 26 27 26 26 28 29 29 27 26 26 26 27 28 28 28 28 28 28 27
14 16 19 22 20 19 19 19 20 23 26 26 25 26 26 27 28 27 27 29 30 29 27 27 27 27 27 29 30 31 30 29 28 28 28 28 28 28 28 28 28 28
16 16 18 20 21 21 20 19 19 21 24 27 29 29 29 30 30 28 27 29 31 32 32 30 28 27 28 29 30 31 32 31 31 30 30 30 30 29 29 29 28 28
17 18 16 16 17 18 18 18 18 20 23 24 26 27 27 29 30 29 28 28 29 30 32 34 32 30 29 29 29 30 31 32 33 33 32 32 32 32 32 32 32 31
14 16 16 15 15 16 16 16 16 19 21 23 24 25 25 26 28 29 30 29 29 29 29 31 33 33 33 32 31 31 31 32 33 33 34 34 34 34 34 35 35 36
10 13 13 14 15 16 15 14 14 17 20 22 24 25 24 24 26 29 31 31 31 31 30 30 31 32 34 34 35 35 35 35 35 34 34 35 35 35 35 35 36 37
8 10 11 12 14 14 14 13 13 15 17 20 23 24 24 23 25 29 31 31 30 29 29 31 32 32 33 34 35 36 38 39 38 38 37 38 38 38 37 36 36 36
7 8 8 9 11 12 13 13 13 14 15 17 20 22 23 22 23 26 28 28 28 27 27 29 31 32 33 35 36 37 38 39 40 41 41 41 40 39 38 37 37 36

ECMWFNIL_850_spd_093.txt.gz
Wind_Speed
23 22 21 19 19 20 18 18 18 16 16 15 13 13 13 10 10 12 12 11 11 12 11 11 10 11 11 11 11 11 11 12 12 12 12 12 13 13 12 12 13 12
24 22 21 20 19 19 17 17 17 16 15 15 13 13 13 11 10 11 11 10 11 11 11 11 10 11 10 10 11 11 11 12 11 12 12 12 13 12 12 13 13 13
24 23 22 22 20 18 17 16 16 15 14 15 14 13 14 13 12 13 12 12 12 11 12 11 11 11 10 11 11 10 10 11 11 11 11 12 13 13 12 13 14 13
24 24 22 22 21 19 17 16 16 16 15 15 14 13 13 14 15 16 15 13 13 12 12 12 11 11 11 12 11 10 10 11 11 11 10 11 12 12 12 12 13 13
23 23 22 22 21 20 19 17 17 16 15 16 15 14 14 13 15 17 17 15 13 13 13 13 12 12 12 11 11 10 10 11 11 11 11 11 11 12 12 12 12 12
22 22 22 22 21 21 20 19 18 17 16 16 17 16 15 13 13 15 16 15 14 14 14 13 13 13 12 12 11 11 10 11 11 11 10 10 11 12 12 12 12 11
23 23 23 22 21 21 21 20 19 18 17 17 16 16 15 16 16 16 16 16 16 16 15 14 14 14 14 12 12 12 11 11 11 10 10 10 11 12 12 13 13 12
22 22 23 23 22 21 21 20 20 20 19 18 17 16 16 18 19 19 18 17 17 17 17 16 15 14 15 14 13 13 13 13 13 12 11 11 11 12 12 12 14 13
22 21 21 23 23 23 22 21 21 20 20 19 19 18 18 18 20 20 20 18 17 17 18 18 17 15 15 15 15 15 15 14 15 13 11 11 11 12 12 12 14 13
23 22 21 22 23 24 23 23 22 21 21 21 20 20 21 20 20 20 20 20 19 18 18 19 18 17 17 17 16 17 16 16 16 14 12 12 11 12 13 13 13 14
24 24 23 22 22 23 23 22 22 22 22 22 22 23 23 22 22 22 21 21 21 21 20 19 19 19 19 19 18 18 17 16 16 16 15 14 14 14 15 14 14 15
26 26 24 24 24 24 24 24 23 23 22 23 23 24 24 23 23 23 23 23 22 22 22 21 21 22 22 22 21 20 19 18 17 17 18 17 16 16 17 16 16 16
28 27 25 26 27 26 27 27 26 26 24 23 23 23 25 25 24 24 24 24 24 23 24 23 23 24 24 23 23 21 21 21 20 19 19 20 20 19 18 18 17 17
27 27 25 27 29 28 28 29 28 28 27 25 24 24 25 24 24 26 25 24 25 25 24 24 25 26 26 25 25 24 22 22 22 21 20 21 22 22 21 21 20 19
23 25 27 29 30 31 30 29 30 29 28 27 25 24 27 25 23 25 27 26 25 25 25 25 26 27 27 27 27 26 25 24 23 23 22 22 22 23 23 23 22 21
20 23 27 31 33 34 32 29 29 28 27 27 25 24 26 28 24 23 26 27 27 26 25 25 26 26 26 26 27 27 27 26 25 25 25 24 24 23 23 23 22 22
18 20 24 28 31 33 32 30 28 26 24 26 27 25 25 27 28 26 25 27 29 29 27 27 26 25 24 24 25 26 27 27 27 27 27 27 27 26 25 24 23 22
15 16 18 22 26 29 31 29 27 25 23 23 26 27 26 26 29 30 28 26 28 31 30 29 28 26 25 24 24 25 26 27 28 29 29 30 30 29 28 27 26 25
10 13 14 17 21 25 27 26 25 25 25 23 23 26 27 27 28 31 31 29 29 30 31 30 29 28 26 25 24 23 24 25 27 28 29 29 30 31 31 30 29 28
8 9 11 13 16 19 21 22 21 22 24 24 23 24 27 29 28 28 30 32 32 32 31 29 27 27 27 28 27 25 23 23 25 28 28 28 28 29 30 31 30 30
7 8 10 12 13 16 19 20 19 19 20 21 23 25 27 30 31 29 28 29 31 32 32 30 28 25 25 26 27 28 27 26 26 27 29 29 29 28 29 29 30 30
7 8 11 12 12 15 18 20 20 20 19 20 23 25 27 30 33 32 31 30 29 30 31 32 32 30 29 27 26 26 28 29 30 30 30 30 30 30 29 29 29 30
4 7 9 11 12 14 17 19 20 20 21 22 24 26 28 30 32 34 34 34 33 33 32 32 33 34 35 35 33 30 28 29 31 33 34 34 33 32 31 31 30 30
3 3 6 9 11 14 15 16 17 18 20 22 24 27 28 30 31 32 33 35 35 36 37 36 36 36 36 37 38 37 34 31 29 30 33 35 35 34 33 33 33 33
9 7 5 6 9 12 15 16 17 17 18 19 22 25 26 28 29 30 31 32 33 35 36 37 37 37 37 36 36 36 36 34 30 27 29 32 34 35 36 35 35 35
11 9 9 8 8 9 13 15 17 17 18 18 19 21 23 25 27 29 30 30 31 32 33 33 34 35 34 34 35 34 35 34 32 29 29 31 33 35 36 37 38 38

ECMWFNIL_850_spd_096.txt.gz
Wind_Speed
24 24 23 21 21 20 19 18 17 16 15 15 15 13 13 12 12 13 13 13 13 13 13 13 13 12 12 11 10 10 10 11 11 11 13 14 14 14 14 12 12 13
25 25 24 22 21 22 20 18 17 17 16 15 14 13 13 14 13 13 14 14 13 12 13 13 12 12 11 11 11 10 10 10 10 11 12 12 13 14 15 13 13 14
27 26 25 24 22 22 22 19 17 17 16 16 15 13 14 15 14 13 13 14 13 12 12 12 12 12 11 12 12 11 10 10 10 11 11 12 13 14 14 14 14 15
29 27 26 25 22 21 21 20 19 18 17 17 16 14 14 14 14 13 13 13 12 11 11 12 12 12 11 12 12 11 10 10 11 11 11 12 13 13 13 14 15 16
29 28 27 26 24 21 20 20 20 19 19 18 16 16 15 14 14 14 14 14 13 11 12 13 13 13 12 12 12 11 10 11 11 12 12 12 13 14 14 14 15 15
29 28 27 26 25 23 21 20 20 20 19 18 18 18 17 16 16 16 16 15 14 14 14 14 14 14 12 12 12 12 11 11 11 12 12 11 12 14 15 15 14 14
28 28 28 27 26 25 23 21 20 20 20 19 19 19 19 18 18 17 17 16 15 15 15 15 16 15 14 13 13 13 13 12 11 12 12 11 12 13 14 14 14 14
27 27 27 28 27 26 25 23 21 20 20 19 19 20 20 19 18 18 18 17 16 15 16 16 16 16 15 15 14 14 14 13 13 12 12 12 12 13 13 13 13 14
26 26 26 26 27 27 26 24 23 21 20 21 21 21 21 20 19 19 19 18 17 17 16 16 16 16 15 16 15 15 15 14 14 14 13 13 13 13 12 12 13 13
26 25 24 24 24 25 26 25 24 23 21 22 22 21 22 21 20 20 20 20 20 18 17 17 18 17 16 16 16 15 15 15 15 15 15 14 13 13 12 11 12 13
26 26 25 24 24 23 24 24 24 24 22 22 22 22 22 22 21 21 21 21 21 20 19 18 19 19 18 17 17 16 16 16 17 17 16 16 15 14 12 11 12 13
26 28 27 25 25 24 24 24 24 24 23 22 23 23 23 23 23 23 23 23 22 21 20 19 19 20 19 19 18 16 16 16 16 17 18 17 16 16 15 14 14 14
28 29 28 26 25 25 25 25 24 25 25 24 23 23 24 24 24 25 26 26 24 22 21 20 19 19 20 20 19 18 17 17 16 16 17 17 17 16 16 16 16 16
29 30 30 28 27 26 25 25 24 25 26 26 25 24 24 24 25 26 27 28 28 26 23 21 20 20 20 20 20 20 19 19 18 17 17 17 17 17 17 17 16 16
29 30 31 30 30 29 27 26 26 25 26 27 27 27 26 26 25 26 27 28 29 28 25 23 21 21 20 20 21 21 21 21 21 20 19 18 18 18 18 18 18 18
26 28 30 32 32 32 30 29 28 27 27 28 29 29 29 28 27 27 28 29 29 28 27 25 24 22 21 20 20 20 21 22 23 23 22 22 21 21 21 21 20 20
23 24 26 29 30 31 31 30 29 28 28 28 29 30 30 30 29 28 29 30 31 30 28 27 25 23 21 20 19 18 18 20 21 22 23 24 24 24 23 22 22 21
21 21 22 23 24 25 27 27 28 29 29 29 30 30 30 30 30 31 30 30 31 33 32 30 27 24 22 21 20 19 19 19 19 20 21 23 24 25 26 25 24 23
16 16 17 18 18 19 20 22 25 27 29 31 32 31 31 31 30 31 31 31 32 33 34 33 31 28 26 24 22 21 21 21 21 21 21 20 21 22 24 25 25 25
12 12 13 14 15 15 16 18 21 25 28 31 32 32 32 31 30 30 31 31 32 34 35 34 33 31 29 28 26 24 21 22 24 24 23 22 21 20 20 20 21 22
11 11 11 11 13 15 16 18 21 23 26 28 31 33 33 32 30 30 32 32 31 33 35 35 34 32 31 29 29 27 25 24 25 26 26 26 25 24 22 22 21 21
7 8 9 10 12 14 16 18 20 22 23 25 27 29 31 31 30 30 33 33 31 30 31 33 32 32 31 30 29 29 29 28 28 28 28 28 28 28 27 27 26 26
4 4 6 8 11 13 14 15 16 17 18 21 22 23 25 26 28 29 31 33 33 31 30 29 28 29 29 29 29 29 29 29 29 29 29 29 29 29 30 31 31 31
3 5 5 6 9 11 11 12 14 15 15 16 17 19 20 22 25 27 28 30 33 34 33 31 29 28 28 28 29 29 28 28 27 27 28 28 28 29 30 31 32 32
4 2 1 2 4 6 6 7 12 14 14 14 14 14 15 18 21 23 25 27 29 32 34 34 33 32 31 30 30 29 29 28 28 29 30 31 32 32 33 33 33 33
7 6 5 4 4 4 5 4 7 10 11 12 13 12 13 14 16 18 21 23 25 28 31 33 35 36 36 35 35 34 33 33 33 34 36 37 38 38 38 38 39 39

ECMWFNIL_850_spd_099.txt.gz
Wind_Speed
23 21 20 19 18 17 17 16 15 15 15 14 13 12 11 11 11 12 11 10 9 10 10 10 10 10 10 10 10 9 9 9 9 9 10 10 10 12 12 12 12 11
25 23 22 21 20 19 19 17 16 16 15 14 13 12 12 12 12 12 12 11 10 10 10 10 10 10 10 10 9 9 9 9 8 9 10 10 10 11 12 13 12 12
26 25 24 23 23 21 20 19 18 17 15 14 14 13 13 13 13 13 12 12 12 11 11 11 10 10 10 10 9 8 8 8 8 9 9 10 10 11 12 13 13 13
27 27 25 24 24 22 20 19 19 18 16 15 15 14 14 14 14 14 13 13 13 12 12 11 10 11 11 10 10 9 8 8 8 9 9 9 10 11 12 13 14 14
27 28 26 25 24 22 20 20 20 20 18 16 16 15 15 14 14 15 15 14 14 13 12 11 10 11 11 11 11 10 9 8 9 9 10 10 10 10 11 12 13 14
28 29 28 26 25 23 22 21 20 20 19 18 17 16 16 15 15 15 15 15 14 14 14 12 11 11 12 12 12 11 10 9 9 9 10 10 10 10 11 12 13 13
28 29 29 28 26 25 24 22 20 19 19 19 18 18 17 17 16 16 16 15 14 15 14 13 12 12 12 12 12 12 11 10 10 10 10 10 10 10 11 11 13 13
28 29 30 29 28 27 25 24 22 20 19 19 19 19 18 18 18 17 16 15 15 15 14 13 13 13 13 14 13 13 12 11 11 11 10 10 10 11 10 11 12 12
27 29 30 30 30 28 27 25 24 21 20 19 19 19 19 19 19 18 17 16 16 15 14 14 14 14 14 15 15 14 13 12 12 12 12 11 11 11 11 12 12 12
28 28 30 30 30 30 28 27 25 23 21 20 20 19 19 19 19 19 19 17 17 17 16 16 15 15 15 16 16 15 14 13 13 13 13 12 11 11 11 12 12 12
29 29 29 30 31 30 30 28 27 25 24 22 21 20 20 19 19 20 19 19 18 19 19 18 17 16 16 16 16 16 16 15 14 14 14 14 13 12 12 12 13 13
30 30 30 30 30 30 30 29 28 27 25 24 23 22 21 21 20 20 20 20 19 19 19 19 18 17 17 17 17 17 17 16 16 16 16 15 15 14 13 13 14 14
29 29 29 30 30 30 29 28 28 27 26 25 24 23 23 22 21 21 21 21 20 19 19 19 18 18 17 18 18 18 18 18 18 17 17 16 16 16 16 16 16 15
29 28 29 29 29 29 29 28 28 27 26 26 25 24 24 23 22 21 21 21 20 20 20 20 19 19 18 18 18 19 19 19 19 18 18 17 17 17 16 17 17 16
29 29 29 29 29 28 28 28 27 26 26 25 25 25 25 24 22 21 21 21 20 20 20 20 21 21 20 19 18 19 19 19 19 19 18 17 17 17 17 17 17 17
28 28 28 29 29 28 27 27 26 25 25 25 26 26 26 25 23 22 22 22 21 20 19 19 21 21 21 20 18 18 19 19 19 18 18 17 17 17 18 18 18 18
30 31 30 29 30 31 29 27 26 25 25 25 25 26 25 25 24 23 23 24 23 22 20 19 20 20 21 21 20 20 20 20 19 18 16 16 16 16 17 18 19 20
26 28 29 29 31 32 31 29 28 27 26 26 26 26 26 26 25 24 24 25 26 25 24 22 21 20 21 22 23 22 22 22 21 20 18 17 16 16 15 16 17 18
22 23 25 27 28 30 31 31 29 27 27 28 28 28 28 28 27 27 26 26 27 28 27 26 25 24 23 23 24 24 23 24 24 23 22 21 20 19 17 16 16 16
19 20 20 21 22 23 24 26 27 26 27 29 29 30 30 30 29 29 28 28 28 28 29 29 29 28 27 26 26 26 26 26 27 27 27 26 24 22 21 19 18 18
14 16 16 16 18 18 18 19 20 21 22 24 26 28 29 29 29 29 29 29 29 29 30 31 30 30 30 29 29 28 28 29 29 30 31 30 29 26 23 22 20 20
7 10 11 11 13 15 15 13 13 14 16 18 21 22 24 25 26 27 27 28 29 30 31 31 31 31 31 31 31 30 30 31 31 30 30 31 31 29 27 25 23 22
1 2 4 3 5 7 9 10 10 9 10 13 15 17 19 22 23 25 25 26 28 30 31 32 33 32 32 31 31 31 31 32 32 32 31 30 29 29 28 27 25 24
5 4 2 2 3 2 3 6 8 6 5 7 8 10 13 17 20 21 23 24 25 28 30 31 32 33 32 30 28 28 29 30 31 32 32 31 30 30 30 29 28 27
8 7 6 5 3 4 3 4 5 6 6 6 6 8 10 12 15 16 18 19 21 24 27 29 29 30 32 32 30 28 27 26 27 29 30 31 31 31 31 31 30 30
6 6 6 6 5 4 3 4 4 5 6 7 7 8 9 10 11 12 13 15 17 20 22 24 25 26 27 29 31 31 29 27 27 27 28 29 29 30 31 31 31 32

ECMWFNIL_850_spd_102.txt.gz
Wind_Speed
21 21 19 17 15 13 11 11 11 11 11 11 11 10 9 9 9 10 10 10 10 10 10 9 9 8 8 8 8 7 6 6 6 6 6 6 7 8 9 9 9 8
21 20 19 18 16 15 13 11 12 11 11 11 11 10 9 9 9 10 10 11 11 10 10 10 9 9 9 9 8 7 7 6 5 5 6 6 6 7 8 9 9 9
21 21 20 18 17 16 14 12 12 12 11 11 11 10 9 9 9 10 11 11 11 11 10 9 9 9 9 9 9 8 8 7 6 6 6 6 6 6 7 9 10 10
21 21 20 19 17 16 15 14 13 13 12 11 11 10 10 9 9 10 11 12 12 11 10 9 9 9 9 8 9 9 8 8 7 7 7 6 6 6 7 8 9 10
21 21 20 19 18 17 16 16 15 14 13 12 11 11 10 10 10 11 12 12 12 11 11 10 9 9 9 9 9 9 8 8 8 8 7 7 6 6 7 8 9 9
21 21 21 20 19 18 18 17 16 15 14 13 12 11 11 11 12 12 12 13 12 12 11 11 10 9 9 9 9 9 9 8 9 9 9 7 7 7 7 7 8 9
21 21 21 21 20 20 19 18 16 15 14 13 13 12 12 13 13 12 12 12 12 12 12 11 11 10 9 10 9 9 9 9 10 10 10 9 8 8 8 8 8 9
21 21 21 21 21 21 21 19 18 16 14 13 13 13 13 13 13 13 13 13 13 12 12 12 11 10 10 10 10 10 10 10 11 11 11 10 9 8 9 9 9 9
20 21 21 22 22 22 22 21 19 17 16 14 13 13 13 14 14 14 14 13 14 13 13 12 12 11 10 10 11 11 11 11 11 12 12 11 10 9 9 10 11 10
20 21 21 22 23 23 23 22 21 19 18 16 15 14 14 13 14 15 15 15 15 14 13 13 12 11 10 10 11 11 12 12 12 13 13 13 12 11 10 10 11 11
21 21 21 22 23 24 24 23 22 22 20 19 18 17 16 15 14 15 16 16 16 15 14 13 13 12 12 11 11 11 11 12 13 14 14 14 14 13 12 12 12 12
24 22 21 22 23 24 24 25 24 24 23 21 20 19 18 17 16 16 17 17 17 17 16 15 14 13 13 13 12 12 11 12 13 14 15 15 15 15 14 14 14 14
27 24 23 22 23 23 24 25 26 25 25 23 23 22 21 20 19 19 19 19 19 18 17 16 15 14 14 13 12 11 11 12 12 13 14 15 16 16 16 15 15 15
28 26 24 23 22 23 24 25 26 26 25 25 24 24 23 23 22 21 20 20 20 19 18 18 17 17 16 15 13 12 12 12 12 12 13 14 15 16 16 16 16 15
28 26 24 23 22 23 23 24 25 25 25 25 24 24 23 23 23 22 22 22 21 20 19 19 19 19 19 18 17 15 14 13 12 12 13 13 13 14 15 16 15 15
28 26 25 24 23 23 23 22 23 24 24 25 24 23 22 21 21 22 22 23 22 21 20 20 20 20 20 19 19 18 17 15 14 14 14 14 14 14 14 14 14 15
27 25 25 24 23 23 22 22 23 23 23 23 24 24 23 22 22 22 22 23 23 22 21 20 20 20 20 20 20 20 19 18 17 16 16 16 16 15 14 13 13 14
27 27 27 26 25 24 23 23 24 24 23 23 23 24 24 23 23 23 22 22 22 23 22 21 20 19 19 19 20 20 21 21 20 19 18 18 18 17 16 15 14 14
22 24 24 24 24 24 24 25 25 25 24 24 23 24 24 24 24 24 23 22 22 23 23 22 21 20 19 20 20 21 22 23 23 22 22 21 20 20 19 18 18 17
16 16 17 18 19 20 22 22 23 24 24 24 24 24 24 24 24 25 24 23 22 23 24 24 23 21 21 21 21 21 22 24 25 25 24 24 23 23 22 22 21 20
13 14 14 15 15 16 17 17 17 20 22 23 24 24 24 25 26 25 24 24 24 25 27 27 25 24 23 23 23 22 23 24 26 26 26 26 25 24 24 23 23 22
10 10 11 12 13 13 13 13 14 16 18 18 19 21 22 24 25 25 24 25 26 28 30 29 28 26 25 25 24 24 24 25 26 27 27 27 26 25 25 24 23 23
8 7 7 9 11 11 12 13 14 15 15 14 15 17 20 21 22 23 24 25 27 30 31 30 29 27 26 26 25 25 25 26 26 26 27 27 27 26 26 25 25 24
10 8 6 4 4 6 9 12 11 11 12 13 13 14 15 17 18 19 20 23 25 27 28 28 28 26 25 25 25 26 26 26 27 27 26 26 26 25 25 25 26 25
11 11 11 8 5 1 5 9 10 9 11 12 13 12 12 13 15 16 17 20 21 22 23 23 23 23 23 23 23 24 24 25 26 27 27 27 26 25 24 24 24 25
8 9 10 10 8 7 4 5 7 8 10 11 12 12 11 12 13 14 14 15 16 17 17 17 17 17 18 19 20 20 21 22 23 25 26 27 28 27 27 26 25 25

ECMWFNIL_850_spd_105.txt.gz
Wind_Speed
18 18 18 17 16 14 12 10 9 8 8 8 8 8 8 8 8 9 8 7 7 7 8 8 8 7 7 6 6 6 5 5 5 5 5 6 6 7 7 8 8 7
18 18 18 18 17 15 13 11 9 8 8 8 8 8 8 8 8 8 8 8 7 8 8 8 8 8 7 7 7 7 7 6 5 5 5 5 6 6 7 7 8 8
19 19 19 19 18 16 14 12 11 9 8 9 9 9 8 8 8 8 8 8 8 8 8 8 8 8 7 7 7 7 7 6 6 6 6 5 6 6 6 7 7 8
19 20 20 19 19 17 15 14 12 10 10 10 10 10 10 9 8 9 9 9 9 9 9 8 8 7 7 7 7 7 7 7 7 7 7 6 6 6 6 6 7 7
19 20 20 20 19 18 17 16 14 12 10 10 10 11 10 10 9 9 9 9 9 9 9 9 8 7 7 7 7 7 7 7 7 8 8 7 7 6 6 6 6 7
18 19 20 20 20 19 18 17 16 13 12 11 11 11 10 10 9 9 9 8 9 9 9 9 9 8 7 7 7 7 7 7 8 8 8 8 7 7 7 7 6 7
18 18 19 20 20 20 19 18 16 15 13 12 11 11 10 10 9 9 9 9 9 9 9 9 9 8 8 6 6 6 6 7 7 7 7 7 8 8 7 7 7 7
18 18 18 20 20 20 20 19 18 16 14 13 12 11 11 10 9 9 9 9 9 9 9 9 9 9 9 8 7 6 6 6 7 7 7 7 8 8 7 8 8 8
17 17 17 18 20 21 20 19 19 17 16 15 13 12 11 10 10 10 10 10 10 10 9 9 9 9 9 9 8 7 6 7 7 8 8 8 8 8 7 8 8 8
17 17 17 17 18 20 20 20 20 19 17 16 15 13 11 10 10 10 10 10 10 10 10 10 9 9 10 10 9 8 7 7 7 8 9 9 9 9 8 9 9 9
19 19 18 17 17 18 19 20 20 20 19 18 16 15 13 11 11 10 10 10 10 10 10 10 10 10 10 10 9 8 8 7 7 8 8 9 9 10 10 10 10 10
21 21 20 19 17 17 17 19 20 21 21 20 18 17 15 13 13 12 11 11 11 11 11 11 11 11 11 10 10 9 8 8 7 8 8 9 10 10 11 11 12 12
22 22 21 20 20 18 17 18 19 20 21 21 20 18 17 16 15 15 14 13 13 13 13 13 12 12 12 11 11 10 10 9 8 8 8 8 9 10 11 11 12 12
24 22 21 21 21 20 18 18 18 19 20 21 21 21 20 19 17 16 16 16 16 15 15 15 14 14 14 13 12 11 11 10 10 9 9 9 9 9 10 11 12 12
26 24 23 23 22 20 19 18 18 19 20 21 21 22 22 21 19 18 18 18 18 18 17 17 17 16 15 14 13 13 13 12 12 11 11 11 11 11 11 11 11 12
27 26 26 25 23 22 20 19 18 19 20 21 21 22 22 21 20 19 19 20 19 19 19 19 19 18 16 15 14 14 14 14 14 14 13 13 13 13 13 13 12 12
25 25 27 25 24 24 23 21 20 19 20 21 21 21 21 20 19 19 19 19 20 20 20 20 20 19 17 16 15 15 15 15 15 15 15 15 15 15 14 14 14 14
24 24 25 25 24 26 26 24 22 20 20 21 22 21 20 19 19 18 18 19 20 20 21 21 21 20 18 16 16 15 15 15 15 16 16 16 17 17 16 16 15 15
23 24 25 25 25 26 26 24 22 21 20 20 20 20 19 19 19 19 19 19 20 20 20 20 21 21 19 17 16 15 15 15 15 15 16 17 17 17 18 18 18 17
20 22 24 25 26 27 26 25 23 22 20 20 20 20 20 19 19 20 20 20 20 20 20 20 20 20 20 19 18 17 16 16 16 16 16 17 17 17 18 19 19 19
17 18 20 21 23 25 26 25 24 23 22 21 21 22 21 20 21 21 21 20 20 21 21 20 20 20 19 20 20 19 18 18 18 18 18 18 17 17 18 19 19 20
13 14 14 15 16 18 21 23 23 23 23 22 22 22 21 20 21 22 22 21 22 22 22 22 22 22 20 20 21 21 21 21 20 20 20 19 18 18 18 18 19 20
5 6 8 10 14 18 19 19 20 20 20 20 21 21 20 20 21 21 21 21 21 21 22 22 23 23 23 22 22 23 23 23 23 23 22 21 20 20 19 19 20 20
6 4 3 6 10 15 16 16 16 15 16 16 17 18 18 18 18 18 18 18 18 17 17 19 19 21 23 24 24 25 26 26 27 26 25 24 23 23 23 22 21 21
9 8 6 5 5 7 10 12 12 12 12 13 13 13 14 15 15 15 15 16 15 13 13 14 14 16 20 22 24 26 27 28 28 28 27 26 25 25 25 24 23 23
8 9 9 9 8 6 5 8 9 9 10 10 9 9 10 11 13 13 13 14 14 14 14 13 11 11 14 17 20 22 24 25 26 26 26 26 25 25 25 24 24 24

ECMWFNIL_850_spd_108.txt.gz
Wind_Speed
15 15 15 14 13 12 11 10 9 9 8 8 7 7 8 9 9 9 9 9 9 8 8 8 8 8 7 6 7 6 6 6 5 5 5 4 4 4 4 5 5 5
16 16 16 15 14 15 14 12 10 9 10 9 8 7 8 9 9 10 9 9 8 8 8 7 7 7 6 6 7 6 7 7 5 4 5 5 4 4 4 5 5 6
16 17 17 16 15 15 14 12 12 11 10 9 9 8 8 8 9 9 9 9 8 7 7 7 6 6 6 7 7 6 7 7 5 5 6 6 5 5 4 5 5 6
17 17 17 16 14 14 13 13 13 12 10 10 10 9 9 9 9 9 9 10 9 9 8 7 7 6 7 7 7 6 7 7 6 6 7 6 6 6 5 5 6 6
17 17 17 17 15 14 14 14 13 12 11 11 10 10 11 11 10 9 9 10 9 9 9 8 7 7 7 7 6 6 6 6 6 7 7 6 6 6 5 6 7 7
17 17 17 18 17 15 15 14 14 13 12 12 11 11 11 11 11 10 10 10 9 9 8 8 8 7 7 7 7 6 6 5 7 9 7 6 7 6 6 7 7 7
16 16 16 17 18 17 16 15 14 13 12 12 11 12 11 11 11 11 11 11 10 10 9 9 9 9 8 8 7 7 7 7 8 8 7 6 7 7 7 8 8 8
16 15 15 16 17 18 17 16 15 14 14 13 12 12 12 12 12 11 12 11 10 11 11 11 11 9 8 8 8 7 6 6 7 7 6 6 7 7 7 7 8 8
16 16 15 15 16 17 17 17 16 15 15 14 13 13 12 13 12 12 12 12 11 12 12 11 11 9 9 10 9 8 7 7 7 7 7 7 7 7 7 7 8 8
16 16 16 15 15 16 17 17 16 15 15 15 14 13 13 13 13 12 13 13 12 12 12 11 11 10 10 10 10 9 8 8 8 8 8 7 7 7 7 7 8 7
17 15 15 15 15 15 15 16 16 16 15 15 15 14 13 13 13 13 13 13 12 12 11 11 11 11 11 11 10 9 9 8 8 8 7 7 7 8 8 8 8 8
18 16 15 15 15 15 14 15 16 16 16 15 15 15 15 14 13 13 13 13 13 12 11 11 11 11 11 11 11 10 10 10 9 8 8 8 8 8 8 8 8 8
18 17 16 15 14 15 14 14 15 16 16 15 15 15 16 15 14 13 13 13 13 12 12 12 12 12 12 12 12 12 12 11 10 10 9 9 8 8 8 9 9 9
18 17 17 17 16 16 15 15 15 15 16 15 15 16 16 16 15 14 14 13 13 13 12 13 13 13 13 13 13 13 12 12 11 11 10 10 9 9 9 9 9 9
23 21 20 19 19 19 18 17 16 16 17 16 17 17 16 16 15 15 15 14 13 14 14 14 14 13 13 14 14 13 11 11 11 11 11 11 10 10 10 10 10 10
26 26 24 22 21 19 19 20 19 19 18 18 19 20 18 18 17 17 16 15 15 15 15 16 15 14 16 17 16 14 13 12 12 13 13 13 12 12 12 11 11 11
28 29 28 27 25 23 22 21 21 22 21 20 20 21 20 21 20 20 18 17 16 16 16 16 15 15 18 19 17 16 17 17 16 15 14 15 14 13 13 12 12 12
27 27 27 27 27 26 25 24 24 24 24 22 21 21 21 22 22 22 21 19 17 15 15 15 14 16 19 20 17 16 18 18 17 15 14 14 14 13 13 13 13 12
23 23 23 23 23 24 25 26 27 26 25 24 22 21 21 22 22 22 22 21 19 18 17 16 14 16 20 20 17 17 17 18 18 17 15 14 14 13 14 14 14 14
20 22 22 21 21 22 23 25 27 27 26 25 23 21 21 22 22 22 22 22 22 21 20 18 16 17 21 20 17 17 18 18 19 18 17 16 15 15 15 15 15 16
18 19 20 19 20 21 21 23 25 25 24 24 23 23 22 21 20 20 20 21 21 21 21 19 17 18 21 21 18 19 20 19 20 20 19 18 18 18 17 17 17 17
18 18 18 18 19 19 19 21 23 25 24 23 23 23 22 20 19 18 18 18 19 19 19 18 16 18 22 22 20 20 21 21 21 21 21 21 21 20 20 19 18 18
12 14 14 15 17 18 19 19 20 24 26 24 22 23 23 23 20 18 17 17 17 18 19 18 17 20 23 23 22 21 22 22 22 21 21 22 22 21 21 21 20 20
7 7 8 9 11 14 18 17 17 21 26 25 21 21 21 21 21 19 17 17 17 18 18 18 18 21 24 23 22 22 23 23 22 22 21 21 21 21 21 21 22 23
7 6 5 6 6 8 11 12 11 13 18 21 21 20 18 18 18 17 17 17 17 17 16 15 16 20 22 22 20 20 21 22 22 23 22 21 20 20 19 21 23 25
9 8 7 6 5 5 6 6 6 6 8 15 19 18 17 18 16 15 15 15 14 14 14 15 17 18 17 17 17 17 18 19 19 20 21 20 20 20 19 18 19 19

ECMWFNIL_850_spd_111.txt.gz
Wind_Speed
15 14 13 12 11 10 9 9 9 10 10 9 8 9 9 9 9 10 10 10 10 9 9 9 8 8 7 6 8 9 7 7 7 6 6 5 4 4 5 5 5 6
16 15 14 12 12 12 12 10 9 9 10 10 8 7 8 10 11 11 11 11 9 8 9 8 8 9 8 7 9 9 9 8 7 6 7 6 5 5 5 6 6 6
16 16 15 13 13 13 12 11 10 10 10 10 9 8 8 9 11 11 12 12 10 9 10 9 9 9 9 10 9 7 8 8 7 8 9 8 6 6 6 6 6 6
16 16 15 14 13 12 11 11 12 12 10 9 9 9 9 9 9 11 12 12 12 12 11 10 10 9 9 10 7 6 8 8 7 8 9 8 7 7 6 6 6 5
16 16 15 14 13 12 12 13 13 13 12 12 13 12 11 10 9 10 11 11 12 13 12 11 10 10 10 9 7 7 8 7 7 7 6 7 7 6 6 6 7 6
16 16 16 16 15 14 14 13 13 13 12 13 14 13 11 11 11 11 11 11 11 11 11 11 10 10 10 9 8 8 8 7 9 9 7 7 7 6 6 6 8 8
16 16 17 16 16 16 15 14 14 14 13 14 14 13 12 13 13 12 12 12 11 11 11 11 11 10 10 10 9 9 9 10 11 10 9 7 7 8 8 8 9 9
16 16 16 17 17 17 16 15 15 15 16 16 15 14 15 15 14 13 13 13 12 12 12 11 12 12 11 11 11 9 9 11 11 9 8 8 8 9 8 8 9 9
16 16 16 17 17 17 17 17 16 16 16 17 15 15 15 14 14 14 14 13 14 14 13 12 13 14 12 12 12 11 10 10 10 8 8 8 8 8 8 8 8 8
16 16 16 17 17 18 18 18 18 17 17 17 16 16 16 15 15 15 15 15 15 15 14 14 15 14 13 13 13 13 11 10 11 11 11 10 9 9 9 8 9 8
16 16 16 17 17 17 18 18 19 18 19 19 17 16 17 16 15 14 14 16 16 15 15 15 15 14 14 13 13 13 12 11 11 12 12 11 10 10 10 10 10 9
17 16 16 17 17 17 17 18 19 19 20 21 19 18 17 15 14 15 15 16 16 16 16 15 15 14 14 14 13 13 12 12 11 11 12 12 11 11 11 11 11 10
21 18 17 17 17 18 17 17 18 19 19 19 18 17 17 17 17 17 17 17 17 17 16 15 15 15 15 16 14 13 13 12 12 12 11 11 11 11 11 11 11 11
21 20 19 18 17 17 18 17 17 18 18 18 18 17 18 18 18 17 18 18 18 17 17 16 17 16 16 17 15 14 14 13 13 13 12 12 11 11 11 11 12 11
19 18 19 19 19 19 20 19 17 17 18 18 18 19 18 19 19 18 18 18 18 18 18 17 17 16 16 17 16 15 14 14 13 12 11 12 12 11 11 11 12 12
22 21 21 22 22 22 23 23 19 17 17 18 19 19 18 19 20 20 20 19 18 18 18 17 17 16 16 17 16 15 14 13 14 13 12 13 13 12 12 12 12 12
25 25 26 25 24 25 26 25 23 20 18 18 19 19 20 20 21 21 22 21 20 20 20 19 17 16 16 18 18 16 14 14 14 14 14 14 13 13 14 13 13 13
29 29 29 28 27 27 26 25 25 24 23 22 21 20 22 23 24 24 23 22 21 20 19 17 16 16 17 18 19 19 17 15 15 14 14 14 14 14 15 14 14 14
28 29 31 31 30 29 28 26 26 25 25 24 23 22 23 25 25 25 24 23 22 20 18 17 16 17 18 19 20 21 20 18 17 16 15 15 15 15 15 14 14 14
22 23 25 28 30 30 30 30 30 28 26 24 23 24 25 24 22 21 23 24 24 22 20 18 17 17 18 19 21 22 22 20 19 17 16 16 16 17 16 15 15 15
19 19 19 21 24 26 27 29 29 29 29 28 27 26 25 24 23 22 22 21 22 23 22 20 18 18 18 18 20 23 23 21 20 19 18 16 16 17 18 18 17 17
18 17 16 16 18 20 21 22 23 25 27 29 28 27 26 26 25 25 22 20 19 21 20 19 20 21 20 19 20 22 22 21 20 21 21 20 18 18 18 18 18 18
15 15 16 15 16 18 19 19 20 22 24 25 26 27 28 28 27 25 23 21 19 16 16 19 22 22 20 20 21 22 22 21 20 21 22 22 21 19 19 20 19 19
6 8 9 10 11 15 18 19 20 20 20 20 23 25 27 29 28 25 23 22 20 16 14 15 19 19 19 20 22 23 23 21 20 20 21 22 21 20 20 20 20 19
2 2 3 4 7 9 12 13 15 16 15 16 20 22 24 26 26 23 21 21 21 19 17 13 12 14 16 18 20 21 22 21 20 20 22 22 22 21 19 18 18 17
5 3 3 2 3 4 5 6 7 8 9 11 14 17 20 22 22 20 20 21 21 21 18 13 12 15 15 15 17 19 20 19 18 20 21 20 20 21 19 17 17 16

ECMWFNIL_850_spd_114.txt.gz
Wind_Speed
17 17 16 14 12 10 11 12 11 11 10 10 11 10 11 11 9 10 10 9 9 10 10 9 8 9 9 9 10 10 10 8 9 8 7 7 7 6 5 4 5 5
18 17 16 14 13 12 12 12 10 10 10 10 11 10 11 11 10 10 9 9 9 9 10 9 9 10 9 9 10 10 10 9 9 9 9 9 8 8 8 5 4 5
19 17 16 15 14 14 13 12 11 11 12 12 11 10 9 11 10 10 11 10 10 10 10 10 10 10 10 10 9 10 10 9 9 10 9 9 9 8 8 7 5 6
19 18 17 15 13 14 13 13 13 13 13 13 12 10 9 11 10 10 12 12 11 11 10 10 11 10 10 11 9 9 10 9 9 10 10 9 8 8 9 7 6 6
19 19 18 16 14 14 14 14 14 13 13 13 12 11 10 11 10 10 12 11 11 11 11 11 11 11 11 11 9 9 10 9 9 10 9 8 7 7 8 6 6 7
18 19 19 17 17 16 14 14 14 13 12 12 12 12 12 11 11 12 11 10 11 11 11 11 11 10 11 10 9 10 9 8 8 9 8 7 7 6 6 6 7 9
18 18 18 17 17 16 13 12 12 13 13 13 13 14 14 13 13 11 10 9 10 10 12 12 11 10 10 10 9 10 10 8 8 9 9 7 7 7 7 7 8 10
17 17 17 17 16 16 14 13 13 14 14 15 15 15 15 15 13 11 11 11 11 11 13 13 12 11 11 11 10 10 9 10 10 10 8 7 8 9 8 9 9 11
17 17 17 17 16 16 16 15 15 14 14 15 14 14 15 16 15 14 14 13 13 14 14 14 13 12 12 12 11 11 10 11 11 11 9 8 9 9 9 9 10 10
17 17 16 16 17 16 16 16 15 14 15 16 15 13 15 16 15 16 16 15 16 16 15 15 15 14 13 13 13 12 11 10 12 12 11 9 9 9 9 9 9 9
16 16 16 16 16 16 16 16 16 15 16 17 16 15 16 16 15 16 16 15 16 16 15 16 16 15 15 15 15 14 11 11 12 13 11 10 10 10 11 10 10 10
17 16 16 16 16 16 16 16 16 16 16 17 18 17 17 16 15 15 15 15 16 16 15 16 16 16 16 16 15 15 14 13 12 12 12 12 13 13 12 12 12 12
19 17 16 16 16 16 16 15 16 16 16 17 18 19 18 17 17 16 15 15 16 16 16 16 17 17 17 17 16 15 15 14 13 13 13 13 14 14 13 11 11 12
19 18 16 16 16 16 16 15 16 16 17 18 19 19 18 18 18 18 17 15 15 16 16 16 17 17 17 17 17 15 15 15 13 13 13 13 13 13 12 11 12 13
20 19 18 18 17 17 17 17 17 16 15 17 19 19 18 19 19 18 18 17 16 17 17 17 17 17 17 17 17 16 16 15 15 14 14 14 13 12 12 11 12 12
20 21 22 22 21 20 19 20 20 17 15 15 17 17 16 17 18 19 20 20 20 20 20 18 17 17 17 16 17 17 16 15 16 15 13 14 14 13 13 12 12 12
20 21 23 23 24 23 22 23 23 22 19 18 18 19 16 15 17 18 19 20 19 19 19 17 17 17 17 16 16 17 16 15 15 14 13 14 15 14 14 14 13 12
20 20 22 24 25 25 24 23 24 25 24 21 20 20 19 17 16 16 16 16 16 16 17 16 15 18 18 15 14 16 17 16 14 13 12 14 13 13 13 13 13 13
21 21 22 24 25 25 26 25 24 24 25 24 22 21 20 18 17 17 18 18 16 15 15 15 17 19 19 17 15 17 18 17 15 14 14 14 13 14 14 13 13 15
23 23 24 24 24 25 27 28 27 25 24 24 24 23 23 22 20 19 21 22 21 19 16 17 19 19 17 17 17 18 20 19 17 17 16 15 14 14 14 14 15 15
22 23 25 26 26 27 28 30 29 27 26 25 25 25 25 26 25 23 23 23 24 24 23 23 23 19 16 16 15 17 21 21 19 19 19 17 16 14 13 14 15 16
19 20 22 22 22 24 26 29 31 31 31 31 30 29 28 28 27 26 26 25 25 25 25 25 25 21 18 18 15 14 18 20 18 19 20 20 18 16 15 14 15 17
17 18 18 19 19 20 22 24 26 28 29 31 32 32 31 31 29 28 28 27 27 27 26 25 24 21 18 19 18 17 18 19 20 20 20 20 18 17 18 19 18 19
12 13 14 16 17 18 18 19 19 20 21 24 26 26 27 28 29 29 29 28 28 29 28 25 23 21 18 19 22 23 22 22 23 23 22 21 19 18 20 21 21 22
3 5 7 10 13 13 14 15 16 17 17 18 19 20 21 23 25 26 28 29 30 31 29 24 21 19 18 20 23 25 25 24 24 24 23 22 21 21 21 21 21 21
4 4 5 5 5 5 5 7 10 12 13 14 16 16 17 18 20 23 26 29 32 33 30 25 22 18 17 20 23 23 23 23 23 23 24 23 22 21 20 21 22 22

ECMWFNIL_850_spd_117.txt.gz
Wind_Speed
21 18 17 18 17 16 16 16 14 12 12 13 12 12 11 10 11 10 10 10 10 9 8 8 7 8 8 8 8 8 8 7 6 6 6 6 7 7 8 7 6 5
23 19 17 18 18 16 15 15 14 12 12 12 12 12 12 10 11 10 10 11 11 10 9 8 8 9 9 9 9 9 10 9 7 7 8 8 7 8 8 7 7 6
24 22 19 17 16 15 14 14 13 12 12 12 12 13 13 11 11 11 10 11 11 10 9 9 9 9 9 9 10 10 9 9 8 8 8 8 8 8 8 8 8 7
23 23 21 18 17 16 15 14 13 12 13 13 13 13 13 12 12 12 12 12 11 9 9 9 10 10 10 10 9 9 9 8 8 9 8 7 7 8 9 9 8 7
22 21 20 18 17 16 15 15 14 14 14 14 14 14 13 12 12 12 13 12 10 10 9 9 10 10 10 10 9 8 8 7 8 9 8 7 7 8 9 9 9 8
22 21 20 19 17 15 15 16 16 15 14 14 14 14 13 12 11 12 12 11 11 11 10 9 10 10 10 10 9 9 8 8 8 8 8 7 7 7 8 9 10 8
22 22 21 20 19 17 16 16 16 16 15 14 14 14 14 13 12 12 11 11 12 12 11 10 10 9 9 10 9 9 9 9 8 8 7 6 7 7 7 9 9 8
20 21 21 21 20 19 19 17 16 16 15 14 14 15 15 14 13 12 11 11 12 12 11 11 11 10 9 10 10 9 9 9 9 9 7 6 7 7 7 8 9 8
19 20 21 22 22 20 20 18 16 16 16 15 14 13 14 14 14 13 13 13 14 12 12 12 12 11 11 10 10 9 9 9 10 10 8 7 7 7 6 8 8 9
18 19 19 21 23 21 20 18 16 15 16 16 15 14 14 14 15 15 15 15 14 13 14 14 13 12 12 12 11 10 10 9 9 9 9 8 7 7 7 8 8 8
19 18 17 18 20 20 19 17 16 15 15 15 15 15 14 14 16 16 17 16 14 14 15 15 14 14 14 13 12 11 10 10 9 10 10 9 8 8 7 7 7 8
19 18 18 17 17 19 19 18 18 17 17 16 16 14 13 14 14 15 16 16 15 15 16 16 15 15 14 13 12 11 11 11 10 10 10 9 9 9 8 8 9 10
19 18 18 17 16 17 17 17 17 18 19 19 17 16 15 14 13 13 15 16 15 15 16 16 16 16 15 14 14 13 13 13 13 12 11 10 10 10 10 10 10 10
21 20 19 18 17 17 17 17 17 17 19 20 19 18 17 15 14 13 14 15 15 15 15 15 15 15 15 15 15 15 14 14 14 14 14 13 11 11 10 10 9 9
23 23 21 19 18 18 18 19 19 18 19 20 20 19 18 17 15 14 14 15 15 15 14 15 15 15 15 16 15 15 14 14 13 13 14 14 13 12 11 10 9 9
21 22 22 21 19 19 20 22 22 20 19 20 19 17 17 18 16 14 14 15 15 15 14 14 16 16 15 15 15 15 15 14 14 14 14 13 12 12 12 12 11 10
18 19 23 24 22 20 20 22 23 22 20 21 19 17 17 19 17 17 17 17 17 17 17 17 18 16 14 14 14 14 15 14 13 12 11 11 11 12 12 12 11 10
22 22 26 27 26 24 23 23 24 24 23 22 20 18 19 20 20 20 20 20 20 20 20 20 21 18 16 15 14 14 15 15 12 10 9 10 10 9 9 9 9 10
26 26 28 28 27 27 26 26 27 28 27 25 23 21 19 19 20 22 22 21 22 23 23 22 22 20 17 17 16 16 15 16 14 11 10 10 9 8 8 9 9 9
24 26 27 25 25 26 27 27 29 29 29 29 28 26 23 19 19 20 21 21 22 23 23 22 21 20 18 17 18 18 17 16 15 14 14 13 12 12 13 13 12 11
24 25 25 24 23 25 26 27 28 29 29 30 30 29 27 24 20 19 19 19 21 21 21 20 20 19 18 19 19 20 20 19 17 16 17 18 17 16 16 16 16 16
24 25 25 25 25 26 26 27 28 29 29 29 29 29 28 27 25 23 21 20 19 20 21 21 21 20 21 22 21 20 20 20 19 20 21 20 20 20 18 17 18 19
20 21 22 24 26 26 26 27 29 30 30 30 29 28 28 28 28 27 26 25 23 23 23 23 23 23 25 25 24 22 21 19 19 21 22 22 22 22 20 19 18 19
16 18 19 19 20 21 22 22 24 26 28 28 29 29 29 30 30 30 30 29 28 27 27 27 27 27 27 27 25 23 22 21 20 20 21 21 22 21 21 20 19 19
8 10 12 14 15 16 18 19 20 21 22 23 24 25 26 27 29 30 31 31 30 31 31 31 31 31 30 29 26 23 22 22 21 21 21 21 21 21 21 20 20 19
2 1 3 6 9 10 12 15 17 18 18 18 19 20 21 21 22 24 26 27 28 29 31 31 31 31 30 30 28 25 23 23 23 23 23 22 22 22 21 20 20 20

ECMWFNIL_850_spd_120.txt.gz
Wind_Speed
24 23 21 20 21 21 20 19 18 17 15 14 14 14 12 10 10 11 12 12 11 10 9 8 8 8 8 8 8 8 7 7 6 6 6 8 8 8 9 9 9 9
25 24 22 21 21 21 20 19 18 16 15 14 14 13 12 11 12 12 12 12 11 10 10 9 8 8 9 9 9 9 8 8 7 7 6 6 7 7 9 9 8 9
26 25 23 21 21 21 20 19 18 16 15 14 14 14 13 12 12 12 11 11 11 11 10 10 9 9 9 10 10 9 9 9 9 8 8 7 7 7 8 9 8 8
26 26 24 21 21 21 20 19 19 17 16 16 15 15 14 14 13 13 12 11 11 12 11 11 11 10 10 10 10 9 9 9 9 10 9 7 6 7 8 9 8 9
26 25 24 22 22 21 20 20 19 18 17 16 15 15 15 15 15 14 13 12 12 12 12 12 11 11 11 11 10 10 9 8 8 10 9 7 6 7 8 9 9 10
27 26 24 22 22 21 21 20 19 18 17 16 15 15 15 15 15 14 13 13 13 13 13 12 12 12 12 11 11 10 10 9 9 9 9 7 7 8 7 8 10 11
28 28 25 23 22 22 22 20 19 18 17 16 15 15 15 15 14 14 13 13 13 14 14 12 11 11 11 11 11 11 10 10 9 9 8 7 7 8 7 7 9 11
28 28 27 25 24 23 22 20 19 19 17 16 15 15 16 16 15 14 14 13 13 14 14 12 11 11 10 11 11 10 10 10 10 9 8 6 7 7 7 7 8 9
28 28 28 26 25 25 23 20 19 18 17 16 16 16 16 17 16 15 14 13 13 13 13 12 12 12 11 10 10 10 10 10 9 9 8 7 7 7 7 7 8 9
27 27 28 27 26 25 23 21 19 18 17 16 16 15 16 17 16 16 15 15 14 14 13 13 13 13 12 11 10 9 10 10 9 9 9 8 8 8 7 7 8 8
26 25 27 28 27 26 25 23 22 20 18 18 17 17 16 15 15 16 16 16 15 15 14 15 14 13 12 12 11 10 10 10 10 9 9 9 8 8 7 7 8 8
24 23 23 26 27 27 26 25 23 22 20 19 18 17 16 14 14 15 16 17 16 15 16 16 15 13 13 12 12 12 11 11 10 10 10 10 9 8 8 8 8 8
25 22 20 21 23 25 27 26 23 22 21 20 18 17 16 14 14 14 14 15 15 15 16 16 15 15 14 13 13 13 13 12 11 10 11 11 10 8 8 9 10 10
26 25 21 19 19 20 23 24 23 21 20 19 19 19 18 16 14 14 13 12 13 14 15 15 15 16 15 15 15 15 14 13 12 12 13 12 11 10 9 9 10 10
25 26 24 22 20 18 18 20 21 21 21 20 20 20 20 19 17 15 14 13 13 13 14 15 16 16 17 16 16 16 16 15 14 14 14 14 14 13 11 10 10 10
26 26 26 24 23 21 21 21 22 23 24 23 23 23 23 22 20 18 16 15 15 14 15 17 18 18 17 17 17 17 17 17 16 15 15 15 15 14 12 11 11 11
26 26 25 23 21 21 23 24 24 24 24 24 24 23 24 24 22 20 19 18 17 17 17 19 19 18 17 17 17 18 18 18 17 16 15 15 15 14 13 12 11 10
26 25 24 22 20 19 20 22 23 23 24 24 23 22 22 23 23 22 21 21 20 20 19 19 19 19 18 17 17 17 18 18 18 16 14 14 13 12 12 11 9 8
26 25 25 24 23 21 20 20 21 22 23 24 24 23 21 22 23 23 23 23 22 21 21 20 19 19 19 19 18 17 17 18 18 16 15 14 13 11 10 10 10 11
26 25 24 24 25 25 23 22 23 23 24 24 24 24 23 22 22 23 24 25 24 23 22 22 21 22 22 21 20 19 19 19 18 17 16 16 15 13 12 13 14 14
24 25 25 24 25 26 26 26 26 25 25 25 25 26 26 24 22 21 23 24 25 26 25 25 24 25 24 24 22 21 20 21 20 18 18 18 18 17 16 17 18 17
24 25 26 26 26 27 27 28 28 27 27 27 28 29 31 29 26 25 24 24 24 25 27 27 26 26 26 26 23 21 21 21 21 20 20 20 21 21 20 20 21 21
24 25 26 27 26 27 28 29 29 29 28 28 29 31 32 32 32 32 31 29 27 26 27 27 26 25 26 25 23 21 21 21 21 21 22 23 23 24 23 23 23 23
22 24 26 27 27 27 28 29 30 31 30 27 27 29 30 30 30 32 32 32 30 27 28 28 27 26 26 25 24 23 23 23 22 23 24 25 26 26 27 27 26 26
20 22 24 26 27 27 27 28 29 31 31 29 28 29 30 31 31 32 32 31 29 28 29 29 28 27 27 27 26 26 26 25 25 25 25 26 27 27 28 29 28 28
13 15 17 19 21 23 24 26 27 26 26 27 27 28 30 31 31 31 31 29 28 29 32 33 32 30 29 30 29 29 29 29 27 27 27 27 28 27 27 27 27 26